[[{"header":{"parameterUnit":"m.s-1","parameterCategory":1,"la1":30.6,"la2":28.766,"lo1":-90.7593,"lo2":-88.6598,"dy":0.0162,"dx":0.0183,"nx":116,"ny":114,"refTime":"2024-06-25T06:00:00:Z","depth":0,"parameterNumber":2,"parameterNumberName":"U-component_of_WINDS"},"data":[0.0,0.0,0.0,0.0,0.0,0.0,0.0,0.0,0.0,0.0,0.0,0.0,0.0,0.0,0.0,0.0,0.0,0.0,0.0,0.0,0.0,0.0,0.0,0.0,0.0,0.0,0.0,0.0,0.0,0.0,0.0,0.0,0.0,0.0,0.0,0.0,0.0,0.0,0.0,0.0,0.0,0.0,0.0,0.0,0.0,0.0,0.0,0.0,0.0,0.0,0.0,0.0,0.0,0.0,0.0,0.0,0.0,0.0,0.0,0.0,0.0,0.0,0.0,0.0,0.0,0.0,0.0,0.0,0.0,0.0,0.0,0.0,0.0,0.0,0.0,0.0,0.0,0.0,0.0,0.0,0.0,0.0,0.0,0.0,0.0,0.0,0.0,0.0,0.0,0.0,0.0,0.0,0.0,0.0,0.0,0.0,0.0,0.0,0.0,0.0,0.0,0.0,0.0,0.0,0.0,0.0,0.0,0.0,0.0,0.0,0.0,0.0,0.0,0.0,0.0,0.0,0.0,0.0,0.0,0.0,0.0,0.0,0.0,0.0,0.0,0.0,0.0,0.0,0.0,0.0,0.0,0.0,0.0,0.0,0.0,0.0,0.0,0.0,0.0,0.0,0.0,0.0,0.0,0.0,0.0,0.0,0.0,0.0,0.0,0.0,0.0,0.0,0.0,0.0,0.0,0.0,0.0,0.0,0.0,0.0,0.0,0.0,0.0,0.0,0.0,0.0,0.0,0.0,0.0,0.0,0.0,0.0,0.0,0.0,0.0,0.0,0.0,0.0,0.0,0.0,0.0,0.0,0.0,0.0,0.0,0.0,0.0,0.0,0.0,0.0,0.0,0.0,0.0,0.0,0.0,0.0,0.0,0.0,0.0,0.0,0.0,0.0,0.0,0.0,0.0,0.0,0.0,0.0,0.0,0.0,0.0,0.0,0.0,0.0,0.0,0.0,0.0,0.0,0.0,0.0,0.0,0.0,0.0,0.0,0.0,0.0,0.0,0.0,0.0,0.0,0.0,0.0,0.0,0.0,0.0,0.0,0.0,0.0,0.0,0.0,0.0,0.0,0.0,0.0,0.0,0.0,0.0,0.0,0.0,0.0,0.0,0.0,0.0,0.0,0.0,0.0,0.0,0.0,0.0,0.0,0.0,0.0,0.0,0.0,0.0,0.0,0.0,0.0,0.0,0.0,0.0,0.0,0.0,0.0,0.0,0.0,0.0,0.0,0.0,0.0,0.0,0.0,0.0,0.0,0.0,0.0,0.0,0.0,0.0,0.0,0.0,0.0,0.0,0.0,0.0,0.0,0.0,0.0,0.0,0.0,0.0,0.0,0.0,0.0,0.0,0.0,0.0,0.0,0.0,0.0,0.0,0.0,0.0,0.0,0.0,0.0,0.0,0.0,0.0,0.0,0.0,0.0,0.0,0.0,0.0,0.0,0.0,0.0,0.0,0.0,0.0,0.0,0.0,0.0,0.0,0.0,0.0,0.0,0.0,0.0,0.0,0.0,0.0,0.0,0.0,0.0,0.0,0.0,0.0,0.0,0.0,0.0,0.0,0.0,0.0,0.0,0.0,0.0,0.0,0.0,0.0,0.0,0.0,0.0,0.0,0.0,0.0,0.0,0.0,0.0,0.0,0.0,0.0,0.0,0.0,0.0,0.0,0.0,0.0,0.0,0.0,0.0,0.0,0.0,0.0,0.0,0.0,0.0,0.0,0.0,0.0,0.0,0.0,0.0,0.0,0.0,0.0,0.0,0.0,0.0,0.0,0.0,0.0,0.0,0.0,0.0,0.0,0.0,0.0,0.0,0.0,0.0,0.0,0.0,0.0,0.0,0.0,0.0,0.0,0.0,0.0,0.0,0.0,0.0,0.0,0.0,0.0,0.0,0.0,0.0,0.0,0.0,0.0,0.0,0.0,0.0,0.0,0.0,0.0,0.0,0.0,0.0,0.0,0.0,0.0,0.0,0.0,0.0,0.0,0.0,0.0,0.0,0.0,0.0,0.0,0.0,0.0,0.0,0.0,0.0,0.0,0.0,0.0,0.0,0.0,0.0,0.0,0.0,0.0,0.0,0.0,0.0,0.0,0.0,0.0,0.0,0.0,0.0,0.0,0.0,0.0,0.0,0.0,0.0,0.0,0.0,0.0,0.0,0.0,0.0,0.0,0.0,0.0,0.0,0.0,0.0,0.0,0.0,0.0,0.0,0.0,0.0,0.0,0.0,0.0,0.0,0.0,0.0,0.0,0.0,0.0,0.0,0.0,0.0,0.0,0.0,0.0,0.0,0.0,0.0,0.0,0.0,0.0,0.0,0.0,0.0,0.0,0.0,0.0,0.0,0.0,0.0,0.0,0.0,0.0,0.0,0.0,0.0,0.0,0.0,0.0,0.0,0.0,0.0,0.0,0.0,0.0,0.0,0.0,0.0,0.0,0.0,0.0,0.0,0.0,0.0,0.0,0.0,0.0,0.0,0.0,0.0,0.0,0.0,0.0,0.0,0.0,0.0,0.0,0.0,0.0,0.0,0.0,0.0,0.0,0.0,0.0,0.0,0.0,0.0,0.0,0.0,0.0,0.0,0.0,0.0,0.0,0.0,0.0,0.0,0.0,0.0,0.0,0.0,0.0,0.0,0.0,0.0,0.0,0.0,0.0,0.0,0.0,0.0,0.0,0.0,0.0,0.0,0.0,0.0,0.0,0.0,0.0,0.0,0.0,0.0,0.0,0.0,0.0,0.0,0.0,0.0,0.0,0.0,0.0,0.0,0.0,0.0,0.0,0.0,0.0,0.0,0.0,0.0,0.0,0.0,0.0,0.0,0.0,0.0,0.0,0.0,0.0,0.0,0.0,0.0,0.0,0.0,0.0,0.0,0.0,0.0,0.0,0.0,0.0,0.0,0.0,0.0,0.0,0.0,0.0,0.0,0.0,0.0,0.0,0.0,0.0,0.0,0.0,0.0,0.0,0.0,0.0,0.0,0.0,0.0,0.0,0.0,0.0,0.0,0.0,0.0,0.0,0.0,0.0,0.0,0.0,0.0,0.0,0.0,0.0,0.0,0.0,0.0,0.0,0.0,0.0,0.0,0.0,0.0,0.0,0.0,0.0,0.0,0.0,0.0,0.0,0.0,0.0,0.0,0.0,0.0,0.0,0.0,0.0,0.0,0.0,0.0,0.0,0.0,0.0,0.0,0.0,0.0,0.0,0.0,0.0,0.0,0.0,0.0,0.0,0.0,0.0,0.0,0.0,0.0,0.0,0.0,0.0,0.0,0.0,0.0,0.0,0.0,0.0,0.0,0.0,0.0,0.0,0.0,0.0,0.0,0.0,0.0,0.0,0.0,0.0,0.0,0.0,0.0,0.0,0.0,0.0,0.0,0.0,0.0,0.0,0.0,0.0,0.0,0.0,0.0,0.0,0.0,0.0,0.0,0.0,0.0,0.0,0.0,0.0,0.0,0.0,0.0,0.0,0.0,0.0,0.0,0.0,0.0,0.0,0.0,0.0,0.0,0.0,0.0,0.0,0.0,0.0,0.0,0.0,0.0,0.0,0.0,0.0,0.0,0.0,0.0,0.0,0.0,0.0,0.0,0.0,0.0,0.0,0.0,0.0,0.0,0.0,0.0,0.0,0.0,0.0,0.0,0.0,0.0,0.0,0.0,0.0,0.0,0.0,0.0,0.0,0.0,0.0,0.0,0.0,0.0,0.0,0.0,0.0,0.0,0.0,0.0,0.0,0.0,0.0,0.0,0.0,0.0,0.0,0.0,0.0,0.0,0.0,0.0,0.0,0.0,0.0,0.0,0.0,0.0,0.0,0.0,0.0,0.0,0.0,0.0,0.0,0.0,0.0,0.0,0.0,0.0,0.0,0.0,0.0,0.0,0.0,0.0,0.0,0.0,0.0,0.0,0.0,0.0,0.0,0.0,0.0,0.0,0.0,0.0,0.0,0.0,0.0,0.0,0.0,0.0,0.0,0.0,0.0,0.0,0.0,0.0,0.0,0.0,0.0,0.0,0.0,0.0,0.0,0.0,0.0,0.0,0.0,0.0,0.0,0.0,0.0,0.0,0.0,0.0,0.0,0.0,0.0,0.0,0.0,0.0,0.0,0.0,0.0,0.0,0.0,0.0,0.0,0.0,0.0,0.0,0.0,0.0,0.0,0.0,0.0,0.0,0.0,0.0,0.0,0.0,0.0,0.0,0.0,0.0,0.0,0.0,0.0,0.0,0.0,0.0,0.0,0.0,0.0,0.0,0.0,0.0,0.0,0.0,0.0,0.0,0.0,0.0,0.0,0.0,0.0,0.0,0.0,0.0,0.0,0.0,0.0,0.0,0.0,0.0,0.0,0.0,0.0,0.0,0.0,0.0,0.0,0.0,0.0,0.0,0.0,0.0,0.0,0.0,0.0,0.0,0.0,0.0,0.0,0.0,0.0,0.0,0.0,0.0,0.0,0.0,0.0,0.0,0.0,0.0,0.0,0.0,0.0,0.0,0.0,0.0,0.0,0.0,0.0,0.0,0.0,0.0,0.0,0.0,0.0,0.0,0.0,0.0,0.0,0.0,0.0,0.0,0.0,0.0,0.0,0.0,0.0,0.0,0.0,0.0,0.0,0.0,0.0,0.0,0.0,0.0,0.0,0.0,0.0,0.0,0.0,0.0,0.0,0.0,0.0,0.0,0.0,0.0,0.0,0.0,0.0,0.0,0.0,0.0,0.0,0.0,0.0,0.0,0.0,0.0,0.0,0.0,0.0,0.0,0.0,0.0,0.0,0.0,0.0,0.0,0.0,0.0,0.0,0.0,0.0,0.0,0.0,0.0,0.0,0.0,0.0,0.0,0.0,0.0,0.0,0.0,0.0,0.0,0.0,0.0,0.0,0.0,0.0,0.0,0.0,0.0,0.0,0.0,0.0,0.0,0.0,0.0,0.0,0.0,0.0,0.0,0.0,0.0,0.0,0.0,0.0,0.0,0.0,0.0,0.0,0.0,0.0,0.0,0.0,0.0,0.0,0.0,0.0,0.0,0.0,0.0,0.0,0.0,0.0,0.0,0.0,0.0,0.0,0.0,0.0,0.0,0.0,0.0,0.0,0.0,0.0,0.0,0.0,0.0,0.0,0.0,0.0,0.0,0.0,0.0,0.0,0.0,0.0,0.0,0.0,0.0,0.0,0.0,0.0,0.0,0.0,0.0,0.0,0.0,0.0,0.0,0.0,0.0,0.0,0.0,0.0,0.0,0.0,0.0,0.0,0.0,0.0,0.0,0.0,0.0,0.0,0.0,0.0,0.0,0.0,0.0,0.0,0.0,0.0,0.0,0.0,0.0,0.0,0.0,0.0,0.0,0.0,0.0,0.0,0.0,0.0,0.0,0.0,0.0,0.0,0.0,0.0,0.0,0.0,0.0,0.0,0.0,0.0,0.0,0.0,0.0,0.0,0.0,0.0,0.0,0.0,0.0,0.0,0.0,0.0,0.0,0.0,0.0,0.0,0.0,0.0,0.0,0.0,0.0,0.0,0.0,0.0,0.0,0.0,0.0,0.0,0.0,0.0,0.0,0.0,0.0,0.0,0.0,0.0,0.0,0.0,0.0,0.0,0.0,0.0,0.0,0.0,0.0,0.0,0.0,0.0,0.0,0.0,0.0,0.0,0.0,0.0,0.0,0.0,0.0,0.0,0.0,0.0,0.0,0.0,0.0,0.0,0.0,0.0,0.0,0.0,0.0,0.0,0.0,0.0,0.0,0.0,0.0,0.0,0.0,0.0,0.0,0.0,0.0,0.0,0.0,0.0,0.0,0.0,0.0,0.0,0.0,0.0,0.0,0.0,0.0,0.0,0.0,0.0,0.0,0.0,0.0,0.0,0.0,0.0,0.0,0.0,0.0,0.0,0.0,0.0,0.0,0.0,0.0,0.0,0.0,0.0,0.0,0.0,0.0,0.0,0.0,0.0,0.0,0.0,0.0,0.0,0.0,0.0,0.0,0.0,0.0,0.0,0.0,0.0,0.0,0.0,0.0,0.0,0.0,0.0,0.0,0.0,0.0,0.0,0.0,0.0,0.0,0.0,0.0,0.0,0.0,0.0,0.0,0.0,0.0,0.0,0.0,0.8144,0.8029,0.0,0.0,0.0,0.0,0.0,0.0,0.0,0.0,0.0,0.0,0.0,0.0,0.0,0.0,0.0,0.0,0.0,0.0,0.0,0.0,0.0,0.0,0.0,0.2692,0.281,0.3089,0.3111,0.3229,0.3474,0.0,0.0,0.0,0.3851,0.39,0.3928,0.4061,0.4327,0.4732,0.4464,0.4372,0.4449,0.3955,0.3679,0.3593,0.0,0.0,0.0,0.0,0.0,0.0,0.0,0.0,0.0,0.0,0.0,0.0,0.0,0.0,0.0,0.0,0.0,0.0,0.0,0.0,0.0,0.0,0.0,0.0,0.0,0.0,0.0,0.0,0.0,0.0,0.0,0.0,0.0,0.0,0.0,0.0,0.0,0.0,0.0,0.0,0.0,0.0,0.0,0.0,0.0,0.0,0.0,0.0,0.0,0.0,0.0,0.0,0.0,0.0,0.0,0.0,0.0,0.0,0.0,0.0,0.0,0.0,0.0,0.0,0.0,0.0,0.0,0.0,0.0,0.0,0.6476,0.6389,0.0,0.0,0.0,0.0,0.0,0.0,0.0,0.0,0.0,0.0,0.0,0.0,0.0,0.0,0.0,0.0,0.0,0.0,0.0,0.0,0.0,0.2512,0.2306,0.2514,0.2659,0.2697,0.2716,0.2932,0.3363,0.3221,0.3318,0.3834,0.3908,0.4052,0.4261,0.4412,0.4658,0.5024,0.4715,0.4382,0.4012,0.3613,0.3472,0.3581,0.3489,0.0,0.0,0.0,0.0,0.0,0.0,0.0,0.0,0.0,0.0,0.0,0.0,0.0,0.0,0.0,0.0,0.0,0.0,0.0,0.0,0.0,0.0,0.0,0.0,0.0,0.0,0.0,0.0,0.0,0.0,0.0,0.0,0.0,0.0,0.0,0.0,0.0,0.0,0.0,0.0,0.0,0.0,0.0,0.0,0.0,0.0,0.0,0.0,0.0,0.0,0.0,0.0,0.0,0.0,0.0,0.0,0.0,0.0,0.0,0.0,0.0,0.0,0.0,0.8075,0.6822,0.4513,0.4521,0.4506,0.4481,0.4488,0.451,0.4506,0.4519,0.0,0.0,0.0,0.0,0.0,0.0,0.0,0.0,0.0,0.0,0.0,0.0,0.0,0.0,0.0,0.0,0.0,0.0,0.0,0.2968,0.198,0.222,0.2507,0.2676,0.2813,0.2914,0.2968,0.3062,0.313,0.3212,0.3817,0.4056,0.3806,0.4432,0.4608,0.433,0.3882,0.3548,0.3341,0.3158,0.3112,0.3183,0.3226,0.3265,0.3269,0.0,0.0,0.0,0.0,0.0,0.0,0.0,0.0,0.0,0.0,0.0,0.0,0.0,0.0,0.0,0.0,0.0,0.0,0.0,0.0,0.0,0.0,0.0,0.0,0.0,0.0,0.0,0.0,0.0,0.0,0.0,0.0,0.0,0.0,0.0,0.0,0.0,0.0,0.0,0.0,0.0,0.8392,0.8422,0.0,0.0,0.0,0.0,0.0,0.0,0.0,0.0,0.0,0.0,0.0,0.0,0.0,0.735,0.4839,0.5007,0.5042,0.5049,0.5089,0.4866,0.4503,0.4473,0.4496,0.4515,0.4496,0.0,0.4518,0.4498,0.0,0.0,0.0,0.0,0.0,0.0,0.0,0.0,0.0,0.0,0.0,0.0,0.0,0.0,0.0,0.0,0.0,0.0,0.0,0.0,0.0,0.1952,0.2241,0.2657,0.2449,0.2391,0.2604,0.2677,0.2892,0.3312,0.3481,0.3585,0.3578,0.3918,0.4141,0.4311,0.3755,0.3554,0.3614,0.2537,0.2343,0.2876,0.2896,0.2653,0.2228,0.2766,0.0,0.0,0.0,0.0,0.0,0.0,0.0,0.0,0.0,0.0,0.0,0.0,0.0,0.0,0.0,0.0,0.0,0.0,0.0,0.0,0.0,0.0,0.0,0.0,0.0,0.0,0.0,0.0,0.0,0.0,0.0,0.0,0.0,0.0,0.0,0.0,0.0,0.0,0.0,0.8657,0.8726,0.8419,0.7974,0.7537,0.0,0.0,0.0,0.0,0.0,0.0,0.0,0.0,0.0,0.6467,0.6394,0.5945,0.5006,0.4979,0.4998,0.4998,0.5015,0.5022,0.5022,0.4975,0.4982,0.4982,0.4982,0.503,0.4955,0.4636,0.4485,0.4535,0.0,0.0,0.0,0.0,0.6758,0.6708,0.0,0.0,0.0,0.0,0.0,0.0,0.0,0.0,0.0,0.0,0.0,0.0,0.2336,0.1974,0.1971,0.243,0.2107,0.1916,0.2011,0.2295,0.2714,0.3278,0.3192,0.3234,0.3447,0.3487,0.3726,0.4166,0.3348,0.3211,0.3729,0.2405,0.2006,0.2472,0.248,0.2103,0.1469,0.2334,0.2765,0.2909,0.0,0.0,0.0,0.0,0.0,0.0,0.0,0.0,0.0,0.0,0.0,0.0,0.0,0.0,0.0,0.0,0.0,0.0,0.0,0.0,0.0,0.0,0.0,0.0,0.0,0.0,0.0,0.0,0.0,0.0,0.0,0.0,0.0,0.0,0.0,0.0,0.0,0.9381,0.9436,0.8881,0.8417,0.7963,0.0,0.0,0.0,0.0,0.0,0.0,0.7719,0.7848,0.6956,0.4791,0.4703,0.4935,0.5376,0.5384,0.5417,0.5417,0.5417,0.5417,0.5417,0.5417,0.5417,0.5417,0.5417,0.538,0.5342,0.4904,0.4732,0.4732,0.4955,0.5005,0.5065,0.616,0.6242,0.5896,0.0,0.0,0.0,0.0,0.0,0.0,0.0,0.0,0.0,0.0,0.0,0.3479,0.343,0.2437,0.1818,0.1842,0.1994,0.1781,0.1035,0.2059,0.2702,0.2747,0.3094,0.3302,0.331,0.3425,0.353,0.3543,0.2095,0.2006,0.313,0.306,0.2581,0.1829,0.1842,0.1835,0.1786,0.1833,0.2454,0.3389,0.366,0.0,0.0,0.0,0.0,0.0,0.0,0.0,0.0,0.0,0.0,0.0,0.0,0.0,0.0,0.0,0.0,0.0,0.0,0.0,0.0,0.0,0.0,0.0,0.0,0.0,0.0,0.0,0.0,0.0,0.0,0.0,0.0,0.0,0.0,0.0,0.0,0.0,0.0,1.0542,0.9464,0.0,0.0,0.0,0.0,0.8776,0.8813,0.7608,0.489,0.5244,0.5524,0.5344,0.5344,0.5378,0.5378,0.5401,0.5404,0.5404,0.5404,0.5404,0.5404,0.5404,0.5404,0.5404,0.5404,0.542,0.5381,0.5357,0.5362,0.5362,0.5358,0.5232,0.5104,0.5039,0.4979,0.4979,0.0,0.0,0.0,0.1803,0.1803,0.1803,0.1799,0.242,0.3032,0.3445,0.3496,0.3496,0.3501,0.2476,0.1811,0.1794,0.1633,0.1575,0.1678,0.2208,0.2514,0.2577,0.2791,0.2955,0.3027,0.3073,0.2936,0.2587,0.2055,0.1958,0.227,0.3042,0.3249,0.2958,0.2964,0.2976,0.2965,0.2805,0.2983,0.3347,0.3342,0.3319,0.0,0.0,0.0,0.0,0.0,0.0,0.0,0.0,0.0,0.0,0.0,0.0,0.0,0.0,0.0,0.0,0.0,0.0,0.0,0.0,0.0,0.0,0.0,0.0,0.0,0.0,0.0,0.0,0.0,0.0,0.0,0.0,0.0,0.0,0.0,0.0,0.0,0.9695,0.9058,0.0,0.8819,0.8788,0.9134,0.9876,0.7855,0.6137,0.5125,0.5661,0.5992,0.5955,0.5744,0.5634,0.5634,0.5759,0.5787,0.5787,0.5717,0.5574,0.5427,0.5398,0.5385,0.5382,0.5424,0.5372,0.5408,0.5812,0.578,0.5406,0.5422,0.5449,0.5555,0.542,0.5423,0.5426,0.1803,0.1803,0.0,0.1803,0.1803,0.1803,0.1799,0.2446,0.306,0.3458,0.3503,0.3496,0.3492,0.2476,0.1811,0.1794,0.1547,0.1582,0.1981,0.2265,0.2427,0.2466,0.2654,0.2805,0.2907,0.2997,0.2867,0.2523,0.2563,0.2542,0.2414,0.3217,0.3613,0.362,0.3591,0.3612,0.3646,0.3507,0.3437,0.3386,0.332,0.3242,0.3185,0.0,0.0,0.0,0.0,0.0,0.0,0.0,0.0,0.0,0.0,0.0,0.0,0.0,0.0,0.0,0.0,0.0,0.0,0.0,0.0,0.0,0.0,0.0,0.0,0.0,0.0,0.0,0.0,0.0,0.0,0.0,0.0,0.0,0.0,1.0802,1.1208,1.0294,0.9733,0.923,0.8868,0.9181,0.9768,1.0565,0.8828,0.7131,0.5787,0.6069,0.6272,0.6169,0.6678,0.6603,0.5803,0.6376,0.6452,0.595,0.5875,0.5728,0.5578,0.5532,0.6317,0.7726,0.7733,0.7747,0.773,0.8163,0.8122,0.7629,0.6966,0.6802,0.6936,0.6789,0.6718,0.6726,0.1803,0.1803,0.1803,0.1803,0.1803,0.1799,0.1811,0.1807,0.2189,0.3294,0.3458,0.3443,0.344,0.2468,0.1796,0.1798,0.1798,0.1801,0.1804,0.2182,0.2391,0.2406,0.2746,0.2913,0.2924,0.3149,0.3302,0.3291,0.3503,0.362,0.3581,0.3581,0.3581,0.3588,0.3588,0.3666,0.3799,0.3799,0.3721,0.3595,0.3595,0.3503,0.3329,0.0,0.0,0.0,0.0,0.0,0.0,0.0,0.0,0.0,0.0,0.0,0.0,0.0,0.0,0.0,0.0,0.0,0.0,0.0,0.0,0.0,0.0,0.0,0.0,0.0,0.0,0.0,0.0,0.0,0.0,0.0,0.0,0.0,0.8783,0.8781,0.9813,1.249,1.1494,1.0161,0.9001,0.9914,1.0657,1.0631,1.1678,1.0597,0.6679,0.6474,0.6354,0.6108,0.8227,0.8227,0.5957,0.7325,0.7325,0.5885,0.5885,0.596,0.6032,0.5908,0.8189,1.2324,1.2305,1.2281,1.2297,1.2311,1.2326,1.213,1.0176,0.9373,0.9379,0.9001,0.885,0.8634,0.1803,0.1803,0.1803,0.1803,0.1803,0.1803,0.1799,0.1792,0.192,0.2233,0.2267,0.2267,0.2263,0.1989,0.1792,0.1806,0.1809,0.1835,0.1943,0.2133,0.2414,0.2743,0.2881,0.3049,0.3185,0.3269,0.3368,0.352,0.3567,0.3585,0.3581,0.3581,0.3636,0.3734,0.3734,0.3816,0.3958,0.3958,0.3934,0.3897,0.3897,0.3873,0.3788,0.0,0.0,0.0,0.0,0.0,0.0,0.0,0.0,0.0,0.0,0.0,0.0,0.0,0.0,0.0,0.0,0.0,0.0,0.0,0.0,0.0,0.0,0.0,0.0,0.0,0.0,0.0,0.0,0.0,0.0,0.0,1.0256,0.8826,0.8823,0.8815,0.9406,1.1063,1.0865,1.0476,1.0148,1.1141,1.1818,1.1845,1.2089,1.185,1.0683,0.9753,0.9145,0.9085,0.9224,0.8986,0.8365,0.8748,0.8748,0.837,0.837,0.8132,0.7658,0.6585,0.8411,1.2278,1.2337,1.2271,1.2331,1.231,1.2304,1.2271,1.1716,1.1452,1.1459,1.1372,1.0148,0.8328,0.1803,0.1803,0.1803,0.1803,0.1803,0.1803,0.1803,0.1799,0.1792,0.1792,0.1811,0.1807,0.1792,0.1792,0.1909,0.2162,0.2182,0.2263,0.2441,0.2554,0.2705,0.2915,0.3071,0.3184,0.3303,0.337,0.349,0.3581,0.3581,0.3581,0.3581,0.3639,0.3714,0.3795,0.386,0.3972,0.4063,0.4063,0.4151,0.4258,0.451,0.4583,0.4458,0.4458,0.439,0.4318,0.4318,0.4051,0.3745,0.3806,0.0,0.0,0.0,0.0,0.0,0.0,0.0,0.0,0.0,0.0,0.0,0.0,0.0,0.0,0.0,0.0,0.0,0.0,0.0,0.0,0.0,0.0,0.0,0.0,1.0272,0.9577,0.9543,0.9524,0.9827,1.0534,1.0988,1.1312,1.1276,1.1935,1.2323,1.2305,1.2338,1.2051,1.1519,1.087,1.0315,0.9868,1.0013,0.9898,0.9433,0.9898,0.9898,0.9433,0.9342,0.918,0.8856,0.7973,0.887,1.1106,1.1948,1.2335,1.2335,1.2335,1.2335,1.2303,0.0,0.0,0.0,0.0,1.134,0.9976,0.1803,0.1803,0.1803,0.1803,0.1803,0.1803,0.1803,0.1803,0.1803,0.1803,0.1803,0.1803,0.1803,0.1799,0.2044,0.2652,0.2749,0.288,0.3098,0.3288,0.3347,0.3215,0.3467,0.3525,0.3409,0.3594,0.3667,0.3581,0.3581,0.3588,0.3605,0.3734,0.3809,0.3849,0.3985,0.408,0.422,0.422,0.4341,0.4567,0.5214,0.5348,0.5155,0.5255,0.5345,0.5426,0.5376,0.4614,0.3689,0.3856,0.0,0.0,0.0,0.0,0.0,0.0,0.0,0.0,0.0,0.0,0.0,0.0,0.0,0.0,0.0,0.0,0.0,0.0,0.0,0.0,0.0,0.0,0.0,0.0,0.9874,1.059,1.0622,1.0725,1.0746,1.0645,1.1609,1.2305,1.2308,1.2268,1.2311,1.2294,1.2349,1.1867,1.0634,1.0917,0.0,0.0,0.0,1.1002,1.0131,1.1002,1.1002,1.0053,0.9848,0.9858,0.9969,0.9818,0.9724,0.9732,1.1653,1.2501,1.2501,1.2501,1.2501,1.2529,1.2326,1.2271,1.2264,1.2311,1.2277,1.2269,0.1803,0.1796,0.1792,0.1803,0.1796,0.1792,0.1803,0.1803,0.1803,0.1803,0.1796,0.1789,0.1789,0.1804,0.2043,0.2659,0.3104,0.3298,0.3189,0.4108,0.4643,0.4612,0.5131,0.5035,0.4203,0.4243,0.4052,0.3581,0.3581,0.3639,0.3751,0.3778,0.3924,0.411,0.4137,0.4284,0.4423,0.4423,0.4474,0.4587,0.5206,0.5446,0.5486,0.6086,0.6243,0.6136,0.5705,0.4831,0.3922,0.3993,0.4132,0.4274,0.3993,0.0,0.0,0.0,0.0,0.0,0.0,0.0,0.0,0.0,0.0,0.0,0.0,0.0,0.0,0.0,0.0,0.0,0.0,0.0,0.0,1.0155,1.0464,1.0586,1.0588,1.139,1.1608,1.0692,1.1625,1.2315,1.2311,1.2269,1.2308,1.2284,1.2526,1.2605,1.2335,1.2576,1.2635,1.2478,1.2693,1.2719,1.2555,1.2719,1.2634,1.2293,1.2412,0.0,1.1775,1.2274,1.2207,1.1817,1.3134,1.375,1.375,1.375,1.375,1.3629,1.2709,1.2309,1.2283,1.2304,1.2311,1.2264,0.1803,0.1796,0.1989,0.2538,0.2189,0.18,0.1807,0.1792,0.1796,0.1796,0.1789,0.2011,0.2587,0.2642,0.2902,0.3489,0.3886,0.4134,0.4241,0.4832,0.5412,0.597,0.6291,0.5961,0.4865,0.487,0.4789,0.4673,0.4673,0.4767,0.4996,0.5048,0.4998,0.4767,0.5218,0.5251,0.5003,0.516,0.5198,0.5233,0.5837,0.6225,0.6514,0.6961,0.734,0.7565,0.728,0.6842,0.6174,0.4757,0.4821,0.5452,0.5027,0.5014,0.5095,0.0,0.0,0.0,0.0,0.0,0.0,0.0,0.0,0.0,0.0,0.0,0.0,0.0,0.0,0.9064,0.8818,0.0,0.7303,0.7913,0.7967,0.7984,0.802,1.0504,1.2089,1.1518,1.195,1.2325,1.2301,1.2464,1.2533,1.2512,1.2806,1.2979,1.2979,1.3126,1.3127,1.3035,1.3267,1.3346,1.334,1.334,1.3333,1.3166,1.3194,1.3021,1.2711,1.2711,1.2875,1.3192,1.3838,1.4111,1.4111,1.4111,1.4111,1.4076,1.3407,1.2838,1.226,1.2293,1.2324,1.233,0.1799,0.1792,0.2167,0.33,0.2745,0.2129,0.2129,0.212,0.2062,0.1836,0.1807,0.2228,0.3386,0.3491,0.3785,0.4506,0.461,0.4821,0.5267,0.5369,0.5874,0.6957,0.7011,0.6524,0.5475,0.5522,0.5588,0.5677,0.5769,0.5955,0.6232,0.6369,0.6123,0.5601,0.6294,0.6199,0.5588,0.5797,0.5779,0.5707,0.6352,0.702,0.7706,0.7824,0.8293,0.8778,0.8778,0.8817,0.8454,0.6112,0.6115,0.6976,0.6587,0.6395,0.6146,0.5553,0.5403,0.0,0.0,0.0,0.0,0.0,0.0,0.0,0.0,0.0,0.7915,0.8037,0.8469,0.8647,0.8243,0.6621,0.5428,0.5564,0.5552,0.556,0.557,0.9103,1.1853,1.2278,1.2404,1.2456,1.2446,1.2735,1.2916,1.2916,1.312,1.3293,1.3293,1.3347,1.3293,1.3113,1.3519,1.3645,1.3639,1.3639,1.3639,1.3639,1.3413,1.3413,1.3359,1.2896,1.3208,1.4088,1.4088,1.4088,1.4088,1.4088,1.4088,1.4068,1.411,1.3499,1.2648,1.2632,1.2672,1.2672,0.1789,0.1811,0.215,0.3297,0.3399,0.3316,0.3312,0.3315,0.294,0.1938,0.1804,0.2235,0.3382,0.3501,0.3955,0.5089,0.4739,0.4667,0.5255,0.5621,0.6188,0.698,0.7018,0.6706,0.6093,0.6313,0.6208,0.5677,0.6023,0.6243,0.637,0.6391,0.6415,0.6445,0.6578,0.6303,0.5846,0.5901,0.5421,0.4766,0.6056,0.7399,0.8639,0.8646,0.8705,0.8818,0.8818,0.8805,0.8744,0.8444,0.841,0.8549,0.8489,0.758,0.6567,0.646,0.0,0.642,0.6272,0.6217,0.6463,0.7405,0.7205,0.6941,0.0,0.0,0.7935,0.8581,0.8776,0.8192,0.6128,0.559,0.5593,0.6108,0.6208,0.618,0.623,0.8157,1.03,1.2078,1.2648,1.2831,1.2858,1.3057,1.316,1.316,1.3427,1.3594,1.3594,1.3848,1.3988,1.3988,1.4021,1.4041,1.4035,1.4035,1.4035,1.4035,1.4001,1.4008,1.4035,1.3944,1.3957,1.4088,1.4088,1.4088,1.4088,1.4088,1.4088,1.4082,1.4139,1.4015,1.3921,1.387,1.3929,1.3929,0.1796,0.1792,0.1945,0.2425,0.3065,0.3266,0.2616,0.2517,0.2342,0.1862,0.1807,0.2236,0.3386,0.4124,0.4748,0.5247,0.5077,0.5023,0.5271,0.6071,0.6673,0.6976,0.7004,0.6973,0.6975,0.7045,0.717,0.7255,0.7419,0.7609,0.7774,0.7774,0.7617,0.7235,0.767,0.7492,0.6827,0.7374,0.7346,0.7036,0.767,0.8243,0.8804,0.8804,0.8804,0.8804,0.8804,0.8824,0.0,0.8798,0.8811,0.8778,0.8778,0.8359,0.7777,0.7343,0.7394,0.0,0.6677,0.6393,0.6431,0.0,0.657,0.6053,0.6083,0.5948,0.6054,0.6718,0.683,0.666,0.6058,0.5908,0.6002,0.0,0.6275,0.6268,0.6293,0.9055,1.1347,1.221,1.2669,1.2855,1.2842,1.318,1.346,1.346,1.3734,1.3901,1.3901,1.4021,1.4088,1.4088,1.4088,1.407,1.4137,1.4144,1.413,1.4099,1.4099,1.4099,1.4099,1.4099,1.4099,1.4093,1.4117,1.4144,1.413,1.4064,1.4088,1.4088,1.4088,1.4088,1.4062,1.409,1.4097,1.4097,0.1803,0.1796,0.1792,0.1792,0.249,0.2761,0.193,0.1804,0.1792,0.1792,0.1811,0.2112,0.2951,0.3951,0.4776,0.5264,0.5315,0.5294,0.5301,0.6377,0.6987,0.7008,0.699,0.7098,0.7352,0.7548,0.7842,0.8257,0.845,0.8604,0.8804,0.8804,0.8533,0.8049,0.8586,0.8421,0.7818,0.8527,0.8804,0.8804,0.8804,0.8804,0.8804,0.8804,0.8804,0.8804,0.8804,0.8804,0.8804,0.8804,0.8804,0.8804,0.8804,0.8804,0.8712,0.8302,0.8355,0.8309,0.7381,0.7148,0.0,0.7325,0.6673,0.5817,0.5164,0.4913,0.4906,0.5522,0.6557,0.7085,0.6444,0.722,0.7613,0.645,0.6311,0.67,0.7808,1.0481,1.2388,1.2532,1.2758,1.289,1.3006,1.346,1.3768,1.3768,1.3968,1.4088,1.4088,1.4088,1.4088,1.4088,1.407,1.4111,1.4122,1.4408,1.4553,1.4558,1.4558,1.4558,1.4558,1.4558,1.4558,1.4545,1.454,1.4353,1.4132,1.4117,1.413,1.413,1.413,1.413,1.413,1.413,1.4123,1.4088,0.1803,0.1803,0.1803,0.1803,0.1828,0.1843,0.1811,0.1796,0.1803,0.1803,0.1792,0.1813,0.1845,0.2401,0.3465,0.5163,0.5309,0.53,0.5286,0.6383,0.7002,0.6981,0.7002,0.6996,0.7001,0.7603,0.7905,0.7917,0.8482,0.8798,0.8804,0.8804,0.8804,0.8752,0.8804,0.8804,0.8752,0.8804,0.8804,0.8804,0.8804,0.8804,0.8804,0.8804,0.8804,0.8804,0.8804,0.8804,0.8804,0.8804,0.8804,0.8804,0.8804,0.8804,0.0,0.9213,0.9363,0.9287,0.8867,0.0,0.9576,0.9599,0.85,0.7072,0.5724,0.5408,0.5514,0.6142,0.939,1.0925,0.7017,0.9458,1.0848,0.6943,0.6322,0.7684,1.1546,1.2215,1.2518,1.3092,1.3013,1.3054,1.3506,1.3895,1.4075,1.4075,1.4082,1.4088,1.4088,1.4088,1.4088,1.4088,1.4071,1.4122,1.4128,1.5205,1.577,1.5777,1.5777,1.5777,1.5777,1.5777,1.5777,1.5777,1.5763,1.5143,1.4135,1.4129,1.4123,1.4123,1.4123,1.4123,1.4123,1.4123,1.408,1.4088,0.1869,0.1804,0.2029,0.2788,0.2302,0.18,0.1797,0.1807,0.1789,0.1804,0.1803,0.0,0.0,0.0,0.0,0.0,0.5297,0.53,0.5285,0.6377,0.7658,0.9121,0.7769,0.7019,0.6993,0.7595,0.8081,0.8486,0.8717,0.8823,0.8808,0.8808,0.882,0.8803,0.8803,0.8786,0.8808,0.8808,0.8785,0.878,0.8825,0.8804,0.8773,0.8818,0.8804,0.8804,0.0,0.8804,0.8804,0.8804,0.8804,0.8804,0.8804,0.0,0.0,0.9435,0.9919,1.0307,1.0066,0.0,0.9284,1.0126,0.9944,0.9442,0.8986,0.8837,0.9147,1.0078,1.1363,1.1857,1.0547,1.1409,1.2107,1.1546,1.1492,1.1973,1.3279,1.3153,1.3014,1.3328,1.3586,1.3635,1.3634,1.3915,1.4088,1.4088,1.4262,1.4289,1.4095,1.4069,1.4086,1.409,1.407,1.45,1.5208,1.5616,1.5766,1.5758,1.5758,1.5758,1.5758,1.5758,1.5758,1.5837,1.5759,1.5565,1.5231,1.5244,1.5259,1.5259,1.5259,1.5259,1.5259,1.5259,1.5239,1.5156,0.2488,0.2402,0.2632,0.3359,0.2886,0.0,0.0,0.0,0.0,0.0,0.0,0.0,0.0,0.0,0.0,0.0,0.0,0.5294,0.5311,0.5977,0.7193,0.9047,0.8511,0.7799,0.7001,0.8746,0.9391,0.8818,0.8786,0.8776,0.8796,0.9805,0.9753,0.8788,0.8788,0.9358,1.0226,0.9204,0.8776,0.8824,0.9292,0.9176,0.8816,0.8811,0.8803,0.0,0.8803,0.8776,0.8802,0.879,0.8776,0.8795,0.8795,0.9472,1.0128,0.958,1.0006,1.0942,1.2028,1.1725,1.1071,1.0677,1.0593,1.0628,1.0581,1.06,1.0811,1.1543,1.182,1.1959,1.2238,1.2305,1.2593,1.3656,1.3924,1.4116,1.4065,1.3776,1.3554,1.3728,1.409,1.422,1.4038,1.4229,1.4355,1.4249,1.4415,1.4502,1.4409,1.4255,1.4269,1.4689,1.4757,1.5099,1.5807,1.5817,1.5759,1.5832,1.5832,1.5832,1.5832,1.5832,1.5832,1.5818,1.5839,1.5771,1.5758,1.5773,1.5796,1.5796,1.5796,1.5796,1.5796,1.5796,1.5796,1.5664,0.3501,0.3501,0.3501,0.0,0.0,0.0,0.0,0.0,0.0,0.0,0.0,0.0,0.0,0.0,0.0,0.0,0.0,0.0,0.5292,0.5316,0.579,0.6877,0.9104,0.9257,0.7045,1.0779,1.1469,0.8904,0.8974,0.9016,0.9055,1.1674,1.1497,0.9004,0.9004,1.0436,1.272,1.0136,0.9026,0.9105,1.0277,1.0003,0.8989,0.8858,0.8792,0.8792,0.8968,0.9008,0.9033,0.8985,0.0,0.0,0.0,0.0,0.0,0.9769,0.9904,1.1527,1.4582,1.5418,1.466,1.1637,1.0691,1.0594,1.0611,1.0574,1.0626,1.0705,1.0994,1.1421,1.2107,0.0,1.2483,1.3124,1.3657,1.4055,1.409,1.4131,1.4138,0.0,0.0,0.0,0.0,0.0,0.0,1.4583,1.4625,1.4777,1.4963,1.4482,1.4687,1.5798,1.5789,1.5835,1.5835,1.5799,1.5832,1.5832,1.5832,1.5832,1.5832,1.5832,1.5832,1.5832,1.5832,1.5832,1.5832,1.5832,1.5832,1.5832,1.5832,1.5832,1.5832,1.5832,1.5832,1.5758,0.0,0.0,0.0,0.0,0.0,0.0,0.0,0.0,0.0,0.0,0.0,0.0,0.0,0.0,0.0,0.0,0.0,0.0,0.5306,0.5305,0.5418,0.5731,0.8662,0.9248,0.7026,0.9623,1.0632,0.9897,1.1232,1.1861,1.189,1.2577,1.2525,1.1849,1.1849,1.2234,1.2847,1.214,1.1822,1.1861,1.2202,1.2153,1.165,0.9578,0.8786,0.9075,1.1124,1.1844,0.0,0.0,0.0,0.0,0.0,1.2348,1.2739,0.0,0.0,1.4344,1.5157,1.5418,1.52,1.4362,1.2351,1.058,1.0581,1.0568,1.0883,1.1995,1.2318,1.2166,1.1546,1.1895,0.0,1.2905,1.3328,0.0,1.4088,1.4072,0.0,1.4374,0.0,1.463,1.4919,1.5013,0.0,1.5066,1.5041,1.5079,1.4977,1.5265,1.5504,1.581,1.5778,1.5826,1.5826,1.5798,1.5832,1.5832,1.5832,1.5832,1.5832,1.5832,1.5832,1.5832,1.5832,1.5832,1.5832,1.5832,1.5832,1.5832,1.5832,1.5832,1.5832,1.5832,1.5832,1.5812,0.0,0.0,0.0,0.0,0.0,0.0,0.0,0.0,0.0,0.0,0.0,0.0,0.0,0.0,0.0,0.0,0.0,0.0,0.0,0.5287,0.5303,0.5301,0.7589,0.8721,0.8456,0.8699,0.9325,1.0321,1.126,1.2163,1.2909,1.2902,1.2886,1.2919,1.2892,1.2897,1.2918,1.292,1.2886,0.0,0.0,1.29,1.2744,1.1167,1.0597,1.0781,0.0,0.0,0.0,0.0,0.0,1.0853,1.2411,1.3399,1.4014,1.3978,0.0,1.5421,1.5392,1.54,1.5222,1.4526,1.248,1.0526,1.0268,1.0796,1.1496,1.2131,1.258,1.2752,1.2211,1.2325,0.0,0.0,0.0,0.0,1.4008,1.4195,1.4335,0.0,1.475,0.0,1.5339,1.5418,1.5478,1.5478,1.5478,1.5411,1.5351,1.5651,1.5758,1.5805,1.5846,1.5832,1.5832,1.5832,1.5832,1.5832,1.5832,1.5832,1.5832,1.5832,1.5832,1.5832,1.5832,1.5832,1.5832,1.5832,1.5832,1.5832,1.5832,1.5832,1.5832,1.5832,1.5832,1.5832,0.0,0.0,0.0,0.0,0.0,0.0,0.0,0.0,0.0,0.3504,0.0,0.0,0.0,0.0,0.0,0.0,0.0,0.0,0.0,0.0,0.53,0.5311,0.6258,0.7764,0.983,0.7983,0.7932,0.9881,0.9873,1.0713,1.2375,1.2511,1.2534,1.2544,1.2539,1.2634,1.2731,1.2855,1.2918,1.2909,1.2909,1.29,1.2889,0.0,0.0,0.0,0.0,0.0,0.0,0.0,1.3042,1.325,1.3234,1.4228,1.5409,1.5416,1.5395,1.5399,1.54,1.541,1.5059,1.3692,1.2042,1.0634,1.01,1.1031,1.1966,1.1732,0.0,1.3097,1.3393,1.313,1.3119,1.4007,0.0,1.3673,1.4239,1.45,1.471,1.4771,1.507,1.551,1.5769,1.5772,1.5805,1.5825,1.5805,1.5805,1.5832,1.5832,1.5832,1.5832,1.5832,1.5832,1.5832,1.5832,1.5832,1.5832,1.5832,1.5832,1.5832,1.5832,1.5832,1.5832,1.5832,1.5832,1.5832,1.5832,1.5832,1.5832,1.5832,1.5832,1.5832,1.5832,1.5832,1.5832,0.0,0.0,0.0,0.0,0.0,0.0,0.0,0.3506,0.3503,0.3489,0.4545,0.5297,0.5286,0.0,0.0,0.0,0.0,0.0,0.0,0.0,0.0,0.5299,0.5488,0.6229,0.0,0.0,0.0,0.0,0.0,0.8214,0.9459,1.033,1.0748,1.0748,1.0756,1.1148,1.1851,1.259,1.2913,1.2913,1.2913,1.2895,1.291,1.291,0.0,0.0,0.0,0.0,0.0,0.0,1.384,1.4987,1.4944,1.5184,1.5416,1.5407,1.539,1.54,1.54,1.541,1.5323,1.5053,1.3416,1.1798,1.1353,1.1279,0.0,0.0,1.2397,1.3076,1.3464,1.3673,1.4026,1.489,0.0,0.0,0.0,0.0,1.5619,0.0,1.5086,1.5385,1.5738,1.5765,0.0,1.5818,1.5792,1.5772,1.5825,1.5832,1.5832,1.5832,1.5832,1.5832,1.5832,1.5832,1.5832,1.5832,1.5832,1.5832,1.5832,1.5832,1.5832,1.5832,1.5832,1.5832,1.5832,1.5832,1.5832,1.5832,1.5832,1.5832,1.5832,1.5832,1.5832,1.5832,0.0,0.0,0.0,0.0,0.0,0.0,0.0,0.3506,0.349,0.3495,0.3479,0.3941,0.516,0.5311,0.5304,0.0,0.0,0.0,0.0,0.0,0.0,0.0,0.0,0.0,0.0,0.0,0.0,0.0,0.0,0.0,0.0,0.0,0.0,0.0,0.0,0.0,1.1397,1.2101,1.2357,1.2246,1.2735,1.2882,0.0,0.0,0.0,0.0,0.0,0.0,0.0,0.0,1.3435,1.4224,1.5109,1.5389,1.5387,1.5429,1.541,1.541,1.541,1.541,1.5313,1.4849,1.3468,1.2145,1.1821,0.0,0.0,0.0,1.2932,1.3586,1.3847,0.0,0.0,0.0,0.0,0.0,0.0,0.0,0.0,0.0,0.0,1.7313,0.0,1.6334,1.5832,1.5818,1.5846,1.5839,1.5825,1.5832,1.5832,1.5832,1.5832,1.5832,1.5832,1.5832,1.5832,1.5832,1.5832,1.5832,1.5832,1.5832,1.5832,1.5832,1.5832,1.5832,1.5832,1.5832,1.5832,1.5832,1.5832,1.5832,1.5832,1.5832,1.5832,1.5832,0.0,0.0,0.0,0.0,0.0,0.0,0.3506,0.3506,0.3499,0.3505,0.2717,0.2878,0.4724,0.5148,0.5295,0.0,0.0,0.0,0.0,0.0,0.0,0.0,0.0,0.0,0.0,0.0,0.0,0.0,0.0,0.0,0.0,0.0,0.0,0.0,0.0,0.0,0.0,0.0,1.1436,0.0,0.0,0.0,0.0,0.0,0.0,0.0,0.0,0.0,0.0,0.0,1.2897,1.3147,1.4444,1.4956,1.5156,1.5331,1.5351,1.5293,1.5391,1.541,1.5235,1.4628,1.3485,1.2451,1.2203,1.2245,0.0,0.0,1.293,1.3667,1.3763,0.0,1.3924,0.0,1.4811,0.0,0.0,0.0,0.0,0.0,0.0,0.0,1.8644,1.6879,0.0,1.5758,1.5772,1.5792,1.5825,1.5832,1.5832,1.5832,1.5832,1.5832,1.5832,1.5832,1.5832,1.5832,1.5832,1.5832,1.5832,1.5832,1.5832,1.5832,1.5832,1.5832,1.5832,1.5832,1.5832,1.5832,1.5832,1.5832,1.5832,1.5832,1.5832,1.5832,0.0,0.0,0.0,0.0,0.0,0.0,0.3499,0.3506,0.3491,0.3496,0.3405,0.3422,0.3647,0.4631,0.5306,0.0,0.0,0.0,0.0,0.0,0.0,0.0,0.0,0.0,0.0,0.0,0.0,0.0,0.0,0.0,0.0,0.0,0.0,0.0,0.0,0.0,0.0,0.0,0.0,0.0,0.0,0.0,0.0,0.0,0.0,0.0,0.0,0.0,0.0,0.0,0.0,1.2921,1.3067,1.3638,1.4346,1.5169,0.0,0.0,1.5312,1.541,1.5352,1.5294,1.435,1.3384,1.3067,0.0,0.0,1.1158,1.1495,1.215,1.2593,1.2615,1.3368,1.5621,1.6278,1.676,0.0,0.0,0.0,0.0,0.0,0.0,1.9431,1.7162,1.5759,1.5771,1.5778,1.5759,1.5818,1.5832,1.5832,1.5832,1.5832,1.5832,1.5832,1.5832,1.5832,1.5832,1.5832,1.5832,1.5832,1.5832,1.5832,1.5832,1.5832,1.5832,1.5832,1.5832,1.5832,1.5832,1.5832,1.5832,1.5832,1.5832,1.5832,1.5832,0.0,0.0,0.0,0.0,0.0,0.0,0.3506,0.3506,0.3513,0.3505,0.35,0.3505,0.3506,0.3922,0.4513,0.5251,0.0,0.0,0.0,0.0,0.0,0.0,0.0,0.0,0.0,0.0,0.0,0.0,0.0,0.0,0.0,0.0,0.0,0.0,0.0,0.0,0.0,0.0,0.0,0.0,0.0,0.0,0.0,0.0,0.0,0.0,0.0,0.0,0.0,0.0,0.0,0.0,1.2928,1.3113,0.0,0.0,1.4292,1.4814,1.499,1.5215,1.541,1.541,1.4505,1.3641,1.3678,0.0,1.2286,1.2081,1.2304,1.2508,1.2688,1.2925,1.3327,1.4054,1.4557,1.5272,1.6537,0.0,0.0,0.0,2.0833,0.0,0.0,0.0,1.8664,2.0099,2.0149,1.8926,1.594,1.5832,1.5832,1.5832,1.5832,1.5832,1.5832,1.5832,1.5832,1.5832,1.5832,1.5832,1.5832,1.5832,1.5832,1.5832,1.5832,1.5832,1.5832,1.5832,1.5832,1.5832,1.5832,1.5832,1.5832,1.5832,1.5832,1.5832,0.0,0.0,0.0,0.0,0.0,0.3682,0.3536,0.3508,0.3494,0.3507,0.3633,0.3713,0.3674,0.3579,0.3935,0.5026,0.5243,0.0,0.0,0.0,0.0,0.0,0.0,0.0,0.0,0.0,0.0,0.6894,0.0,0.0,0.0,0.0,0.0,0.0,0.0,0.0,0.0,0.0,0.0,0.0,0.0,0.0,0.0,0.0,0.0,0.0,0.0,0.0,0.0,0.0,0.0,0.0,0.0,0.0,0.0,0.0,1.3893,1.4715,1.4763,1.517,1.5474,1.5439,1.4582,1.383,0.0,1.3285,1.2508,1.2567,1.2559,1.2559,1.2559,1.2798,1.2968,1.2797,1.3561,1.4575,1.5807,1.7121,0.0,0.0,0.0,2.2393,0.0,2.0228,1.9082,2.0772,2.0917,1.9477,1.5961,1.5798,1.5832,1.5832,1.5832,1.5832,1.5832,1.5832,1.5832,1.5832,1.5832,1.5832,1.5832,1.5832,1.5832,1.5832,1.5832,1.5832,1.5832,1.5832,1.5832,1.5832,1.5832,1.5832,1.5832,1.5832,1.5832,1.5832,0.0,0.0,0.0,0.0,0.0,0.0,0.357,0.3502,0.3502,0.3502,0.3973,0.4232,0.4102,0.3732,0.3824,0.4625,0.5082,0.0,0.0,0.0,0.0,0.0,0.0,0.0,0.0,0.0,0.6337,0.6593,0.688,0.6979,0.0,0.0,0.0,0.0,0.0,0.0,0.0,0.0,0.0,0.0,0.0,0.0,0.8844,0.0,0.0,0.0,0.0,0.0,0.0,0.0,0.0,0.0,0.0,1.2881,0.0,0.0,1.4013,1.4469,1.4706,1.522,1.5653,1.5476,1.471,1.4087,1.4077,1.3486,1.2676,1.1972,1.1814,1.1814,1.1814,1.1814,1.1959,1.2443,1.4118,1.5465,1.5669,1.776,0.0,0.0,0.0,2.1889,2.3022,1.8725,1.581,1.5889,1.5892,1.5858,1.5765,1.5833,1.5832,1.5832,1.5832,1.5832,1.5832,1.5832,1.5832,1.5832,1.5832,1.5832,1.5832,1.5832,1.5832,1.5832,1.5832,1.5832,1.5832,1.5832,1.5832,1.5832,1.5832,1.5832,1.5832,1.5832,1.5832,1.5832,0.0,0.0,0.0,0.0,0.0,0.0,0.407,0.4042,0.4187,0.4538,0.4735,0.4838,0.4789,0.4351,0.4109,0.427,0.492,0.0,0.0,0.0,0.0,0.0,0.0,0.0,0.0,0.0,0.6092,0.6587,0.668,0.6827,0.6979,0.6979,0.7105,0.0,0.0,0.0,0.0,0.0,0.0,0.0,0.0,0.8187,0.8779,0.0,0.0,0.0,0.0,0.0,0.0,0.0,0.0,0.0,0.0,0.0,0.0,1.2081,1.3194,1.4414,1.4512,1.5174,1.5773,1.5306,1.4726,1.4175,1.3805,1.3281,1.2822,1.2608,1.2559,1.2559,1.2559,1.2559,1.2733,1.3159,1.3743,1.4575,0.0,0.0,0.0,0.0,2.0569,2.1263,0.0,0.0,1.5,1.5697,1.5803,1.5812,1.5841,1.5817,1.5832,1.5825,1.5832,1.5832,1.5832,1.5832,1.5832,1.5832,1.5832,1.5832,1.5832,1.5832,1.5832,1.5832,1.5832,1.5832,1.5832,1.5832,1.5832,1.5832,1.5832,1.5832,1.5832,1.5832,1.5832,1.5832,0.0,0.0,0.0,0.0,0.0,0.0,0.4587,0.4606,0.4713,0.5046,0.5095,0.5095,0.5095,0.463,0.4356,0.449,0.4859,0.0,0.0,0.0,0.0,0.0,0.0,0.0,0.5544,0.5658,0.5892,0.6259,0.648,0.668,0.686,0.6974,0.6979,0.6979,0.6979,0.0,0.0,0.0,0.0,0.0,0.7795,0.8022,0.835,0.0,0.0,0.0,0.0,0.0,0.0,0.0,0.0,0.0,0.0,0.0,0.0,0.0,1.1902,1.3283,0.0,1.5049,1.5681,1.5483,1.4908,1.4302,1.3932,1.3363,1.2881,1.2881,1.2881,1.2881,1.2881,1.2881,1.2934,1.315,1.3662,1.4431,0.0,0.0,0.0,0.0,0.0,0.0,0.0,1.8355,1.6877,1.7604,1.6104,1.5137,1.5201,1.554,1.581,1.5765,1.5778,1.5832,1.5832,1.5832,1.5832,1.5832,1.5832,1.5832,1.5832,1.5832,1.5832,1.5832,1.5832,1.5832,0.0,1.5832,1.5832,1.5832,1.5832,1.5832,1.5832,1.5832,1.5832,1.5832,0.0,0.0,0.0,0.0,0.0,0.0,0.0,0.5069,0.5078,0.5098,0.5069,0.5069,0.5088,0.4646,0.4578,0.516,0.4945,0.0,0.0,0.0,0.0,0.0,0.0,0.0,0.5334,0.5578,0.5726,0.5711,0.6259,0.654,0.6567,0.6834,0.6974,0.6987,0.6987,0.6959,0.0,0.0,0.0,0.0,0.7537,0.757,0.0,0.0,0.0,0.0,0.0,0.0,0.0,0.0,0.0,0.0,0.0,0.0,0.0,0.0,0.0,0.0,0.0,1.4655,1.5282,1.5731,1.5114,1.4349,1.4299,1.3569,0.0,1.2881,1.2881,1.2891,1.292,1.29,1.279,1.2718,1.3862,1.4907,0.0,0.0,0.0,0.0,2.0039,0.0,1.9706,2.0221,2.0604,2.0597,1.6877,1.4556,1.4548,1.5258,1.5686,1.5667,1.5738,1.5792,1.5832,1.5832,1.5832,1.5832,1.5832,1.5832,1.5832,1.5832,1.5832,1.5832,1.5832,1.5832,1.5832,1.5832,1.5832,1.5832,1.5832,1.5832,1.5832,1.5832,1.5832,1.5832,0.0,0.0,0.0,0.0,0.0,0.0,0.0,0.0,0.0,0.0,0.4863,0.4815,0.5069,0.4991,0.499,0.0,0.0,0.0,0.0,0.0,0.0,0.0,0.0,0.0,0.5765,0.5807,0.5805,0.5711,0.5852,0.6039,0.6297,0.6371,0.648,0.6693,0.6693,0.6814,0.0,0.0,0.0,0.0,0.7221,0.7308,0.0,0.0,0.0,0.0,0.7141,0.7271,0.0,0.0,0.0,0.0,0.0,0.0,0.0,0.0,0.9428,1.0363,1.1441,0.0,1.3785,1.4206,1.4105,1.3841,0.0,1.3096,1.2881,0.0,0.0,1.2978,1.3301,1.266,1.2624,1.4447,1.46,1.5078,1.6638,0.0,0.0,1.9668,1.9941,1.9678,1.8768,1.9813,2.0628,2.0605,1.9665,1.9041,1.9053,1.6162,1.4513,1.454,1.5339,1.58,1.5825,1.5832,1.5832,1.5832,1.5832,1.5832,1.5832,1.5832,1.5832,1.5832,1.5832,1.5832,1.5832,1.5832,1.5832,1.5832,1.5832,1.5832,1.5832,1.5832,1.5832,1.5832,0.0,0.0,0.0,0.0,0.0,0.0,0.0,0.0,0.0,0.0,0.4606,0.4677,0.4883,0.4912,0.4977,0.0,0.0,0.0,0.0,0.0,0.0,0.0,0.0,0.6055,0.6183,0.6183,0.6059,0.58,0.5907,0.5958,0.5959,0.5903,0.6003,0.6196,0.6072,0.6246,0.0,0.0,0.0,0.7248,0.7088,0.0,0.0,0.0,0.0,0.0,0.6774,0.682,0.0,0.6981,0.6979,0.6979,0.0,0.0,0.0,0.0,0.8193,0.8746,0.9558,1.1055,1.2524,1.3303,1.344,1.3331,1.3324,0.0,0.0,0.0,0.0,0.0,1.3174,1.2553,0.0,1.4007,1.3911,0.0,0.0,0.0,0.0,1.8227,1.8464,1.833,1.7795,1.8523,1.9057,1.9117,1.8133,1.7614,1.7637,1.5362,1.4071,1.4059,1.4661,1.5244,1.5832,1.581,1.5778,1.5832,1.5806,1.5806,1.5832,1.5832,1.5832,1.5832,1.5832,1.5832,1.5832,1.5832,1.5832,1.5832,1.5832,1.5832,1.5818,1.5792,1.5839,1.5825,0.0,0.0,0.0,0.0,0.0,0.0,0.0,0.0,0.0,0.0,0.0,0.0,0.0,0.0,0.0,0.0,0.0,0.0,0.0,0.0,0.0,0.0,0.6372,0.6289,0.6419,0.6457,0.6275,0.5797,0.5964,0.5867,0.5516,0.5359,0.5346,0.5488,0.5439,0.5684,0.0,0.0,0.6477,0.6894,0.6894,0.0,0.0,0.0,0.0,0.0,0.0,0.0,0.0,0.686,0.6954,0.6967,0.7007,0.0,0.0,0.0,0.0,0.0,0.8085,0.9538,1.1102,1.2443,1.2619,1.2628,1.3226,0.0,0.0,0.0,0.0,0.0,0.0,0.0,0.0,0.0,0.0,0.0,0.0,1.5105,1.5495,1.6246,1.6451,1.662,1.6702,1.7064,1.7123,1.6854,1.5123,1.4063,1.411,1.4117,1.4119,1.4056,1.4069,1.452,1.5565,1.5569,1.5518,1.5584,1.5704,1.5837,1.5772,1.5812,1.5832,1.5832,1.5832,1.5832,1.5832,1.5832,1.5832,1.5832,1.5832,1.5832,1.5798,1.5817,1.5708,1.5562,0.0,0.0,0.0,0.0,0.0,0.0,0.0,0.0,0.0,0.0,0.0,0.0,0.0,0.0,0.0,0.0,0.0,0.0,0.0,0.0,0.0,0.6973,0.6966,0.664,0.6006,0.6336,0.6121,0.5404,0.5023,0.4816,0.4758,0.4405,0.4348,0.4619,0.5431,0.5844,0.5942,0.6127,0.6264,0.6307,0.6307,0.0,0.0,0.0,0.0,0.0,0.0,0.0,0.0,0.656,0.6653,0.67,0.6947,0.0,0.0,0.0,0.0,0.0,0.7514,0.8031,0.8787,1.0432,1.0982,1.1107,1.1258,0.0,0.0,0.0,0.0,0.0,0.0,0.0,0.0,0.0,0.0,1.3171,0.0,0.0,1.3433,1.5643,1.536,1.5226,1.5864,1.6716,1.6518,1.4755,1.4287,1.4105,1.4132,1.4132,1.4075,1.4064,1.4064,1.4216,1.4359,1.4359,1.4392,1.4385,1.5304,1.5835,1.579,1.5826,1.5832,1.5832,1.5832,1.5832,1.5832,1.5832,1.5832,1.5832,1.5832,1.5832,1.5798,1.5817,1.5186,1.432,0.0,0.0,0.0,0.0,0.0,0.0,0.0,0.0,0.0,0.0,0.0,0.0,0.0,0.0,0.0,0.0,0.0,0.0,0.0,0.0,0.5982,0.6174,0.6559,0.6609,0.6244,0.6075,0.5708,0.5137,0.4587,0.427,0.4152,0.3889,0.3842,0.3978,0.4271,0.4831,0.5558,0.5606,0.592,0.6426,0.0,0.0,0.0,0.0,0.0,0.0,0.0,0.0,0.0,0.0,0.6391,0.6445,0.67,0.0,0.0,0.0,0.0,0.0,0.7188,0.7575,0.8099,0.8846,0.9639,1.0364,1.0712,0.0,0.0,0.0,0.0,0.0,0.0,0.0,0.0,0.0,0.0,1.0863,1.1212,1.0879,1.0995,1.2182,1.2483,1.2752,1.3094,1.4629,1.5155,1.4166,1.4079,1.4075,1.4137,1.4092,1.4088,1.4088,1.4088,1.4064,1.4091,1.4123,1.4441,1.5053,1.493,1.521,1.5791,1.5783,1.5805,1.5805,1.5805,1.5792,1.5805,1.5803,1.5451,1.4852,1.4896,1.5048,1.5324,1.503,1.4523,1.4096,0.0,0.0,0.0,0.0,0.0,0.0,0.0,0.0,0.0,0.0,0.0,0.0,0.0,0.0,0.0,0.0,0.0,0.0,0.0,0.523,0.5217,0.5317,0.5711,0.5941,0.5997,0.5659,0.5202,0.464,0.4086,0.3717,0.3511,0.3524,0.3547,0.3516,0.3553,0.4192,0.5259,0.5198,0.5647,0.6382,0.0,0.0,0.0,0.0,0.0,0.0,0.0,0.0,0.0,0.0,0.0,0.0,0.0,0.0,0.0,0.6834,0.6921,0.6947,0.7088,0.7522,0.7902,0.8016,0.0,0.9718,1.021,0.0,0.0,0.0,0.0,0.0,0.0,0.0,0.0,0.9649,0.9122,0.8788,0.889,0.8737,0.8846,0.9463,1.0087,1.0656,1.1155,1.2988,1.3981,1.3661,1.3931,1.4085,1.4131,1.4115,1.4088,1.4088,1.4088,1.4088,1.4088,1.4088,1.4507,1.5362,1.4502,1.4542,1.5377,1.5372,1.5501,1.5606,1.5606,1.5629,1.5598,1.5763,1.5097,1.4135,1.4128,1.4417,1.483,1.4408,1.4144,1.4115,0.0,0.0,0.0,0.0,0.0,0.0,0.0,0.0,0.0,0.0,0.0,0.0,0.0,0.0,0.0,0.0,0.0,0.0,0.0,0.4672,0.4628,0.5003,0.4489,0.43,0.4552,0.4867,0.4579,0.3602,0.3186,0.2842,0.2607,0.3095,0.3311,0.3352,0.4477,0.501,0.5139,0.5253,0.5458,0.5733,0.55,0.0,0.0,0.0,0.0,0.0,0.0,0.0,0.0,0.0,0.0,0.0,0.0,0.0,0.6283,0.6533,0.662,0.674,0.7332,0.7675,0.7996,0.8277,0.8629,0.0,0.8956,0.8962,0.0,0.0,0.0,0.0,0.0,1.0235,1.0085,0.8544,0.8599,0.851,0.7729,0.6995,0.7415,0.9965,0.9544,0.9864,1.2017,1.3353,1.3662,1.2548,1.3464,1.4062,1.4117,1.4115,1.4088,1.4088,1.4088,1.4088,1.4088,1.4088,1.4108,1.4247,1.411,1.4141,1.4261,1.425,1.4488,1.5087,1.5087,1.51,1.512,1.559,1.517,1.4084,1.4065,1.4389,1.4744,1.4636,1.4435,1.4088,0.0,0.0,0.0,0.0,0.0,0.0,0.0,0.0,0.0,0.0,0.0,0.0,0.0,0.0,0.0,0.0,0.0,0.0,0.0,0.4222,0.4231,0.4368,0.4302,0.4126,0.3843,0.3669,0.3386,0.3003,0.2642,0.2566,0.2745,0.312,0.3584,0.4113,0.4339,0.4715,0.5195,0.4882,0.5113,0.5669,0.5318,0.5311,0.0,0.0,0.0,0.0,0.0,0.0,0.0,0.0,0.5444,0.5491,0.5785,0.5878,0.5939,0.627,0.6485,0.664,0.686,0.7415,0.7908,0.807,0.0,0.0,0.0,0.0,0.0,0.0,0.0,0.0,0.0,0.0,0.9069,0.9019,0.8269,0.7645,0.74,0.7108,0.7124,0.771,0.748,0.7602,0.848,0.8988,1.011,1.215,1.2715,1.327,1.403,1.4117,1.4088,1.4082,1.4088,1.4088,1.4088,1.4088,1.4088,1.4088,1.4103,1.4064,1.4071,1.4067,1.419,1.4487,1.4879,1.479,1.443,1.4663,1.4516,1.4076,1.4095,1.4157,1.4347,1.4347,1.4273,1.4088,0.0,0.0,0.0,0.0,0.0,0.0,0.0,0.0,0.0,0.0,0.0,0.0,0.0,0.0,0.0,0.0,0.0,0.0,0.3765,0.3825,0.3851,0.3851,0.3949,0.381,0.3377,0.3017,0.2783,0.2689,0.2523,0.2615,0.3032,0.3398,0.3944,0.4602,0.4473,0.4672,0.5062,0.4621,0.4768,0.5252,0.4899,0.4979,0.0,0.0,0.0,0.0,0.0,0.0,0.0,0.0,0.5309,0.5317,0.5511,0.5578,0.5631,0.5967,0.6263,0.6493,0.6673,0.7241,0.7829,0.0,0.0,0.0,0.0,0.0,0.0,0.0,0.9686,0.0,0.0,0.0,0.0,0.0,0.8171,0.7315,0.6797,0.6834,0.6731,0.6329,0.6307,0.6338,0.6338,0.7469,0.9169,1.1468,1.218,1.2803,1.3689,1.3801,1.392,1.4122,1.4135,1.4085,1.4088,1.4088,1.4088,1.4088,1.4088,1.4088,1.4095,1.4097,1.409,1.4097,1.4575,1.4496,1.4063,1.4064,1.4103,1.4077,1.407,1.4088,1.4088,1.4088,1.4088,1.4088,0.0,0.0,0.0,0.0,0.0,0.0,0.0,0.0,0.0,0.0,0.0,0.0,0.0,0.0,0.0,0.0,0.0,0.0,0.3506,0.3506,0.3506,0.3506,0.3245,0.3111,0.3111,0.3093,0.2987,0.2697,0.2834,0.3028,0.3321,0.3923,0.4351,0.4622,0.5081,0.5042,0.4596,0.459,0.451,0.4367,0.4113,0.4153,0.4396,0.0,0.0,0.0,0.0,0.0,0.0,0.0,0.5309,0.5309,0.5309,0.5316,0.5344,0.5625,0.5925,0.6324,0.686,0.7235,0.7661,0.0,0.0,0.0,0.0,0.0,0.0,0.0,0.0,1.0618,1.0624,1.0561,0.0,0.8285,0.8149,0.7623,0.5862,0.584,0.6101,0.6261,0.6322,0.6335,0.6338,0.994,1.1707,1.0447,1.1941,1.2859,1.2829,1.3039,1.344,1.4097,1.4111,1.4069,1.4082,1.4088,1.4088,1.4088,1.4088,1.4088,1.4088,1.4088,1.4088,1.4088,1.4088,1.4088,1.4088,1.4088,1.4088,1.4088,1.4088,1.4088,1.4088,1.4088,1.4088,1.4088,0.0,0.0,0.0,0.0,0.0,0.0,0.0,0.0,0.0,0.0,0.0,0.0,0.0,0.0,0.0,0.0,0.0,0.0,0.3223,0.3393,0.3421,0.3223,0.333,0.3372,0.3372,0.3387,0.3332,0.3265,0.3215,0.3373,0.3725,0.3794,0.4073,0.446,0.4607,0.4488,0.4144,0.3832,0.3793,0.3941,0.3534,0.367,0.4118,0.0,0.0,0.0,0.0,0.0,0.0,0.0,0.0,0.0,0.5309,0.5418,0.5564,0.5444,0.5912,0.6492,0.6465,0.7088,0.0,0.0,0.0,0.0,0.0,0.0,0.0,0.0,1.0127,1.0314,1.0584,1.011,0.0,0.9011,0.8414,0.7721,0.6652,0.6553,0.6572,0.6311,0.6303,0.6298,0.6328,0.863,1.0614,1.162,1.1507,1.1866,1.2739,1.2916,1.3111,1.3427,1.3906,1.407,1.4062,1.4079,1.4088,1.4088,1.4088,1.4088,1.4088,1.4088,1.4088,1.4088,1.4088,1.4088,1.4088,1.4088,1.4088,1.4088,1.4088,1.4088,1.4088,1.4088,1.4088,1.4088,0.0,0.0,0.0,0.0,0.0,0.0,0.0,0.0,0.0,0.0,0.0,0.3202,0.0,0.0,0.0,0.0,0.0,0.0,0.0,0.3309,0.3309,0.3266,0.3309,0.3393,0.3493,0.3605,0.3716,0.3805,0.3513,0.362,0.4106,0.3911,0.4031,0.4402,0.4402,0.4211,0.3865,0.3456,0.3314,0.3313,0.2922,0.3,0.3416,0.0,0.0,0.0,0.0,0.0,0.0,0.0,0.0,0.0,0.5309,0.5397,0.5531,0.5471,0.5912,0.6498,0.6666,0.7201,0.0,0.0,0.0,0.0,0.0,0.0,0.0,0.0,0.0,1.0174,1.0347,1.0097,0.9722,0.9338,0.8877,0.8268,0.7474,0.6738,0.6237,0.5953,0.6173,0.6293,0.6291,0.8138,0.9905,1.1383,1.1446,1.177,1.2559,1.2565,1.2705,1.2837,1.3193,1.362,1.4114,1.4111,1.4083,1.4102,1.4102,1.4072,1.4088,1.4088,1.4088,1.4088,1.4088,1.4088,1.4088,1.4088,1.4088,1.4088,1.4088,1.4088,1.4088,1.4088,1.4088,1.4088,0.0,0.0,0.3506,0.3527,0.0,0.0,0.0,0.0,0.0,0.0,0.0,0.3202,0.0,0.0,0.0,0.3464,0.3245,0.3202,0.0,0.0,0.3153,0.3372,0.3175,0.319,0.3452,0.3696,0.3965,0.4264,0.3765,0.3814,0.4357,0.4092,0.4093,0.4322,0.4322,0.4056,0.3636,0.3393,0.3052,0.2635,0.2348,0.2331,0.2522,0.2886,0.0,0.0,0.0,0.0,0.0,0.0,0.0,0.0,0.5277,0.5329,0.5396,0.5638,0.5954,0.6404,0.7254,0.0,0.0,0.0,0.0,0.0,0.0,0.0,0.915,0.9176,0.0,1.0047,1.0074,1.0321,1.0262,0.9424,0.9256,0.9011,0.8091,0.6564,0.5501,0.5378,0.5871,0.6208,0.6324,0.8295,0.9798,1.0433,1.1594,1.2305,1.2305,1.2305,1.2337,1.2266,1.2298,1.2795,1.3966,1.3922,1.3982,1.3974,1.4069,1.4118,1.4105,1.4062,1.4088,1.4088,1.4088,1.4088,1.4088,1.4088,1.4088,1.4088,1.4088,1.4088,1.4088,1.4088,1.4088,1.4088,0.0,0.0,0.3569,0.3765,0.0,0.0,0.0,0.0,0.3181,0.3393,0.3223,0.3111,0.3181,0.3372,0.0,0.3202,0.3132,0.3025,0.2875,0.0,0.2697,0.2498,0.2676,0.2907,0.3172,0.3247,0.35,0.3984,0.3883,0.3885,0.3994,0.3722,0.3632,0.3692,0.3692,0.3529,0.3237,0.3164,0.2873,0.2457,0.2385,0.2306,0.2286,0.2367,0.2521,0.0,0.0,0.0,0.0,0.0,0.0,0.0,0.5182,0.5438,0.5651,0.5791,0.618,0.6611,0.7114,0.7543,0.0,0.0,0.0,0.0,0.0,0.8851,0.8965,0.9137,0.9283,0.9499,0.9733,1.002,0.9894,0.9069,0.9127,0.9011,0.8091,0.7073,0.6144,0.5504,0.5544,0.5785,0.6233,0.9567,1.1719,1.1867,1.2145,1.2305,1.2305,1.2305,1.2325,1.2311,1.2283,1.2426,1.2665,1.2726,1.2705,1.2683,1.3666,1.4076,1.4065,1.4068,1.4088,1.4088,1.4088,1.4088,1.4088,1.4088,1.4088,1.4088,1.4088,1.4088,1.4088,1.4088,1.4088,1.4088,0.0,0.0,0.0,0.0,0.0,0.0,0.0,0.0,0.2785,0.3072,0.2848,0.274,0.2896,0.3153,0.0,0.0,0.3089,0.3046,0.2896,0.2762,0.2546,0.2215,0.2524,0.2692,0.266,0.2821,0.3035,0.3319,0.3332,0.3528,0.389,0.3626,0.3506,0.3506,0.3506,0.3421,0.3287,0.3153,0.2968,0.2734,0.26,0.253,0.2546,0.2546,0.257,0.2633,0.2835,0.0,0.0,0.0,0.0,0.0,0.0,0.0,0.5227,0.5445,0.5941,0.6555,0.0,0.0,0.0,0.0,0.0,0.0,0.0,0.8804,0.8851,0.9005,0.909,0.923,0.9446,0.9713,0.9827,0.9467,0.955,0.9568,0.9308,0.8479,0.7727,0.7074,0.609,0.5542,0.5859,0.9249,1.1598,1.1821,1.2036,1.2098,1.2098,1.2225,1.2305,1.2305,1.2282,1.228,1.228,1.2272,1.2325,1.2285,1.2902,1.3243,1.3233,1.3858,1.4142,1.4088,1.4088,1.4088,1.4088,1.4088,1.4088,1.4088,1.4088,1.4088,1.4088,1.4088,1.4088,1.4088,0.0,0.0,0.0,0.0,0.0,0.0,0.0,0.0,0.0,0.2677,0.2459,0.2367,0.2589,0.2875,0.3025,0.0,0.0,0.0,0.3025,0.2719,0.2415,0.215,0.2394,0.2415,0.2132,0.2459,0.2611,0.2611,0.2676,0.3041,0.0,0.352,0.3442,0.3442,0.3485,0.3506,0.3485,0.3266,0.3132,0.3089,0.2853,0.2815,0.2865,0.2865,0.2818,0.2722,0.2722,0.2877,0.3048,0.3138,0.0,0.0,0.0,0.0,0.4578,0.4988,0.5529,0.6273,0.0,0.0,0.0,0.0,0.0,0.0,0.0,0.9061,0.8956,0.8956,0.9045,0.911,0.911,0.9406,0.9686,0.9927,1.0007,1.014,1.0441,0.9775,0.9145,0.8913,0.7184,0.5963,0.5981,0.8847,1.0842,1.1288,1.163,1.179,1.179,1.2071,1.2231,1.2304,1.2278,1.2305,1.2305,1.2305,1.233,1.2316,1.2316,1.2305,1.234,1.3293,1.3845,1.4025,1.4038,1.4122,1.4122,1.4122,1.4122,1.4122,1.4122,1.3941,1.3838,1.3935,1.3935,1.3935,0.0,0.0,0.0,0.0,0.0,0.0,0.0,0.0,0.0,0.0,0.2654,0.2546,0.2302,0.2567,0.274,0.274,0.2481,0.2437,0.274,0.0,0.0,0.1847,0.1891,0.1891,0.1847,0.2128,0.2259,0.2259,0.2567,0.0,0.0,0.0,0.0,0.3153,0.3393,0.3506,0.3506,0.3464,0.3309,0.3089,0.3068,0.2913,0.2721,0.2721,0.2795,0.286,0.286,0.2811,0.2832,0.3282,0.334,0.0,0.0,0.0,0.4221,0.4972,0.5225,0.5487,0.0,0.0,0.0,0.0,0.0,0.0,0.0,0.0,0.9666,0.0,0.9239,0.8864,0.8864,0.9105,0.9256,0.9296,0.9573,0.984,1.0134,0.9414,0.8935,0.9175,0.8722,0.8333,0.8345,0.9988,1.1076,1.1135,1.1323,1.1483,1.1483,1.1764,1.208,1.2322,1.233,1.2305,1.2305,1.2305,1.2318,1.2277,1.2277,1.2267,1.2286,1.2492,1.2941,1.36,1.3961,1.4062,1.4062,1.4062,1.4062,1.4062,1.4062,1.3427,1.2609,1.3147,1.3234,1.3061,0.0,0.0,0.0,0.0,0.0,0.0,0.0,0.0,0.0,0.0,0.0,0.2132,0.2,0.2241,0.2415,0.2415,0.2459,0.2459,0.2415,0.2022,0.0,0.1803,0.1803,0.1803,0.1803,0.1913,0.1978,0.1978,0.0,0.0,0.0,0.274,0.2961,0.0,0.0,0.0,0.3506,0.3506,0.3442,0.333,0.333,0.3359,0.3409,0.3213,0.318,0.3214,0.3059,0.2798,0.2578,0.2816,0.2822,0.28,0.3091,0.0,0.0,0.0,0.4398,0.0,0.6871,0.0,0.0,0.0,0.0,0.0,1.0864,0.0,1.0364,1.0364,1.0115,0.971,0.8962,0.8911,0.9051,0.9157,0.9352,0.9539,0.9833,0.97,0.9598,0.973,0.9768,0.9798,0.9831,1.0444,1.0795,1.0826,1.1022,1.1182,1.1182,1.1463,1.1706,1.1943,1.1982,1.1895,1.181,1.1814,1.1972,1.2305,1.2305,1.2291,1.2322,1.2322,1.2669,1.3385,1.385,1.4115,1.4029,1.3392,1.3121,1.3121,1.3121,1.2936,1.2679,1.2942,1.3035,1.3121,0.0,0.0,0.0,0.0,0.0,0.0,0.0,0.0,0.0,0.0,0.0,0.1803,0.1803,0.0,0.0,0.0,0.2376,0.2355,0.2114,0.0,0.0,0.0,0.1809,0.1806,0.1803,0.1803,0.1803,0.1803,0.0,0.0,0.2215,0.2546,0.2853,0.0,0.3372,0.3506,0.0,0.0,0.3506,0.3513,0.3586,0.3774,0.3978,0.3808,0.3741,0.3688,0.3328,0.2939,0.2572,0.2449,0.2393,0.2376,0.2417,0.2683,0.0,0.0,0.0,0.0,0.0,0.0,0.0,0.0,0.0,0.0,0.0,0.0,1.1065,0.0,1.0914,1.0517,0.951,0.9159,0.9083,0.9092,0.9077,0.9232,0.9526,0.976,0.9947,1.01,1.0314,1.0481,1.0618,1.0624,1.0624,1.0624,1.0762,1.0882,1.0882,1.1156,1.1391,1.1546,1.1546,1.1505,1.1423,1.1567,1.1826,1.2278,1.2278,1.2311,1.2305,1.2305,1.2552,1.2979,1.3423,1.3606,1.3599,1.2635,1.2279,1.2279,1.2279,1.2454,1.2719,1.2719,1.281,1.2979,0.0,0.0,0.0,0.0,0.0,0.0,0.0,0.0,0.0,0.0,0.0,0.1803,0.1803,0.1813,0.1975,0.2355,0.2064,0.1842,0.182,0.0,0.0,0.0,0.0,0.0,0.1803,0.1803,0.1803,0.0,0.0,0.0,0.2215,0.2546,0.2853,0.3111,0.3372,0.3506,0.3506,0.0,0.0,0.3532,0.3857,0.3978,0.4025,0.4262,0.4369,0.429,0.3694,0.3286,0.3007,0.2547,0.2242,0.2059,0.2177,0.2227,0.2374,0.0,0.0,0.0,0.0,0.0,0.0,0.0,0.0,0.0,0.0,0.0,1.1765,1.1765,1.1266,1.0762,1.072,1.0167,0.9569,0.893,0.8831,0.8931,0.917,0.9223,0.9435,1.0053,1.0134,1.0247,1.0598,1.0624,1.0624,1.0624,1.0638,1.0645,1.0645,1.0862,1.1015,1.1015,1.1127,1.1198,1.1423,1.1984,1.2242,1.2294,1.2294,1.2281,1.2305,1.2305,1.2318,1.2351,1.2351,1.2351,1.2351,1.2345,1.2271,1.2271,1.2271,1.2345,1.2345,1.2345,1.2351,1.2351,0.0,0.0,0.0,0.0,0.0,0.0,0.0,0.0,0.0,0.0,0.0,0.0,0.0,0.1798,0.1705,0.1452,0.1296,0.0,0.0,0.0,0.0,0.0,0.0,0.0,0.0,0.1791,0.0,0.0,0.0,0.2215,0.2524,0.2826,0.3089,0.3351,0.3464,0.3506,0.3506,0.3506,0.0,0.3532,0.3877,0.3928,0.3813,0.3909,0.3904,0.3777,0.3377,0.3069,0.2812,0.265,0.2484,0.2314,0.2221,0.2299,0.2443,0.2649,0.3046,0.0,0.0,0.0,0.0,0.0,0.0,1.1509,1.1865,1.2214,1.2501,1.2501,1.2304,1.199,1.1516,1.0517,0.971,0.9465,0.9061,0.8844,0.8945,0.9064,0.9263,0.9469,0.9726,0.9953,1.0247,1.0274,1.0354,1.0611,1.0624,1.0624,1.0624,1.0719,1.0715,1.0715,1.0744,1.0811,1.0916,1.1076,1.1215,1.1197,1.1938,1.2322,1.2281,1.2298,1.2305,1.2305,1.2305,1.2305,1.2305,1.2305,1.2305,1.2305,1.2305,1.2305,1.2305,1.2305,1.2305,1.2305,0.0,0.0,0.0,0.0535,0.0,0.1794,0.1809,0.1809,0.1809,0.1809,0.0,0.0,0.0,0.0,0.0961,0.0356,0.0289,0.0289,0.0289,0.0289,0.0,0.0,0.0,0.0,0.0,0.1661,0.1794,0.0,0.0,0.0,0.0,0.2875,0.3153,0.3506,0.3506,0.3506,0.0,0.0,0.0,0.3539,0.3955,0.4051,0.3936,0.3996,0.3959,0.3811,0.3274,0.2983,0.2814,0.2605,0.2466,0.2354,0.2181,0.2228,0.2342,0.2393,0.2624,0.0,0.3868,0.0,0.0,0.0,0.0,1.0206,1.0702,1.1631,1.2436,1.253,1.2715,1.2764,1.2236,1.1225,1.0415,1.0167,0.9562,0.9159,0.9159,0.9072,0.9077,0.9176,0.9412,0.9646,0.994,0.9973,1.0053,1.0247,1.0354,1.0414,1.0414,1.0571,1.0624,1.0624,1.0624,1.0578,1.062,1.062,1.062,1.0602,1.1401,1.1943,1.2291,1.2322,1.2332,1.2267,1.2283,1.2298,1.2305,1.2305,1.2305,1.2305,1.2305,1.2305,1.2305,1.2305,1.2305,1.2305,-0.0,-0.0,-0.0,-0.0,0.0961,0.1731,0.1753,0.1753,0.1775,0.1775,0.0,0.0,0.0,0.0,0.0,-0.087,-0.0936,-0.0936,-0.0936,-0.0936,0.0,0.0,0.0,0.0,0.0579,0.1343,0.1753,0.1798,0.1809,0.211,0.2676,0.0,0.2982,0.3485,0.3485,0.3485,0.3506,0.0,0.3513,0.3566,0.4162,0.4402,0.4395,0.4557,0.459,0.4439,0.3471,0.3104,0.2992,0.242,0.2231,0.2204,0.2047,0.2021,0.202,0.2174,0.2344,0.2668,0.0,0.0,0.0,0.0,0.0,0.0,0.9289,0.0,1.1422,1.1666,1.2325,1.2861,1.2881,1.2295,1.1616,1.0965,1.0261,0.9814,0.9814,0.9263,0.8911,0.9137,0.917,0.9345,0.9646,0.9666,0.9673,0.9686,0.994,1.01,1.01,1.0374,1.0604,1.0611,1.0611,1.0618,1.0624,1.0624,1.0624,1.0607,1.0613,1.1209,1.2272,1.2279,1.2218,1.2232,1.2213,1.226,1.2278,1.2298,1.2305,1.2305,1.2305,1.2305,1.2305,1.2305,1.2305,1.2318,-0.0,-0.0,-0.0,-0.0,-0.0089,-0.0,0.0423,0.0736,0.0936,0.0,0.0,0.0,-0.0309,-0.0929,-0.1377,-0.1538,-0.1544,-0.1547,-0.1547,-0.1547,-0.1524,-0.148,-0.1371,-0.0852,0.0133,0.0379,0.0914,0.1798,0.1809,0.1978,0.2346,0.2589,0.2875,0.3223,0.3223,0.3309,0.3506,0.3506,0.0,0.3884,0.4045,0.4159,0.425,0.4305,0.4029,0.3612,0.3332,0.3113,0.2915,0.2771,0.269,0.2679,0.2441,0.2259,0.2177,0.235,0.2452,0.2585,0.2918,0.0,0.0,0.0,0.0,0.0,0.728,0.0,0.9798,1.01,1.1029,1.1882,1.2073,1.2344,1.251,1.2353,1.1334,1.0364,0.9865,0.9666,0.9396,0.8971,0.8925,0.9045,0.9332,0.9359,0.9452,0.9666,0.9629,0.9669,0.98,0.988,1.002,1.0234,1.0241,1.0341,1.0618,1.0624,1.0595,1.0604,1.0594,1.0738,1.1049,1.1099,1.1047,1.1047,1.105,1.152,1.2263,1.2297,1.2305,1.2305,1.2305,1.2305,1.2305,1.2305,1.2264,1.2324,-0.038,-0.0381,-0.038,-0.0379,-0.0868,-0.1159,-0.0803,-0.04,-0.0089,0.0,0.0,0.0,-0.1611,-0.1883,-0.1978,-0.1978,-0.1876,-0.1794,-0.1798,-0.1798,-0.1683,-0.1433,-0.1667,-0.1463,-0.0758,-0.0267,0.0468,0.1433,0.1677,0.1938,0.2193,0.2394,0.2654,0.2939,0.2939,0.3089,0.333,0.333,0.3512,0.3808,0.4079,0.4225,0.4288,0.4358,0.415,0.3784,0.3421,0.3198,0.3062,0.2922,0.2866,0.2781,0.2637,0.2476,0.2344,0.2458,0.253,0.2599,0.2688,0.0,0.0,0.0,0.0,0.0,0.583,0.7083,0.8311,0.8963,0.9891,1.0793,1.1288,1.1981,1.2452,1.2452,1.1999,1.1434,1.072,1.0415,0.9969,0.9309,0.9211,0.9176,0.9038,0.9058,0.9132,0.9305,0.9306,0.9425,0.9673,0.9686,0.976,0.9927,0.9933,1.008,1.0374,1.0374,1.0441,1.0624,1.0586,1.0594,1.0601,1.0613,1.0612,1.0618,1.0587,1.0946,1.1594,1.1589,1.1696,1.1859,1.1331,1.1552,1.2118,1.1747,1.1857,1.2155,0.0,-0.1003,-0.1003,-0.1005,-0.1471,-0.1854,-0.1798,-0.1493,-0.113,0.0,-0.0776,-0.1323,-0.2681,-0.2459,-0.2215,-0.2219,-0.1957,-0.1809,-0.1798,-0.1798,-0.1569,-0.1027,-0.1252,-0.1457,-0.1594,-0.0557,0.0267,0.0803,0.148,0.1924,0.2154,0.2154,0.2307,0.2589,0.2589,0.2762,0.3046,0.3046,0.3193,0.349,0.4092,0.4395,0.4455,0.4539,0.4541,0.4436,0.3584,0.3274,0.3223,0.2986,0.2852,0.2751,0.2717,0.2654,0.2555,0.2537,0.2644,0.0,0.273,0.273,0.0,0.3265,0.3631,0.0,0.4752,0.5743,0.6823,0.7876,0.8706,0.9489,1.0316,1.1064,1.1594,1.1644,1.2218,1.2461,1.1864,1.1266,1.0661,1.0012,0.9909,0.9666,0.9061,0.9008,0.9008,0.891,0.9045,0.9305,0.9573,0.9586,0.9599,0.9633,0.9633,0.9773,1.0067,1.01,1.0247,1.0514,1.0611,1.0624,1.0624,1.0624,1.0624,1.0575,1.0607,1.0574,1.0594,1.0619,1.0908,1.1204,0.9771,1.0271,1.1604,1.0814,1.1269,1.2024,-0.1683,-0.1632,-0.1629,-0.1613,-0.1994,-0.2174,-0.1842,-0.1743,-0.1648,-0.1569,-0.1857,-0.2118,-0.2307,-0.2259,-0.2245,-0.2351,-0.2016,-0.1798,-0.1798,-0.1798,-0.1753,-0.1639,0.0133,0.0648,-0.0337,-0.0112,0.0067,0.0178,0.1274,0.182,0.1883,0.1883,0.1924,0.1978,0.1978,0.2285,0.2783,0.2783,0.2872,0.308,0.3785,0.4335,0.4677,0.4406,0.4205,0.4053,0.349,0.3158,0.299,0.3029,0.3102,0.3139,0.294,0.292,0.2968,0.2852,0.292,0.3035,0.3035,0.3035,0.3056,0.3144,0.3356,0.0,0.362,0.4275,0.503,0.5506,0.6516,0.7603,0.8445,0.9371,1.0092,1.0569,1.0978,1.1375,1.1765,1.1665,1.1366,1.0661,1.0618,1.0559,1.0415,1.0415,1.0167,0.9666,0.9162,0.8918,0.8978,0.8978,0.9085,0.9319,0.9325,0.9466,0.9766,1.0,1.0147,1.0207,1.0448,1.0624,1.0624,1.0624,1.0624,1.0624,1.0615,1.0571,1.0578,1.0624,1.0633,1.0592,0.8938,0.9136,1.0457,1.0247,1.1102,1.2274,-0.203,-0.2004,-0.1957,-0.1832,-0.221,-0.2386,-0.1876,-0.2048,-0.2136,-0.1835,-0.21,-0.2337,-0.2437,-0.2302,-0.2219,-0.2298,-0.1994,-0.1661,-0.1366,-0.1639,-0.1252,-0.0067,0.1163,0.1527,0.0919,0.0313,-0.0,-0.0,0.0601,0.105,0.1343,0.1343,0.1408,0.1516,0.1721,0.2052,0.2459,0.2459,0.2587,0.2846,0.3417,0.384,0.4158,0.4119,0.4051,0.3928,0.3458,0.3163,0.3015,0.3015,0.3164,0.331,0.3086,0.3117,0.3205,0.3056,0.312,0.3219,0.3141,0.3082,0.3137,0.3215,0.3334,0.0,0.0,0.3734,0.4211,0.4841,0.5465,0.613,0.7079,0.7863,0.8469,0.884,0.9289,0.9845,1.0638,1.134,1.1665,1.1366,1.1316,1.1166,1.0813,1.0813,1.0661,1.0312,0.9666,0.9309,0.9309,0.8956,0.8871,0.9018,0.9025,0.9165,0.9459,0.9606,0.9753,0.9907,1.0053,1.02,1.0341,1.0341,1.0421,1.0624,1.0624,1.0624,1.0624,1.0624,1.0586,1.0482,0.9175,0.9411,1.0454,0.9559,1.0353,1.1837,-0.2193,-0.2259,-0.2215,-0.1935,-0.2328,-0.2524,-0.1957,-0.2372,-0.2507,-0.1872,-0.1982,-0.2219,-0.2502,-0.2285,-0.2128,-0.2132,-0.1924,-0.1502,-0.0781,-0.1185,-0.058,0.1368,0.1686,0.1801,0.1801,0.0849,0.0223,-0.0,-0.0,0.0245,0.0738,0.0961,0.1027,0.0983,0.1547,0.1924,0.0,0.0,0.2302,0.2632,0.2967,0.3231,0.3452,0.3728,0.3832,0.3772,0.3347,0.3127,0.3066,0.2981,0.3127,0.3372,0.3205,0.3269,0.3406,0.3212,0.3276,0.3409,0.3242,0.3208,0.3239,0.3406,0.3437,0.3471,0.0,0.0,0.0,0.4641,0.4721,0.4892,0.5696,0.6412,0.6889,0.6997,0.7536,0.816,0.885,1.0136,1.114,1.1557,1.1715,1.1566,1.1065,1.1015,1.1015,1.1015,1.0364,1.0012,1.0012,0.9465,0.9159,0.9159,0.9061,0.9071,0.9309,0.9267,0.9359,0.9599,0.9659,0.9806,1.0033,1.0094,1.0247,1.0481,1.0598,1.0624,1.0624,1.0624,1.0421,1.0085,0.967,0.9934,1.0233,0.8826,0.9113,1.0317,-0.2193,-0.2437,-0.2546,-0.2215,-0.2459,-0.2567,-0.2215,-0.2572,-0.2626,-0.1905,-0.182,-0.1857,-0.1891,-0.1869,-0.185,-0.1839,-0.182,-0.1321,-0.0178,-0.0157,-0.009,0.0202,0.1234,0.1804,0.1792,0.1667,0.1076,-0.0,-0.0,0.0045,0.0135,0.1188,0.1139,0.0178,0.1296,0.0,0.0,0.0,0.2008,0.2269,0.2304,0.2666,0.3154,0.3187,0.3212,0.3173,0.2859,0.2822,0.2951,0.3059,0.3169,0.3303,0.3286,0.3429,0.3524,0.3326,0.3432,0.3551,0.3534,0.3527,0.3534,0.3551,0.3598,0.3602,0.3578,0.0,0.3633,0.3757,0.0,0.3787,0.3902,0.0,0.0,0.5536,0.5888,0.6217,0.6319,0.7361,0.8808,1.0704,1.1466,1.1765,1.1715,1.1665,1.1665,1.1665,1.1065,1.0669,1.0669,1.061,1.0559,1.0559,1.0012,0.9681,0.9717,0.937,0.9203,0.9236,0.9559,0.9699,0.974,1.0,1.0134,1.018,1.0448,1.0624,1.0624,1.0624,0.9679,0.842,0.9906,0.9602,0.8322,0.8127,0.7199,0.6308,-0.2193,-0.2302,-0.2367,-0.2215,-0.2481,-0.2654,-0.2502,-0.2659,-0.2594,-0.2096,-0.2206,-0.2245,-0.2044,-0.204,-0.1978,0.0,-0.1794,-0.1433,-0.0579,-0.0513,-0.0514,-0.0514,0.0067,0.0692,0.1257,0.1277,0.0851,-0.0,-0.0,0.0359,0.1031,0.0852,0.0851,0.105,0.1208,0.0,0.1964,0.0,0.1906,0.208,0.208,0.2244,0.2499,0.277,0.2872,0.2851,0.2725,0.2778,0.2903,0.2876,0.308,0.3334,0.3206,0.3385,0.3568,0.35,0.3527,0.3581,0.3581,0.3581,0.3581,0.3581,0.3581,0.3581,0.3581,0.3581,0.3602,0.3687,0.0,0.0,0.0,0.0,0.0,0.0,0.3585,0.4126,0.484,0.5645,0.7121,0.9855,1.041,1.0923,1.1706,1.2187,1.2452,1.2452,1.1774,1.1366,1.1366,1.1015,1.0813,1.0813,1.0517,1.021,0.9814,0.964,0.9347,0.8991,0.9118,0.9265,0.9432,0.9552,0.9699,0.988,0.9665,0.9532,0.9612,1.0321,0.9572,0.7991,0.7713,0.7733,0.7962,0.7437,0.6907,0.6392,-0.2346,-0.2346,-0.2367,-0.2433,-0.2654,-0.2875,-0.3052,-0.2971,-0.2837,-0.2719,-0.2912,-0.2864,-0.2363,-0.2237,-0.2088,-0.1825,-0.1791,-0.1616,-0.1185,-0.0983,-0.0983,-0.1139,-0.1005,-0.0579,0.0133,0.0491,0.0447,-0.0,-0.0,0.0449,0.1301,0.074,0.0964,0.1775,0.123,0.1402,0.2079,0.0,0.1957,0.2133,0.2133,0.2234,0.2386,0.2572,0.2678,0.2712,0.2712,0.2754,0.2842,0.2812,0.3018,0.3324,0.3256,0.3398,0.3581,0.3581,0.3581,0.3581,0.3581,0.3581,0.3581,0.3581,0.3581,0.3581,0.3581,0.3609,0.3656,0.3721,0.3717,0.0,0.0,0.0,0.302,0.1987,0.0,0.3195,0.3979,0.4519,0.5893,0.8735,0.949,1.0222,1.1408,1.199,1.2412,1.2559,1.208,1.1873,1.208,1.1633,1.1384,1.1384,1.1166,1.0864,1.0364,0.9961,0.9562,0.9061,0.891,0.8918,0.907,0.915,0.9359,0.9522,0.901,0.8598,0.841,0.9283,0.8742,0.7149,0.5921,0.6205,0.7246,0.685,0.6662,0.6544,-0.2676,-0.2676,0.0,-0.3025,-0.3089,-0.3315,-0.3963,-0.3668,-0.3515,-0.3906,-0.3954,-0.3612,-0.2693,-0.2358,-0.2088,-0.1825,-0.1791,-0.1798,-0.1775,-0.123,-0.1163,-0.1753,-0.1775,-0.1753,-0.1708,-0.056,0.0022,-0.0,-0.0,0.0022,0.009,0.121,0.1753,0.1775,0.1366,0.1521,0.2086,0.2029,0.2171,0.2499,0.2499,0.2804,0.3216,0.2692,0.2585,0.2712,0.2712,0.2716,0.273,0.3012,0.3113,0.3178,0.3473,0.3571,0.3581,0.3581,0.3581,0.3581,0.3581,0.3581,0.3581,0.3581,0.3581,0.3581,0.3581,0.3687,0.3748,0.3612,0.3809,0.3968,0.3996,0.3286,0.2522,0.1908,0.314,0.0,0.0,0.3983,0.4919,0.7306,0.8899,1.0064,1.0762,1.0864,1.1116,1.1765,1.1814,1.2129,1.2832,1.2822,1.2832,1.2832,1.2138,1.1765,1.1765,1.0466,0.9762,0.9762,0.9106,0.8811,0.8831,0.9057,0.919,0.921,0.8798,0.8045,0.7144,0.7202,0.6506,0.5491,0.5422,0.5453,0.5557,0.6396,0.6203,0.5428,0.0,0.0,0.0,0.0,0.0,-0.3296,-0.3888,-0.3989,-0.4042,-0.4179,-0.4208,-0.3874,-0.3012,-0.2687,-0.2328,-0.1847,-0.1879,-0.1961,-0.1988,-0.1766,-0.1769,-0.205,-0.1901,-0.1798,-0.1798,-0.1391,-0.0808,-0.0,-0.0,-0.0,-0.0,0.0426,0.1031,0.1798,0.1661,0.1861,0.0,0.0,0.0,0.2513,0.2785,0.3233,0.3719,0.3227,0.3046,0.3101,0.3101,0.294,0.271,0.2913,0.3042,0.3158,0.3406,0.3543,0.3581,0.3581,0.3581,0.3581,0.3581,0.3581,0.3581,0.3581,0.3581,0.3581,0.3592,0.3749,0.3858,0.3798,0.391,0.4028,0.4135,0.3889,0.3587,0.331,0.3662,0.3931,0.0,0.4516,0.5396,0.6229,0.8219,0.9485,0.9298,1.0205,1.0914,1.1116,1.1566,1.1922,1.2187,1.3016,1.3334,1.2929,1.3074,1.2696,1.1814,1.0914,1.0269,0.9814,0.9106,0.8804,0.8811,0.8911,0.8676,0.8196,0.7666,0.6987,0.6234,0.6022,0.5721,0.5392,0.5432,0.5415,0.5428,0.5752,0.562,0.5428,-0.3202,-0.3245,-0.3245,-0.3245,-0.3323,-0.3563,-0.4103,-0.4523,-0.4762,-0.4641,-0.4748,-0.4438,-0.3422,-0.3039,-0.2589,-0.1931,-0.1954,-0.1991,-0.1988,-0.2006,-0.2049,-0.205,-0.1879,-0.1806,-0.1801,-0.1368,-0.0785,-0.0,-0.0,-0.0,-0.0,0.0448,0.094,0.148,0.1705,0.2081,0.2562,0.2393,0.2593,0.306,0.3313,0.3646,0.3956,0.3658,0.3458,0.3294,0.313,0.2907,0.2713,0.2917,0.3046,0.3158,0.3409,0.3543,0.3581,0.3581,0.3581,0.3581,0.3581,0.3581,0.3581,0.3581,0.3581,0.3534,0.3223,0.3514,0.3872,0.382,0.3955,0.4069,0.4136,0.4165,0.4161,0.4066,0.3945,0.3797,0.0,0.4544,0.5155,0.4979,0.7097,0.0,0.831,0.9025,0.9692,1.0274,1.0723,1.1178,1.1756,1.2599,1.3016,1.2881,1.3286,1.2957,1.1814,1.1166,1.0466,0.9814,0.9106,0.8646,0.8427,0.8427,0.7996,0.73,0.6673,0.6158,0.5793,0.5317,0.5199,0.5203,0.5288,0.5281,0.5287,0.5342,0.5428,0.5428,-0.3442,-0.354,-0.3568,-0.3583,-0.38,-0.413,-0.4693,-0.5301,-0.5599,-0.5285,-0.5568,-0.5273,-0.3864,-0.3367,-0.2802,-0.2061,-0.2025,-0.1974,-0.1842,-0.2015,-0.2041,-0.1858,-0.1805,-0.1781,-0.1712,-0.0584,-0.0,-0.0,-0.0,0.0022,0.0112,0.1257,0.1502,0.0961,0.1547,0.2199,0.2887,0.2887,0.3316,0.3993,0.3993,0.3993,0.3993,0.3961,0.3691,0.3261,0.2874,0.2712,0.2727,0.3018,0.3082,0.3174,0.3483,0.3581,0.3581,0.3581,0.3581,0.3581,0.3581,0.3581,0.3581,0.3581,0.3578,0.335,0.263,0.3175,0.3748,0.3651,0.3882,0.4043,0.3921,0.3997,0.411,0.4157,0.3962,0.3754,0.3612,0.402,0.4192,0.3677,0.5604,0.0,0.0,0.7344,0.765,0.9158,0.9294,1.0016,1.1539,1.1706,1.208,1.2822,1.2822,1.2501,1.1814,1.1116,1.0415,0.9814,0.9106,0.8374,0.7723,0.767,0.7235,0.6534,0.5814,0.5592,0.5702,0.4973,0.4775,0.4921,0.5064,0.5125,0.5148,0.5304,0.5428,0.5428,-0.3485,-0.3937,-0.4463,-0.4915,-0.4703,-0.4818,-0.5755,-0.594,-0.5979,-0.5955,-0.5862,-0.5332,-0.4125,-0.3558,-0.2911,-0.2068,-0.2239,-0.2327,-0.2239,-0.2309,-0.2359,-0.2477,-0.2043,-0.1391,-0.0471,-0.0157,-0.0,-0.0,-0.0,0.0448,0.1346,0.1664,0.1708,0.1569,0.1731,0.2199,0.2887,0.2887,0.3316,0.3993,0.3993,0.3993,0.3961,0.3626,0.3392,0.329,0.3196,0.294,0.2727,0.3018,0.3082,0.3174,0.3483,0.3581,0.3581,0.3581,0.3581,0.3581,0.3581,0.3581,0.3581,0.3581,0.317,0.2812,0.3191,0.3622,0.3886,0.3638,0.3104,0.2654,0.2407,0.254,0.3025,0.3915,0.3827,0.3636,0.3591,0.3741,0.3773,0.3595,0.487,0.5733,0.5661,0.6216,0.675,0.716,0.7729,0.8482,0.9445,1.0428,1.1297,1.208,1.2052,1.1944,1.1814,1.0669,0.9961,0.9762,0.8567,0.7883,0.767,0.7128,0.6475,0.576,0.5597,0.5242,0.4804,0.4758,0.4714,0.4765,0.4914,0.5036,0.5148,0.5304,0.5428,0.5428,-0.4075,-0.4876,-0.5633,-0.6165,-0.6017,-0.6012,-0.652,-0.6396,-0.6139,-0.5884,-0.5851,-0.5338,-0.3985,-0.3651,-0.3166,-0.2293,-0.2361,-0.2405,-0.2319,-0.2438,-0.223,-0.1555,-0.1191,-0.0691,-0.0024,-0.0,-0.0,-0.0,-0.0,0.0628,0.1798,0.1798,0.1798,0.1798,0.1794,0.2311,0.3195,0.3711,0.4052,0.4166,0.4036,0.4009,0.0,0.3714,0.3377,0.3043,0.3043,0.2878,0.2727,0.3018,0.3082,0.3174,0.3483,0.3581,0.3581,0.3581,0.3581,0.3581,0.3581,0.3581,0.3581,0.3581,0.3262,0.3037,0.3509,0.3712,0.3767,0.3622,0.3173,0.2447,0.1231,0.1141,0.1616,0.2864,0.2914,0.2837,0.2823,0.28,0.2825,0.282,0.3361,0.3722,0.3537,0.4538,0.5325,0.5751,0.6293,0.7019,0.8056,0.8913,0.9804,1.0872,1.0856,1.0705,1.0426,0.9673,0.9013,0.8383,0.7605,0.7069,0.674,0.6308,0.571,0.5058,0.5058,0.4842,0.4532,0.4562,0.4602,0.4623,0.4713,0.4925,0.5266,0.5356,0.538,0.5428,-0.4833,-0.5866,-0.6731,-0.713,-0.7247,-0.722,-0.7108,-0.673,-0.6238,-0.5634,-0.5748,-0.5304,-0.3782,-0.3735,-0.3475,-0.2573,-0.2449,-0.2351,-0.2087,-0.237,-0.1772,-0.0086,-0.0,-0.0,-0.0,-0.0,-0.0,-0.0,-0.0,0.0544,0.1569,0.1731,0.1798,0.1798,0.0,0.0,0.0,0.4392,0.449,0.3891,0.3667,0.3578,0.3596,0.3596,0.3162,0.2529,0.2653,0.272,0.2754,0.3029,0.3134,0.3202,0.349,0.3581,0.3581,0.3581,0.3581,0.3581,0.3581,0.3581,0.3581,0.3581,0.3581,0.3585,0.3595,0.3592,0.3491,0.3207,0.3112,0.2483,0.0361,-0.0,0.0342,0.1369,0.1581,0.1559,0.1541,0.1586,0.0,0.0,0.1814,0.0,0.1808,0.2755,0.3705,0.4495,0.4922,0.5651,0.6952,0.7177,0.7927,0.9364,0.932,0.9068,0.8574,0.8528,0.7906,0.6701,0.6652,0.6268,0.5664,0.5441,0.5062,0.4522,0.4522,0.4473,0.448,0.4307,0.4203,0.4225,0.4192,0.4502,0.5006,0.5021,0.5077,0.5107,-0.4957,-0.5917,-0.6795,-0.7127,-0.7173,-0.7244,-0.7545,-0.7094,-0.6634,-0.6349,-0.6087,-0.547,-0.4358,-0.4085,-0.3574,-0.2584,-0.2603,-0.2303,-0.1497,-0.1526,-0.1073,-0.003,-0.0,-0.0,-0.0,-0.0,-0.0,-0.0,-0.0,0.012,0.0334,0.1343,0.1798,0.1798,0.0,0.0,0.1879,0.2246,0.1963,0.1278,0.128,0.1356,0.1436,0.1436,0.1471,0.165,0.2408,0.2769,0.2896,0.3063,0.3205,0.3385,0.3567,0.3581,0.3581,0.3581,0.3581,0.3581,0.3581,0.3581,0.3581,0.3581,0.3581,0.3585,0.3595,0.3602,0.3024,0.1042,0.065,0.0523,0.0097,-0.0,0.0053,0.0274,0.033,0.0323,0.0303,0.0308,0.0663,0.0,0.1808,0.1811,0.1798,0.1989,0.2192,0.2369,0.3489,0.4383,0.4984,0.5449,0.642,0.7905,0.741,0.7362,0.7764,0.7676,0.7495,0.7231,0.6822,0.6559,0.6389,0.5211,0.4598,0.449,0.449,0.449,0.4379,0.3128,0.2623,0.2577,0.2605,0.265,0.2791,0.3066,0.3173,0.3395,-0.6083,-0.6928,0.0,-0.7196,-0.7262,-0.7297,-0.7109,-0.6655,-0.6149,-0.5679,-0.54,-0.4814,-0.3734,-0.3622,-0.3362,-0.2673,-0.2678,-0.252,-0.2047,-0.1139,-0.0431,-0.0032,-0.0,-0.0,-0.0,-0.0,-0.0,-0.0,-0.0,-0.0,0.0022,0.0914,0.1343,0.1301,0.0,0.0394,0.0116,0.0313,0.0163,-0.023,-0.0822,-0.1027,-0.0871,0.0067,0.0785,0.1408,0.2355,0.2416,0.2165,0.2866,0.3218,0.3385,0.3534,0.3581,0.3581,0.3581,0.3581,0.3581,0.3581,0.3581,0.3581,0.3581,0.3581,0.3585,0.3602,0.3612,0.3248,0.2113,0.0868,-0.0,-0.0,-0.0,-0.0,-0.0,-0.0,-0.0,-0.0,-0.0,0.0198,0.0793,0.0,0.0,0.0882,0.2014,0.2457,0.1845,0.2435,0.3224,0.4212,0.4558,0.5303,0.6489,0.6312,0.6376,0.674,0.6905,0.6192,0.4718,0.446,0.4301,0.4301,0.3635,0.3302,0.3302,0.3302,0.3758,0.4333,0.2014,0.1062,0.1064,0.1081,0.1547,0.2246,0.256,0.2709,0.2974,-0.6887,-0.7583,-0.7898,-0.7109,-0.7141,-0.7082,-0.651,-0.6037,-0.5548,-0.4959,-0.4815,-0.4311,-0.3107,-0.327,-0.3233,-0.2746,-0.269,-0.2693,-0.2696,-0.1174,-0.0201,-0.0,-0.0,-0.0,-0.0,-0.0,-0.0,-0.0,-0.0,-0.0,-0.0,0.0304,0.0423,0.0401,-0.037,-0.0946,-0.1304,-0.1396,-0.1371,-0.1356,-0.2329,-0.2686,-0.2542,-0.1125,0.0105,0.1135,0.1875,0.1782,0.143,0.2387,0.2819,0.3043,0.3453,0.3581,0.3581,0.3581,0.3581,0.3581,0.3581,0.3581,0.3581,0.3581,0.3486,0.3357,0.3328,0.3286,0.3289,0.3567,0.1663,-0.0,-0.0,-0.0,-0.0,-0.0,-0.0,-0.0,-0.0,-0.0,-0.0,-0.0,0.0,-0.0,-0.0,0.2179,0.3219,0.2241,0.2163,0.2728,0.3963,0.4134,0.4488,0.5269,0.5517,0.5289,0.4663,0.5018,0.4015,0.1726,0.1392,0.128,0.128,0.128,0.1448,0.1729,0.1729,0.2406,0.3373,0.0953,-0.0,-0.0,-0.0,0.0729,0.1746,0.2025,0.2101,0.2349,-0.6235,-0.6644,-0.694,-0.6601,-0.6388,-0.6213,-0.6152,-0.5703,-0.532,-0.5173,-0.5192,-0.472,-0.3395,-0.3681,-0.3597,-0.2779,-0.2716,-0.2686,-0.2696,-0.1744,-0.0838,-0.0034,-0.0,-0.0,-0.0,-0.0,-0.0,-0.0,-0.0,-0.0,-0.0025,-0.0751,-0.1103,-0.1101,-0.1137,-0.1294,-0.1651,-0.2762,-0.297,-0.2543,-0.2656,-0.2696,-0.268,-0.2502,-0.1381,0.0148,0.0202,0.0711,0.1315,0.1413,0.1693,0.2131,0.3262,0.3581,0.3581,0.3581,0.3581,0.3581,0.3581,0.3581,0.3581,0.3581,0.3034,0.2492,0.2495,0.223,0.2284,0.3382,0.1663,-0.0,-0.0,-0.0,-0.0,-0.0,-0.0,-0.0,-0.0,-0.0,-0.0,-0.0,-0.0,0.0,-0.0,0.2172,0.3546,0.3417,0.3417,0.3635,0.4175,0.4089,0.4175,0.4577,0.4643,0.334,0.0553,0.0611,0.05,0.0166,-0.1167,-0.1783,-0.1783,-0.1783,-0.1059,0.0223,0.0223,0.028,0.0392,0.0112,-0.0,-0.0,-0.0,0.0112,0.0224,0.0225,0.0225,0.0283,-0.6579,-0.6639,-0.657,-0.6305,-0.5913,-0.5617,-0.5617,-0.5435,-0.5112,-0.4558,-0.45,-0.4113,-0.3068,-0.3105,-0.3076,-0.2746,-0.2712,-0.2686,-0.2696,-0.1811,-0.0904,-0.0034,-0.0,-0.0,-0.0,-0.0,-0.0,-0.0,-0.0,-0.056,-0.1632,-0.1983,-0.2132,-0.2142,-0.2452,-0.2647,-0.278,-0.3505,-0.3504,-0.3076,-0.3163,-0.2644,-0.1915,-0.2477,-0.1593,-0.0,-0.0,0.0214,0.0527,0.0536,0.0627,0.0804,0.1294,0.2413,0.3588,0.3581,0.3581,0.3581,0.3581,0.3581,0.3581,0.3581,0.335,0.3126,0.3132,0.3001,0.3004,0.3503,0.2237,0.0855,0.0138,-0.0,-0.0,-0.0,-0.0,-0.0,-0.0,-0.0,-0.0,-0.0,-0.0,-0.0,-0.0,0.0853,0.2022,0.3471,0.3598,0.3721,0.4062,0.3979,0.3688,0.3161,0.228,0.0941,-0.0826,-0.2055,-0.2728,-0.2713,-0.3292,-0.3583,-0.3583,-0.3583,-0.2291,-0.0,-0.0,-0.0,-0.0,-0.0,-0.0,-0.0,-0.0,-0.0,-0.0,-0.0,-0.0,-0.0,-0.6397,-0.6275,-0.6098,-0.5882,-0.5554,-0.5246,-0.5049,-0.5081,-0.4794,-0.3923,-0.3793,-0.3532,-0.2779,-0.2808,-0.2845,-0.2716,-0.2712,-0.2686,-0.2696,-0.2083,-0.1206,-0.0034,-0.0,-0.0,-0.0,-0.0,-0.0,-0.0,-0.0,-0.0645,-0.192,-0.2445,-0.2705,-0.2729,-0.3091,-0.3253,-0.3286,-0.367,-0.3584,-0.3124,-0.3237,-0.264,-0.172,-0.1849,-0.1104,-0.0,-0.0,-0.0,-0.0,-0.0,-0.0,-0.0,-0.0,0.1163,0.2598,0.2951,0.3312,0.3585,0.3585,0.3585,0.3581,0.3581,0.3581,0.3581,0.3592,0.3592,0.3592,0.3581,0.2366,0.1028,0.0179,-0.0,-0.0,-0.0,-0.0,-0.0,-0.0,-0.0,-0.0,-0.0,-0.0,-0.0,-0.0,-0.0,0.072,0.2422,0.3209,0.3678,0.3866,0.3368,0.2431,0.0936,-0.0221,-0.16,-0.3128,-0.4615,-0.5191,-0.4772,-0.4802,-0.4702,-0.4487,-0.449,-0.3357,-0.1282,-0.0391,-0.0,-0.0,-0.0,-0.0,-0.0,-0.0,-0.0,-0.0,-0.0,-0.0,-0.0,-0.5309,-0.5309,-0.5309,-0.5309,-0.5316,-0.5112,-0.4488,-0.4526,-0.4307,-0.3421,-0.329,-0.3163,-0.2746,-0.3068,-0.3134,-0.2746,-0.2712,-0.2686,-0.2696,-0.2696,-0.1883,-0.0067,-0.0,-0.0,-0.0,-0.0,-0.0,-0.0,-0.0,-0.0,-0.0061,-0.1853,-0.2691,-0.2693,-0.2702,-0.2702,-0.2756,-0.3267,-0.319,-0.2697,-0.2695,-0.2712,-0.2489,-0.0702,-0.0,-0.0,-0.0,-0.0,-0.0,-0.0,-0.0,-0.0,-0.0,-0.0,0.0268,0.1472,0.2684,0.3598,0.3598,0.3588,0.3581,0.3581,0.3581,0.3581,0.3581,0.3581,0.3581,0.3581,0.1697,-0.0,-0.0,-0.0,-0.0,-0.0,-0.0,-0.0,-0.0,-0.0,-0.0,-0.0,-0.0,-0.0,-0.0,-0.0,-0.0,0.0047,0.2241,0.3604,0.3583,0.2107,0.0206,-0.209,-0.2587,-0.4297,-0.729,-0.735,-0.6722,-0.5483,-0.5483,-0.5164,-0.4519,-0.4473,-0.448,-0.4252,-0.1282,-0.0,-0.0,-0.0,-0.0,-0.0,-0.0,-0.0,-0.0,-0.0,-0.0,-0.0,-0.5309,-0.5309,-0.5182,-0.475,-0.4686,-0.4558,-0.4178,-0.4151,-0.3988,-0.3392,-0.329,-0.313,-0.2746,-0.2808,-0.2841,-0.2716,-0.2712,-0.2716,-0.2686,-0.2693,-0.2459,-0.1883,-0.0671,-0.0,-0.0,-0.0,-0.0,-0.0,-0.0,-0.0,-0.0,-0.0589,-0.1188,-0.1778,-0.2417,-0.2778,-0.2912,-0.2932,-0.2938,-0.2924,-0.2958,-0.285,-0.2486,-0.069,-0.0,-0.0,-0.0,-0.0,-0.0,-0.0,-0.0,-0.0,-0.0,-0.0,0.009,0.0447,0.0849,0.1341,0.2146,0.2368,0.2591,0.3407,0.3592,0.3592,0.3592,0.3592,0.3595,0.3602,0.2968,0.193,0.0314,-0.0,-0.0,-0.0,-0.0,-0.0,-0.0,0.1437,0.1842,0.018,-0.0,-0.0,-0.0,-0.0,-0.0,-0.0,-0.1203,-0.1106,0.083,0.0416,-0.0846,-0.2909,-0.4255,-0.5814,-0.758,-0.709,-0.6652,-0.6253,-0.576,-0.5164,-0.4519,-0.4522,-0.4477,-0.4435,-0.3471,-0.19,-0.0,-0.0,-0.0,-0.0,-0.0,-0.0,-0.0,-0.0,-0.0,-0.0,-0.4864,-0.4928,-0.4858,-0.4333,-0.4237,-0.414,-0.3788,-0.3723,-0.3593,-0.3134,-0.3068,-0.2973,-0.2712,-0.2712,-0.2712,-0.2712,-0.2712,-0.2712,-0.2712,-0.2686,-0.2693,-0.2696,-0.141,-0.0469,-0.0,-0.0,-0.0,-0.0,-0.0,-0.0,-0.0,-0.0,-0.0285,-0.0854,-0.1425,-0.203,-0.2658,-0.2797,-0.267,-0.2342,-0.2031,-0.2375,-0.2824,-0.0755,-0.0,-0.0,-0.0,-0.0,-0.0,-0.0,-0.0,-0.0,-0.0,-0.0,-0.0,-0.0,-0.0,0.0179,0.0939,0.1117,0.1429,0.2645,0.2915,0.2912,0.2912,0.2912,0.2915,0.2921,0.3289,0.3155,0.1617,0.0629,-0.0,-0.0,-0.0,-0.0,-0.0,0.2068,0.3021,0.153,0.0538,-0.0,-0.0,-0.0,-0.0,-0.0,-0.2799,-0.373,-0.1994,-0.192,-0.2839,-0.4787,-0.5706,-0.6815,-0.8103,-0.767,-0.7128,-0.6588,-0.5601,-0.4893,-0.4519,-0.4519,-0.4473,-0.4487,-0.3866,-0.2912,-0.1625,-0.0449,-0.0,-0.0,-0.0,-0.0,-0.0,-0.0,-0.0,-0.0,-0.4221,-0.4344,-0.4473,-0.4021,-0.3961,-0.3793,-0.3327,-0.3257,-0.313,-0.2746,-0.2712,-0.2712,-0.2712,-0.2712,-0.2712,-0.2712,-0.2712,-0.2712,-0.2712,-0.2712,-0.2686,-0.2696,-0.215,-0.1343,-0.0237,-0.0068,-0.0,-0.0,-0.0,-0.0,-0.0,-0.0,-0.0,-0.0,-0.0156,-0.0899,-0.2006,-0.2812,-0.249,-0.1397,-0.0572,-0.1481,-0.3125,-0.1034,-0.0135,-0.0,-0.0,-0.0,-0.0,-0.0,-0.0,-0.0,-0.0,-0.0,-0.0,-0.0,-0.0,-0.0,-0.0,-0.0,0.0268,0.139,0.1655,0.1697,0.1697,0.1697,0.1697,0.1697,0.2558,0.334,0.334,0.1528,-0.0,-0.0,-0.0,0.0045,0.0226,0.2031,0.3401,0.3584,0.1617,0.0134,-0.0225,-0.0281,-0.0243,-0.015,-0.2814,-0.4502,-0.4457,-0.4492,-0.5337,-0.7285,-0.6874,-0.7289,-0.8699,-0.8699,-0.799,-0.6534,-0.5171,-0.4519,-0.4519,-0.4519,-0.4525,-0.4425,-0.2959,-0.3079,-0.3943,-0.1177,-0.0,-0.0,-0.0,-0.0,-0.0,-0.0,-0.0,-0.0,-0.457,-0.4538,-0.4371,-0.3588,-0.3458,-0.3331,-0.2907,-0.2841,-0.2808,-0.2716,-0.2712,-0.2712,-0.2712,-0.2712,-0.2712,-0.2712,-0.2712,-0.2712,-0.2712,-0.2712,-0.2686,-0.2696,-0.256,-0.2441,-0.2363,-0.0822,-0.0,-0.0,-0.0,-0.0,-0.0,-0.0,-0.0,-0.0078,-0.1923,-0.1919,-0.0618,-0.2636,-0.3315,-0.302,-0.2815,-0.1973,-0.0989,-0.225,-0.1618,-0.0,-0.0,-0.0,-0.0,-0.0,-0.0,-0.0,-0.0,-0.0,-0.0,-0.0,-0.0,-0.0,-0.0,-0.0,0.009,0.0359,0.0404,0.0448,0.0448,0.0448,0.0448,0.0448,0.0674,0.0854,0.0854,0.0404,-0.0,-0.0,-0.0,0.0659,0.2499,0.1645,0.1533,0.3401,0.3111,0.1299,-0.2384,-0.3175,-0.2839,-0.1477,-0.3184,-0.4288,-0.4257,-0.4268,-0.5059,-0.6756,-0.6647,-0.702,-0.7937,-0.7943,-0.723,-0.576,-0.4897,-0.4519,-0.4519,-0.4525,-0.448,-0.4494,-0.4104,-0.286,-0.1009,-0.028,-0.0,-0.0,-0.0,-0.0,-0.0,-0.0,-0.0,-0.0,-0.414,-0.4011,-0.3816,-0.3134,-0.3163,-0.3163,-0.2746,-0.2841,-0.2907,-0.2712,-0.2712,-0.2712,-0.2712,-0.2712,-0.2712,-0.2712,-0.2712,-0.2712,-0.2712,-0.2712,-0.2683,-0.269,-0.2757,-0.287,-0.3065,-0.2048,-0.1029,-0.0,-0.0,-0.0,-0.0,-0.0,-0.0586,-0.1717,-0.3025,-0.289,-0.1728,-0.3034,-0.3618,-0.3615,-0.3609,-0.2834,-0.1798,-0.3111,-0.2426,-0.0761,-0.0179,-0.0,-0.0,-0.0,-0.0,-0.0,-0.0,-0.0,-0.0,-0.0,-0.0,-0.0,-0.0,-0.0,-0.0,-0.0,-0.0,-0.0,-0.0,-0.0,-0.0,-0.0,-0.0,-0.0,-0.0,-0.0,-0.0,-0.0,-0.0,0.0478,0.1767,0.1786,0.1332,0.0404,0.1297,0.0714,-0.2467,-0.3576,-0.3739,-0.2868,-0.3584,-0.4103,-0.4196,-0.4209,-0.4786,-0.6086,-0.6091,-0.6475,-0.7182,-0.6853,-0.6303,-0.5487,-0.4842,-0.4522,-0.4525,-0.4477,-0.4487,-0.4504,-0.4511,-0.2809,-0.0,-0.0,-0.0,-0.0,-0.0,-0.0,-0.0,-0.0,-0.0,-0.0,-0.3486,-0.329,-0.3163,-0.2779,-0.3035,-0.3196,-0.2841,-0.3068,-0.3175,-0.2877,-0.276,-0.2723,-0.2713,-0.273,-0.2712,-0.2712,-0.2712,-0.2712,-0.2712,-0.2712,-0.2726,-0.2713,-0.2842,-0.293,-0.3051,-0.3247,-0.2439,-0.0558,-0.0373,-0.0254,-0.0255,-0.0265,-0.1346,-0.3334,-0.3516,-0.3605,-0.3598,-0.3595,-0.3509,-0.3334,-0.3519,-0.3475,-0.3334,-0.3519,-0.2965,-0.1921,-0.0895,-0.0313,-0.0,-0.0,-0.0,-0.0,-0.0,-0.0,-0.0,-0.0,-0.0,-0.0,-0.0,-0.0,-0.0,-0.0,-0.0,-0.0,-0.0,-0.0,-0.0,-0.0,-0.0,-0.0,-0.0,-0.0,-0.0,-0.0,-0.0,-0.0,-0.0,0.1436,0.1126,-0.2608,-0.1563,-0.0936,-0.1964,-0.3023,-0.3718,-0.3936,-0.3921,-0.3953,-0.4133,-0.4133,-0.4501,-0.5238,-0.5404,-0.5819,-0.6421,-0.5706,-0.5324,-0.5328,-0.4791,-0.4525,-0.4484,-0.4484,-0.4494,-0.4458,-0.3999,-0.2357,-0.0,-0.0,-0.0,-0.0,-0.0,-0.0,-0.0,-0.0,-0.0,-0.0,-0.3486,-0.329,-0.3163,-0.2779,-0.3035,-0.3294,-0.3229,-0.3257,-0.3349,-0.3442,-0.303,-0.273,-0.2859,-0.2757,-0.2712,-0.2712,-0.2712,-0.2712,-0.2712,-0.2712,-0.274,-0.2869,-0.2896,-0.3025,-0.3236,-0.3432,-0.3383,-0.3034,-0.2029,-0.1502,-0.1504,-0.1514,-0.1743,-0.2146,-0.3135,-0.3592,-0.3598,-0.3588,-0.2996,-0.2146,-0.3188,-0.3007,-0.2192,-0.3233,-0.3462,-0.328,-0.3108,-0.1748,-0.0,-0.0,-0.0,-0.0,-0.0,-0.0,-0.0,-0.0,-0.0,-0.0,-0.0,-0.0,-0.0,-0.0,-0.0,-0.0,-0.0,-0.0,-0.0,-0.0,-0.0,-0.0,-0.0,-0.0,-0.0,-0.0,-0.0,-0.0,-0.0,-0.1422,-0.2003,-0.0716,-0.201,-0.3138,-0.3309,-0.3625,-0.3804,-0.3674,-0.3748,-0.3839,-0.3863,-0.3863,-0.3979,-0.4231,-0.5063,-0.5542,-0.5651,-0.5003,-0.4629,-0.4639,-0.4532,-0.4484,-0.4494,-0.4504,-0.4511,-0.4343,-0.1794,-0.0449,-0.0,-0.0,-0.0,-0.0,-0.0,-0.0,-0.0,-0.0,-0.0,-0.0,-0.4075,-0.3686,-0.3397,-0.3401,-0.3401,-0.3392,-0.3323,-0.3575,-0.3607,-0.3159,-0.3004,-0.2913,-0.291,-0.2913,-0.2917,-0.2917,-0.2917,-0.2886,-0.2808,-0.2727,-0.2751,-0.2903,-0.2985,-0.3164,-0.3466,-0.3544,-0.3585,-0.3588,-0.304,-0.2771,-0.2776,-0.2776,-0.2773,-0.2812,-0.3353,-0.3585,-0.3588,-0.3581,-0.2904,-0.1919,-0.3096,-0.3274,-0.2815,-0.3404,-0.3588,-0.3588,-0.3602,-0.2467,-0.0848,-0.0224,-0.0,-0.0,-0.0,-0.0,-0.0,-0.0,-0.0,-0.0,-0.0,-0.0,-0.0,-0.0,-0.0,-0.0,-0.0,-0.0,-0.0,-0.0,-0.0,-0.0,-0.0,-0.0,-0.0,-0.0,-0.0,-0.0449,-0.1773,-0.2913,-0.3172,-0.2055,-0.2907,-0.3585,-0.3581,-0.3688,-0.3701,-0.3585,-0.3639,-0.376,-0.3846,-0.3849,-0.3921,-0.3983,-0.4547,-0.4865,-0.4956,-0.4636,-0.4477,-0.4487,-0.3633,-0.3697,-0.4504,-0.4511,-0.3602,-0.202,-0.0617,-0.0,-0.0,-0.0,-0.0,-0.0,-0.0,-0.0,-0.0,-0.0,-0.0,-0.0,-0.4473,-0.4016,-0.3695,-0.3961,-0.3858,-0.3691,-0.349,-0.3996,-0.4058,-0.3067,-0.3162,-0.3246,-0.3018,-0.3038,-0.3082,-0.3082,-0.3082,-0.3076,-0.2964,-0.2849,-0.2835,-0.2954,-0.313,-0.3337,-0.3575,-0.3581,-0.3581,-0.3581,-0.3581,-0.3585,-0.3595,-0.3595,-0.3588,-0.3581,-0.3581,-0.3581,-0.3581,-0.3581,-0.3084,-0.2277,-0.3226,-0.3588,-0.3581,-0.3581,-0.3581,-0.3581,-0.3595,-0.2821,-0.1607,-0.0403,-0.0,-0.0,-0.0,-0.0,-0.0,-0.0,-0.0,-0.0,-0.0,-0.0,-0.0,-0.0,-0.0,-0.0,-0.0,-0.0,-0.0,-0.0,-0.0,-0.0,-0.0,-0.0,-0.0,-0.0,-0.0,-0.0837,-0.3281,-0.3595,-0.3609,-0.3588,-0.3585,-0.3585,-0.3585,-0.3585,-0.3585,-0.3585,-0.3585,-0.3681,-0.3801,-0.3569,-0.3443,-0.3488,-0.3974,-0.4333,-0.4484,-0.4149,-0.4171,-0.4501,-0.3304,-0.297,-0.3431,-0.3431,-0.2188,-0.0,-0.0,-0.0,-0.0,-0.0,-0.0,-0.0,-0.0,-0.0,-0.0,-0.0,-0.0,-0.0,-0.4118,-0.3993,-0.3961,-0.3993,-0.428,-0.4403,-0.3988,-0.4548,-0.4708,-0.3834,-0.3834,-0.3754,-0.33,-0.3159,-0.3082,-0.3082,-0.3082,-0.3113,-0.3068,-0.3093,-0.3093,-0.3065,-0.3388,-0.3558,-0.3581,-0.3581,-0.3581,-0.3581,-0.3581,-0.3581,-0.3581,-0.3581,-0.3581,-0.3581,-0.3581,-0.3581,-0.3581,-0.3581,-0.3534,-0.349,-0.3581,-0.3581,-0.3581,-0.3581,-0.3581,-0.3581,-0.3595,-0.2821,-0.1607,-0.0403,-0.0,-0.0,-0.0,-0.0,-0.0,-0.0,-0.0,-0.0,-0.0,-0.0,-0.0,-0.0,-0.0,-0.0,-0.0,-0.0,-0.0,-0.0,-0.0,-0.0,-0.0,-0.0,-0.0,-0.0,-0.0,-0.0851,-0.3236,-0.3622,-0.3609,-0.3598,-0.3595,-0.3595,-0.3595,-0.3595,-0.3595,-0.3595,-0.3595,-0.3602,-0.3612,-0.2561,-0.1965,-0.1952,-0.3584,-0.4507,-0.4499,-0.3091,-0.3091,-0.4511,-0.4396,-0.2921,-0.0336,-0.0336,-0.0224,-0.0,-0.0,-0.0,-0.0,-0.0,-0.0,-0.0,-0.0,-0.0,-0.0,-0.0,-0.0,-0.0,-0.4826,-0.4794,-0.4849,-0.5013,-0.5255,-0.5302,-0.4986,-0.5222,-0.5246,-0.4585,-0.4689,-0.4582,-0.3926,-0.3871,-0.3772,-0.3447,-0.3405,-0.3364,-0.331,-0.3351,-0.3364,-0.331,-0.3466,-0.3581,-0.3581,-0.3581,-0.3581,-0.3581,-0.3581,-0.3581,-0.3581,-0.3581,-0.3581,-0.3581,-0.3581,-0.3581,-0.3581,-0.3581,-0.3581,-0.3581,-0.3581,-0.3581,-0.3581,-0.3581,-0.3581,-0.3581,-0.3595,-0.3328,-0.2831,-0.2384,-0.225,-0.2113,-0.1343,-0.0582,-0.0,-0.0,-0.0,-0.0,-0.0,-0.0,-0.0,-0.0,-0.0,-0.0,-0.0,-0.0,-0.0,-0.0,-0.0,-0.0,-0.0,-0.0,-0.0,-0.0,-0.0,-0.033,-0.1217,-0.2652,-0.3334,-0.2551,-0.2504,-0.2504,-0.2504,-0.2504,-0.2504,-0.2504,-0.2504,-0.2823,-0.3561,-0.2471,-0.1809,-0.1793,-0.2479,-0.3363,-0.4514,-0.3912,-0.3004,-0.1684,-0.172,-0.1121,-0.0,-0.0,-0.0,-0.0,-0.0,-0.0,-0.0,-0.0,-0.0,-0.0,-0.0,-0.0,-0.0,-0.0,-0.0,-0.0,-0.5309,-0.5309,-0.5376,-0.5544,-0.5711,-0.5718,-0.5414,-0.5728,-0.5726,-0.5043,-0.5323,-0.5338,-0.4601,-0.462,-0.4522,-0.4184,-0.3968,-0.3832,-0.3718,-0.3648,-0.3578,-0.3471,-0.3567,-0.3581,-0.3581,-0.3581,-0.3581,-0.3581,-0.3581,-0.3581,-0.3581,-0.3581,-0.3581,-0.3581,-0.3581,-0.3581,-0.3581,-0.3581,-0.3581,-0.3581,-0.3581,-0.3581,-0.3581,-0.3581,-0.3581,-0.3581,-0.3598,-0.3609,-0.3615,-0.3615,-0.3615,-0.3433,-0.2647,-0.1298,-0.0,-0.0,-0.0,-0.0,-0.0,-0.0,-0.0,-0.0,-0.0,-0.0,-0.0,-0.0,-0.0,-0.0,-0.0,-0.0,-0.0,-0.0,-0.0,-0.0,-0.0,-0.0,-0.0,-0.1435,-0.2429,-0.2375,-0.17,-0.1251,-0.1251,-0.1251,-0.1251,-0.1251,-0.1251,-0.1612,-0.2429,-0.1665,-0.1215,-0.1215,-0.1215,-0.185,-0.3085,-0.3097,-0.2022,-0.0,-0.0,-0.0,-0.0,-0.0,-0.0,-0.0,-0.0,-0.0,-0.0,-0.0,-0.0,-0.0,-0.0,-0.0,-0.0,-0.0,-0.0,-0.0,-0.5309,-0.5309,-0.5309,-0.5322,-0.5524,-0.5581,-0.5166,-0.5957,-0.6224,-0.5252,-0.5758,-0.5964,-0.5346,-0.5303,-0.5303,-0.5303,-0.4735,-0.4387,-0.4387,-0.388,-0.3581,-0.3581,-0.3581,-0.3581,-0.3581,-0.3581,-0.3581,-0.3581,-0.3581,-0.3581,-0.3581,-0.3581,-0.3581,-0.3581,-0.3581,-0.3581,-0.3581,-0.3581,-0.3581,-0.3581,-0.3581,-0.3581,-0.3581,-0.3581,-0.3581,-0.3581,-0.3605,-0.3567,-0.3567,-0.3615,-0.3622,-0.3584,-0.3619,-0.1934,-0.0045,-0.0,-0.0,-0.0,-0.0,-0.0,-0.0,-0.0,-0.0,-0.0,-0.0,-0.0,-0.0,-0.0,-0.0,-0.0,-0.0,-0.0,-0.0,-0.0,-0.0,-0.0,-0.0,-0.0,-0.0899,-0.3296,-0.1437,-0.0,-0.0,-0.0,-0.0,-0.0,-0.0,-0.0,-0.0,-0.0,-0.0,-0.0,-0.0,-0.0,-0.0,-0.0,-0.0,-0.0,-0.0,-0.0,-0.0,-0.0,-0.0,-0.0,-0.0,-0.0,-0.0,-0.0,-0.0,-0.0,-0.0,-0.0,-0.0,-0.0,-0.0,-0.0,-0.5309,-0.5309,-0.5443,-0.586,-0.6001,-0.6122,-0.6409,-0.6699,-0.6691,-0.6209,-0.6505,-0.6439,-0.5674,-0.5429,-0.5303,-0.5303,-0.4399,-0.3836,-0.3836,-0.3711,-0.3581,-0.3581,-0.3581,-0.3581,-0.3581,-0.3581,-0.3581,-0.3581,-0.3581,-0.3581,-0.3581,-0.3581,-0.3581,-0.3581,-0.3581,-0.3581,-0.3581,-0.3581,-0.3581,-0.3581,-0.3581,-0.3581,-0.3581,-0.3581,-0.3262,-0.2719,-0.246,-0.1791,-0.1344,-0.3018,-0.3615,-0.3619,-0.3615,-0.3111,-0.2205,-0.0494,-0.0,-0.0,-0.0,-0.0,-0.0,-0.0,-0.0,-0.0,-0.0,-0.0,-0.0,-0.0,-0.0,-0.0,-0.0,-0.0,-0.0,-0.0,-0.0,-0.0,-0.0,-0.0,-0.0269,-0.0988,-0.0449,-0.0,-0.0,-0.0,-0.0,-0.0,-0.0,-0.0,-0.0,-0.0,-0.0,-0.0,-0.0,-0.0,-0.0,-0.0,-0.0,-0.0,-0.0,-0.0,-0.0,-0.0,-0.0,-0.0,-0.0,-0.0,-0.0,-0.0,-0.0,-0.0,-0.0,-0.0,-0.0,-0.0,-0.0,-0.0,-0.5309,-0.5371,-0.5564,-0.5954,-0.6209,-0.6445,-0.664,-0.6774,-0.6787,-0.6613,-0.674,-0.6581,-0.5949,-0.5741,-0.5567,-0.5308,-0.4443,-0.384,-0.3622,-0.3796,-0.3921,-0.3921,-0.414,-0.4056,-0.3626,-0.3581,-0.3581,-0.3581,-0.3581,-0.3581,-0.3581,-0.3581,-0.3581,-0.3581,-0.3581,-0.3581,-0.3581,-0.3581,-0.3581,-0.3581,-0.3581,-0.3581,-0.3581,-0.3581,-0.3306,-0.2854,-0.2593,-0.2059,-0.1658,-0.3105,-0.3612,-0.343,-0.2476,-0.216,-0.1889,-0.0449,-0.0,-0.0,-0.0,-0.0,-0.0,-0.0,-0.0,-0.0,-0.0,-0.0,-0.0,-0.0,-0.0,-0.0,-0.0,-0.0,-0.0,-0.0,-0.0,-0.0,-0.0,-0.0,-0.0,-0.0,-0.0,-0.0,-0.0,-0.0,-0.0,-0.0,-0.0,-0.0,-0.0,-0.0,-0.0,-0.0,-0.0,-0.0,-0.0,-0.0,-0.0,-0.0,-0.0,-0.0,-0.0,-0.0,-0.0,-0.0,-0.0,-0.0,-0.0,-0.0,-0.0,-0.0,-0.0,-0.0,-0.0,-0.0,-0.0,-0.0,-0.5309,-0.5491,-0.5685,-0.5711,-0.6152,-0.6433,-0.623,-0.6438,-0.658,-0.6553,-0.6554,-0.6478,-0.6168,-0.6081,-0.583,-0.5351,-0.4783,-0.4264,-0.3711,-0.418,-0.4474,-0.4474,-0.4957,-0.4744,-0.3711,-0.3667,-0.3667,-0.3581,-0.3581,-0.3622,-0.3667,-0.3667,-0.3667,-0.3667,-0.3667,-0.3667,-0.3581,-0.3581,-0.3581,-0.3581,-0.3581,-0.3581,-0.3581,-0.3581,-0.3581,-0.3581,-0.3592,-0.3602,-0.3564,-0.3465,-0.3376,-0.2884,-0.0674,-0.0,-0.0,-0.0,-0.0,-0.0,-0.0,-0.0,-0.0,-0.0,-0.0,-0.0,-0.0,-0.0,-0.0,-0.0,-0.0,-0.0,-0.0,-0.0,-0.0,-0.0,-0.0,-0.0,-0.0,-0.0,-0.0,-0.0,-0.0,-0.0,-0.0,-0.0,-0.0,-0.0,-0.0,-0.0,-0.0,-0.0,-0.0,-0.0,-0.0,-0.0,-0.0,-0.0,-0.0,-0.0,-0.0,-0.0,-0.0,-0.0,-0.0,-0.0,-0.0,-0.0,-0.0,-0.0,-0.0,-0.0,-0.0,-0.0,-0.0,-0.0,-0.0,-0.0,-0.5309,-0.5363,-0.5444,-0.5671,-0.5818,-0.5959,-0.6169,-0.6438,-0.6506,-0.6317,-0.6287,-0.6169,-0.5856,-0.5202,-0.4913,-0.5265,-0.5173,-0.487,-0.4264,-0.4783,-0.5087,-0.5087,-0.4783,-0.4478,-0.422,-0.422,-0.4008,-0.3581,-0.3581,-0.3796,-0.422,-0.422,-0.422,-0.422,-0.422,-0.4008,-0.3581,-0.3581,-0.3581,-0.3581,-0.3581,-0.3581,-0.3581,-0.3581,-0.3581,-0.3581,-0.3585,-0.3585,-0.3452,-0.2504,-0.1564,-0.0671,-0.0179,-0.0,-0.0,-0.0,-0.0,-0.0,-0.0,-0.0,-0.0,-0.0,-0.0,-0.0,-0.0,-0.0,-0.0,-0.0,-0.0,-0.0,-0.0,-0.0,-0.0,-0.0,-0.0,-0.0,-0.0,-0.0,-0.0,-0.0,-0.0,-0.0,-0.0,-0.0,-0.0,-0.0,-0.0,-0.0,-0.0,-0.0,-0.0,-0.0,-0.0,-0.0,-0.0,-0.0,-0.0,-0.0,-0.0,-0.0,-0.0,-0.0,-0.0,-0.0,-0.0,-0.0,-0.0,-0.0,-0.0,-0.0,-0.0,-0.0,-0.0,-0.0,-0.0,-0.0,-0.5309,-0.5391,-0.5538,-0.5685,-0.5832,-0.5925,-0.5945,-0.6072,-0.6112,-0.5965,-0.5837,-0.5648,-0.5349,-0.4749,-0.4434,-0.4487,-0.4487,-0.4355,-0.4052,-0.4831,-0.5303,-0.5303,-0.5265,-0.513,-0.4826,-0.4565,-0.4136,-0.3581,-0.3581,-0.388,-0.4387,-0.4387,-0.4387,-0.4387,-0.4387,-0.4092,-0.3581,-0.3581,-0.3581,-0.3581,-0.3581,-0.3581,-0.3581,-0.3581,-0.3581,-0.3581,-0.3581,-0.3581,-0.349,-0.2865,-0.2237,-0.152,-0.0358,-0.0,-0.0,-0.0,-0.0,-0.0,-0.0,-0.0,-0.0,-0.0,-0.0,-0.0,-0.0,-0.0,-0.0,-0.0,-0.0,-0.0,-0.0,-0.0,-0.0,-0.0,-0.0,-0.0,-0.0,-0.0,-0.0,-0.0,-0.0,-0.0,-0.0,-0.0,-0.0,-0.0,-0.0,-0.0,-0.0,-0.0,-0.0,-0.0,-0.0,-0.0,-0.0,-0.0,-0.0,-0.0,-0.0,-0.0,-0.0,-0.0,-0.0,-0.0,-0.0,-0.0,-0.0,-0.0,-0.0,-0.0,-0.0,-0.0,-0.0,-0.0,-0.0,-0.0,-0.5309,-0.5478,-0.5638,-0.5638,-0.588,-0.5961,-0.5678,-0.5678,-0.5711,-0.5711,-0.5468,-0.5242,-0.5035,-0.466,-0.4176,-0.3667,-0.3799,-0.3884,-0.3884,-0.4961,-0.5604,-0.5604,-0.5873,-0.583,-0.5308,-0.4609,-0.4049,-0.3581,-0.3581,-0.388,-0.4387,-0.4387,-0.4387,-0.4387,-0.4387,-0.4092,-0.3581,-0.3581,-0.3581,-0.3581,-0.3581,-0.3581,-0.3581,-0.3581,-0.3581,-0.3581,-0.3581,-0.3581,-0.3581,-0.3592,-0.3595,-0.323,-0.1251,-0.0313,-0.0,-0.0,-0.0,-0.0,-0.0,-0.0,-0.0,-0.0,-0.0,-0.0,-0.0,-0.0,-0.0,-0.0,-0.0,-0.0,-0.0,-0.0,-0.0,-0.0,-0.0,-0.0,-0.0,-0.0,-0.0,-0.0,-0.0,-0.0,-0.0,-0.0,-0.0,-0.0,-0.0,-0.0,-0.0,-0.0,-0.0,-0.0,-0.0,-0.0,-0.0,-0.0,-0.0,-0.0,-0.0,-0.0,-0.0,-0.0,-0.0,-0.0,-0.0,-0.0,-0.0,-0.0,-0.0,-0.0,-0.0,-0.0,-0.0,-0.0,-0.0,-0.0,-0.5309,-0.5342,-0.5369,-0.5369,-0.5403,-0.5416,-0.5344,-0.5551,-0.5711,-0.5711,-0.5468,-0.5395,-0.5562,-0.4876,-0.4176,-0.3667,-0.4487,-0.5091,-0.5091,-0.6118,-0.6768,-0.6768,-0.591,-0.5394,-0.5303,-0.4272,-0.3667,-0.3581,-0.3581,-0.388,-0.4387,-0.4387,-0.4387,-0.4387,-0.4387,-0.4092,-0.3581,-0.3581,-0.3581,-0.3581,-0.3581,-0.3581,-0.3581,-0.3581,-0.3581,-0.3581,-0.3581,-0.3581,-0.3581,-0.3581,-0.3581,-0.3537,-0.3217,-0.1697,-0.0,-0.0,-0.0,-0.0,-0.0,-0.0,-0.0,-0.0,-0.0,-0.0,-0.0,-0.0,-0.0,-0.0,-0.0,-0.0,-0.0,-0.0,-0.0,-0.0,-0.0,-0.0,-0.0,-0.0,-0.0,-0.0,-0.0,-0.0,-0.0,-0.0,-0.0,-0.0,-0.0,-0.0,-0.0,-0.0,-0.0,-0.0,-0.0,-0.0,-0.0,-0.0,-0.0,-0.0,-0.0,-0.0,-0.0,-0.0,-0.0,-0.0,-0.0,-0.0,-0.0,-0.0,-0.0,-0.0,-0.0,-0.0,-0.0,-0.0,-0.0,-0.0,-0.5309,-0.5309,-0.5372,-0.5585,-0.5641,-0.5703,-0.5944,-0.6065,-0.6224,-0.6438,-0.5875,-0.559,-0.6082,-0.5413,-0.4826,-0.4574,-0.5005,-0.5303,-0.5303,-0.6081,-0.6562,-0.6562,-0.5739,-0.5303,-0.5303,-0.4188,-0.3581,-0.3581,-0.3581,-0.388,-0.4387,-0.4387,-0.4387,-0.4387,-0.4387,-0.4092,-0.3581,-0.3581,-0.3581,-0.3581,-0.3581,-0.3581,-0.3581,-0.3581,-0.3581,-0.3581,-0.3581,-0.3581,-0.3581,-0.3581,-0.3581,-0.3581,-0.3581,-0.286,-0.1739,-0.0402,-0.0492,-0.1164,-0.1841,-0.1032,-0.0,-0.0,-0.0,-0.0,-0.0,-0.0,-0.0,-0.0,-0.0,-0.0,-0.0,-0.0,-0.0,-0.0,-0.0,-0.0,-0.0,-0.0,-0.0,-0.0,-0.0,-0.0,-0.0,-0.0,-0.0,-0.0,-0.0,-0.0,-0.0,-0.0,-0.0,-0.0,-0.0,-0.0,-0.0,-0.0,-0.0,-0.0,-0.0,-0.0,-0.0,-0.0,-0.0,-0.0,-0.0,-0.0,-0.0,-0.0,-0.0,-0.0,-0.0,-0.0,-0.0,-0.0,-0.0,-0.0]},{"header":{"parameterUnit":"m.s-1","parameterCategory":1,"la1":30.6,"la2":28.766,"lo1":-90.7593,"lo2":-88.6598,"dy":0.0162,"dx":0.0183,"nx":116,"ny":114,"refTime":"2024-06-25T06:00:00:Z","depth":0,"parameterNumber":3,"parameterNumberName":"V-component_of_WINDS"},"data":[0.0,0.0,0.0,0.0,0.0,0.0,0.0,0.0,0.0,0.0,0.0,0.0,0.0,0.0,0.0,0.0,0.0,0.0,0.0,0.0,0.0,0.0,0.0,0.0,0.0,0.0,0.0,0.0,0.0,0.0,0.0,0.0,0.0,0.0,0.0,0.0,0.0,0.0,0.0,0.0,0.0,0.0,0.0,0.0,0.0,0.0,0.0,0.0,0.0,0.0,0.0,0.0,0.0,0.0,0.0,0.0,0.0,0.0,0.0,0.0,0.0,0.0,0.0,0.0,0.0,0.0,0.0,0.0,0.0,0.0,0.0,0.0,0.0,0.0,0.0,0.0,0.0,0.0,0.0,0.0,0.0,0.0,0.0,0.0,0.0,0.0,0.0,0.0,0.0,0.0,0.0,0.0,0.0,0.0,0.0,0.0,0.0,0.0,0.0,0.0,0.0,0.0,0.0,0.0,0.0,0.0,0.0,0.0,0.0,0.0,0.0,0.0,0.0,0.0,0.0,0.0,0.0,0.0,0.0,0.0,0.0,0.0,0.0,0.0,0.0,0.0,0.0,0.0,0.0,0.0,0.0,0.0,0.0,0.0,0.0,0.0,0.0,0.0,0.0,0.0,0.0,0.0,0.0,0.0,0.0,0.0,0.0,0.0,0.0,0.0,0.0,0.0,0.0,0.0,0.0,0.0,0.0,0.0,0.0,0.0,0.0,0.0,0.0,0.0,0.0,0.0,0.0,0.0,0.0,0.0,0.0,0.0,0.0,0.0,0.0,0.0,0.0,0.0,0.0,0.0,0.0,0.0,0.0,0.0,0.0,0.0,0.0,0.0,0.0,0.0,0.0,0.0,0.0,0.0,0.0,0.0,0.0,0.0,0.0,0.0,0.0,0.0,0.0,0.0,0.0,0.0,0.0,0.0,0.0,0.0,0.0,0.0,0.0,0.0,0.0,0.0,0.0,0.0,0.0,0.0,0.0,0.0,0.0,0.0,0.0,0.0,0.0,0.0,0.0,0.0,0.0,0.0,0.0,0.0,0.0,0.0,0.0,0.0,0.0,0.0,0.0,0.0,0.0,0.0,0.0,0.0,0.0,0.0,0.0,0.0,0.0,0.0,0.0,0.0,0.0,0.0,0.0,0.0,0.0,0.0,0.0,0.0,0.0,0.0,0.0,0.0,0.0,0.0,0.0,0.0,0.0,0.0,0.0,0.0,0.0,0.0,0.0,0.0,0.0,0.0,0.0,0.0,0.0,0.0,0.0,0.0,0.0,0.0,0.0,0.0,0.0,0.0,0.0,0.0,0.0,0.0,0.0,0.0,0.0,0.0,0.0,0.0,0.0,0.0,0.0,0.0,0.0,0.0,0.0,0.0,0.0,0.0,0.0,0.0,0.0,0.0,0.0,0.0,0.0,0.0,0.0,0.0,0.0,0.0,0.0,0.0,0.0,0.0,0.0,0.0,0.0,0.0,0.0,0.0,0.0,0.0,0.0,0.0,0.0,0.0,0.0,0.0,0.0,0.0,0.0,0.0,0.0,0.0,0.0,0.0,0.0,0.0,0.0,0.0,0.0,0.0,0.0,0.0,0.0,0.0,0.0,0.0,0.0,0.0,0.0,0.0,0.0,0.0,0.0,0.0,0.0,0.0,0.0,0.0,0.0,0.0,0.0,0.0,0.0,0.0,0.0,0.0,0.0,0.0,0.0,0.0,0.0,0.0,0.0,0.0,0.0,0.0,0.0,0.0,0.0,0.0,0.0,0.0,0.0,0.0,0.0,0.0,0.0,0.0,0.0,0.0,0.0,0.0,0.0,0.0,0.0,0.0,0.0,0.0,0.0,0.0,0.0,0.0,0.0,0.0,0.0,0.0,0.0,0.0,0.0,0.0,0.0,0.0,0.0,0.0,0.0,0.0,0.0,0.0,0.0,0.0,0.0,0.0,0.0,0.0,0.0,0.0,0.0,0.0,0.0,0.0,0.0,0.0,0.0,0.0,0.0,0.0,0.0,0.0,0.0,0.0,0.0,0.0,0.0,0.0,0.0,0.0,0.0,0.0,0.0,0.0,0.0,0.0,0.0,0.0,0.0,0.0,0.0,0.0,0.0,0.0,0.0,0.0,0.0,0.0,0.0,0.0,0.0,0.0,0.0,0.0,0.0,0.0,0.0,0.0,0.0,0.0,0.0,0.0,0.0,0.0,0.0,0.0,0.0,0.0,0.0,0.0,0.0,0.0,0.0,0.0,0.0,0.0,0.0,0.0,0.0,0.0,0.0,0.0,0.0,0.0,0.0,0.0,0.0,0.0,0.0,0.0,0.0,0.0,0.0,0.0,0.0,0.0,0.0,0.0,0.0,0.0,0.0,0.0,0.0,0.0,0.0,0.0,0.0,0.0,0.0,0.0,0.0,0.0,0.0,0.0,0.0,0.0,0.0,0.0,0.0,0.0,0.0,0.0,0.0,0.0,0.0,0.0,0.0,0.0,0.0,0.0,0.0,0.0,0.0,0.0,0.0,0.0,0.0,0.0,0.0,0.0,0.0,0.0,0.0,0.0,0.0,0.0,0.0,0.0,0.0,0.0,0.0,0.0,0.0,0.0,0.0,0.0,0.0,0.0,0.0,0.0,0.0,0.0,0.0,0.0,0.0,0.0,0.0,0.0,0.0,0.0,0.0,0.0,0.0,0.0,0.0,0.0,0.0,0.0,0.0,0.0,0.0,0.0,0.0,0.0,0.0,0.0,0.0,0.0,0.0,0.0,0.0,0.0,0.0,0.0,0.0,0.0,0.0,0.0,0.0,0.0,0.0,0.0,0.0,0.0,0.0,0.0,0.0,0.0,0.0,0.0,0.0,0.0,0.0,0.0,0.0,0.0,0.0,0.0,0.0,0.0,0.0,0.0,0.0,0.0,0.0,0.0,0.0,0.0,0.0,0.0,0.0,0.0,0.0,0.0,0.0,0.0,0.0,0.0,0.0,0.0,0.0,0.0,0.0,0.0,0.0,0.0,0.0,0.0,0.0,0.0,0.0,0.0,0.0,0.0,0.0,0.0,0.0,0.0,0.0,0.0,0.0,0.0,0.0,0.0,0.0,0.0,0.0,0.0,0.0,0.0,0.0,0.0,0.0,0.0,0.0,0.0,0.0,0.0,0.0,0.0,0.0,0.0,0.0,0.0,0.0,0.0,0.0,0.0,0.0,0.0,0.0,0.0,0.0,0.0,0.0,0.0,0.0,0.0,0.0,0.0,0.0,0.0,0.0,0.0,0.0,0.0,0.0,0.0,0.0,0.0,0.0,0.0,0.0,0.0,0.0,0.0,0.0,0.0,0.0,0.0,0.0,0.0,0.0,0.0,0.0,0.0,0.0,0.0,0.0,0.0,0.0,0.0,0.0,0.0,0.0,0.0,0.0,0.0,0.0,0.0,0.0,0.0,0.0,0.0,0.0,0.0,0.0,0.0,0.0,0.0,0.0,0.0,0.0,0.0,0.0,0.0,0.0,0.0,0.0,0.0,0.0,0.0,0.0,0.0,0.0,0.0,0.0,0.0,0.0,0.0,0.0,0.0,0.0,0.0,0.0,0.0,0.0,0.0,0.0,0.0,0.0,0.0,0.0,0.0,0.0,0.0,0.0,0.0,0.0,0.0,0.0,0.0,0.0,0.0,0.0,0.0,0.0,0.0,0.0,0.0,0.0,0.0,0.0,0.0,0.0,0.0,0.0,0.0,0.0,0.0,0.0,0.0,0.0,0.0,0.0,0.0,0.0,0.0,0.0,0.0,0.0,0.0,0.0,0.0,0.0,0.0,0.0,0.0,0.0,0.0,0.0,0.0,0.0,0.0,0.0,0.0,0.0,0.0,0.0,0.0,0.0,0.0,0.0,0.0,0.0,0.0,0.0,0.0,0.0,0.0,0.0,0.0,0.0,0.0,0.0,0.0,0.0,0.0,0.0,0.0,0.0,0.0,0.0,0.0,0.0,0.0,0.0,0.0,0.0,0.0,0.0,0.0,0.0,0.0,0.0,0.0,0.0,0.0,0.0,0.0,0.0,0.0,0.0,0.0,0.0,0.0,0.0,0.0,0.0,0.0,0.0,0.0,0.0,0.0,0.0,0.0,0.0,0.0,0.0,0.0,0.0,0.0,0.0,0.0,0.0,0.0,0.0,0.0,0.0,0.0,0.0,0.0,0.0,0.0,0.0,0.0,0.0,0.0,0.0,0.0,0.0,0.0,0.0,0.0,0.0,0.0,0.0,0.0,0.0,0.0,0.0,0.0,0.0,0.0,0.0,0.0,0.0,0.0,0.0,0.0,0.0,0.0,0.0,0.0,0.0,0.0,0.0,0.0,0.0,0.0,0.0,0.0,0.0,0.0,0.0,0.0,0.0,0.0,0.0,0.0,0.0,0.0,0.0,0.0,0.0,0.0,0.0,0.0,0.0,0.0,0.0,0.0,0.0,0.0,0.0,0.0,0.0,0.0,0.0,0.0,0.0,0.0,0.0,0.0,0.0,0.0,0.0,0.0,0.0,0.0,0.0,0.0,0.0,0.0,0.0,0.0,0.0,0.0,0.0,0.0,0.0,0.0,0.0,0.0,0.0,0.0,0.0,0.0,0.0,0.0,0.0,0.0,0.0,0.0,0.0,0.0,0.0,0.0,0.0,0.0,0.0,0.0,0.0,0.0,0.0,0.0,0.0,0.0,0.0,0.0,0.0,0.0,0.0,0.0,0.0,0.0,0.0,0.0,0.0,0.0,0.0,0.0,0.0,0.0,0.0,0.0,0.0,0.0,0.0,0.0,0.0,0.0,0.0,0.0,0.0,0.0,0.0,0.0,0.0,0.0,0.0,0.0,0.0,0.0,0.0,0.0,0.0,0.0,0.0,0.0,0.0,0.0,0.0,0.0,0.0,0.0,0.0,0.0,0.0,0.0,0.0,0.0,0.0,0.0,0.0,0.0,0.0,0.0,0.0,0.0,0.0,0.0,0.0,0.0,0.0,0.0,0.0,0.0,0.0,0.0,0.0,0.0,0.0,0.0,0.0,0.0,0.0,0.0,0.0,0.0,0.0,0.0,0.0,0.0,0.0,0.0,0.0,0.0,0.0,0.0,0.0,0.0,0.0,0.0,0.0,0.0,0.0,0.0,0.0,0.0,0.0,0.0,0.0,0.0,0.0,0.0,0.0,0.0,0.0,0.0,0.0,0.0,0.0,0.0,0.0,0.0,0.0,0.0,0.0,0.0,0.0,0.0,0.0,0.0,0.0,0.0,0.0,0.0,0.0,0.0,0.0,0.0,0.0,0.0,0.0,0.0,0.0,0.0,0.0,0.0,0.0,0.0,0.0,0.0,0.0,0.0,0.0,0.0,0.0,0.0,0.0,0.0,0.0,0.0,0.0,0.0,0.0,0.0,0.0,0.0,0.0,0.0,0.0,0.0,0.0,0.0,0.0,0.0,0.0,0.0,0.0,0.0,0.0,0.0,0.0,0.0,0.0,0.0,0.0,0.0,0.0,0.0,0.0,0.0,0.0,0.0,0.0,0.0,0.0,0.0,0.0,0.0,0.0,0.0,0.0,0.0,0.0,0.0,0.0,0.0,0.0,0.0,0.0,0.0,0.0,0.0,0.0,0.0,0.0,0.0,0.0,0.0,0.0,0.0,0.0,0.0,0.0,0.0,0.0,0.0,0.0,0.0,0.0,0.0,0.0,0.0,0.0,0.0,0.0,0.0,0.0,0.0,0.0,0.0,0.0,0.0,0.0,0.0,0.0,0.0,0.0,0.0,0.0,0.0,0.0,0.0,0.0,0.0,0.0,0.0,0.0,0.0,0.0,0.0,0.0,0.0,0.0,0.0,0.0,0.0,0.0,0.0,0.0,0.0,0.0,0.0,0.0,0.0,0.0,0.0,0.0,0.0,0.0,0.0,0.0,0.0,0.0,0.0,0.0,0.0,0.0,0.0,0.0,0.0,0.0,0.0,0.0,0.0,0.0,0.0,0.0,0.0,0.0,0.0,0.0,0.0,0.0,0.0,0.0,0.0,0.0,0.0,0.0,0.0,0.0,0.0,0.0,0.0,0.0,0.0,0.0,0.0,0.0,0.0,0.0,0.0,0.0,0.0,-1.8843,-1.8467,0.0,0.0,0.0,0.0,0.0,0.0,0.0,0.0,0.0,0.0,0.0,0.0,0.0,0.0,0.0,0.0,0.0,0.0,0.0,0.0,0.0,0.0,0.0,-0.9874,-0.9882,-0.9798,-0.9791,-0.9938,-1.0309,0.0,0.0,0.0,-0.9777,-0.9715,-1.0166,-1.0114,-1.0194,-1.0443,-1.0581,-1.062,-1.0545,-1.072,-1.0611,-1.0289,0.0,0.0,0.0,0.0,0.0,0.0,0.0,0.0,0.0,0.0,0.0,0.0,0.0,0.0,0.0,0.0,0.0,0.0,0.0,0.0,0.0,0.0,0.0,0.0,0.0,0.0,0.0,0.0,0.0,0.0,0.0,0.0,0.0,0.0,0.0,0.0,0.0,0.0,0.0,0.0,0.0,0.0,0.0,0.0,0.0,0.0,0.0,0.0,0.0,0.0,0.0,0.0,0.0,0.0,0.0,0.0,0.0,0.0,0.0,0.0,0.0,0.0,0.0,0.0,0.0,0.0,0.0,0.0,0.0,0.0,-2.1017,-2.0737,0.0,0.0,0.0,0.0,0.0,0.0,0.0,0.0,0.0,0.0,0.0,0.0,0.0,0.0,0.0,0.0,0.0,0.0,0.0,0.0,0.0,-0.9982,-0.9891,-0.9901,-0.9923,-0.9893,-1.005,-1.0395,-1.1001,-1.0534,-1.0524,-1.1136,-1.0383,-1.0285,-1.0958,-1.092,-1.1177,-1.1765,-1.1893,-1.204,-1.2168,-1.2394,-1.211,-1.1445,-1.2166,0.0,0.0,0.0,0.0,0.0,0.0,0.0,0.0,0.0,0.0,0.0,0.0,0.0,0.0,0.0,0.0,0.0,0.0,0.0,0.0,0.0,0.0,0.0,0.0,0.0,0.0,0.0,0.0,0.0,0.0,0.0,0.0,0.0,0.0,0.0,0.0,0.0,0.0,0.0,0.0,0.0,0.0,0.0,0.0,0.0,0.0,0.0,0.0,0.0,0.0,0.0,0.0,0.0,0.0,0.0,0.0,0.0,0.0,0.0,0.0,0.0,0.0,0.0,-2.3123,-2.3218,-2.3218,-2.3256,-2.3736,-2.4476,-2.364,-2.3477,-2.3736,-2.2719,0.0,0.0,0.0,0.0,0.0,0.0,0.0,0.0,0.0,0.0,0.0,0.0,0.0,0.0,0.0,0.0,0.0,0.0,0.0,-1.0019,-0.9842,-0.9911,-0.9963,-0.9899,-1.059,-1.1068,-1.1175,-1.1736,-1.2102,-1.2201,-1.1924,-1.1865,-1.207,-1.1855,-1.185,-1.2059,-1.2128,-1.2271,-1.247,-1.3282,-1.3614,-1.3517,-1.3567,-1.3598,-1.3617,0.0,0.0,0.0,0.0,0.0,0.0,0.0,0.0,0.0,0.0,0.0,0.0,0.0,0.0,0.0,0.0,0.0,0.0,0.0,0.0,0.0,0.0,0.0,0.0,0.0,0.0,0.0,0.0,0.0,0.0,0.0,0.0,0.0,0.0,0.0,0.0,0.0,0.0,0.0,0.0,0.0,-1.6832,-1.7079,0.0,0.0,0.0,0.0,0.0,0.0,0.0,0.0,0.0,0.0,0.0,0.0,0.0,-2.367,-2.4328,-2.5171,-2.594,-2.6595,-2.6806,-2.6907,-2.6911,-2.7094,-2.7229,-2.7345,-2.7229,0.0,-2.4985,-2.3976,0.0,0.0,0.0,0.0,0.0,0.0,0.0,0.0,0.0,0.0,0.0,0.0,0.0,0.0,0.0,0.0,0.0,0.0,0.0,0.0,0.0,-0.9927,-1.0006,-1.0005,-1.0399,-1.1013,-1.1866,-1.183,-1.2161,-1.3043,-1.2554,-1.2504,-1.3013,-1.2915,-1.3132,-1.3672,-1.3775,-1.3868,-1.3974,-1.4962,-1.5448,-1.5517,-1.6426,-1.6289,-1.5367,-1.5299,0.0,0.0,0.0,0.0,0.0,0.0,0.0,0.0,0.0,0.0,0.0,0.0,0.0,0.0,0.0,0.0,0.0,0.0,0.0,0.0,0.0,0.0,0.0,0.0,0.0,0.0,0.0,0.0,0.0,0.0,0.0,0.0,0.0,0.0,0.0,0.0,0.0,0.0,0.0,-1.6808,-1.8191,-1.9362,-1.9613,-1.9764,0.0,0.0,0.0,0.0,0.0,0.0,0.0,0.0,0.0,-2.3927,-2.5177,-2.6009,-2.6365,-2.6867,-2.73,-2.7638,-2.7734,-2.7772,-2.7772,-2.786,-2.7898,-2.7898,-2.7898,-2.7473,-2.6732,-2.6294,-2.6102,-2.6053,0.0,0.0,0.0,0.0,-2.5001,-2.5035,0.0,0.0,0.0,0.0,0.0,0.0,0.0,0.0,0.0,0.0,0.0,0.0,-0.9824,-0.9923,-1.0023,-1.0122,-1.0354,-1.1006,-1.2179,-1.2089,-1.2502,-1.3655,-1.3294,-1.3344,-1.3956,-1.3986,-1.4409,-1.5282,-1.5422,-1.5611,-1.5836,-1.6584,-1.6952,-1.7048,-1.8526,-1.8455,-1.7223,-1.7147,-1.6746,-1.6087,0.0,0.0,0.0,0.0,0.0,0.0,0.0,0.0,0.0,0.0,0.0,0.0,0.0,0.0,0.0,0.0,0.0,0.0,0.0,0.0,0.0,0.0,0.0,0.0,0.0,0.0,0.0,0.0,0.0,0.0,0.0,0.0,0.0,0.0,0.0,0.0,0.0,-1.8214,-1.9562,-2.1309,-2.1644,-2.1731,0.0,0.0,0.0,0.0,0.0,0.0,-2.3758,-2.4701,-2.5514,-2.6167,-2.7372,-2.7986,-2.7984,-2.8361,-2.8533,-2.8533,-2.8533,-2.8533,-2.8533,-2.8533,-2.8533,-2.8533,-2.8533,-2.8679,-2.8825,-2.817,-2.7902,-2.7902,-2.7745,-2.7676,-2.7665,-2.7502,-2.7584,-2.774,0.0,0.0,0.0,0.0,0.0,0.0,0.0,0.0,0.0,0.0,0.0,-0.9894,-0.9891,-0.996,-1.0052,-1.0186,-1.0893,-1.1405,-1.1536,-1.3002,-1.39,-1.3971,-1.4558,-1.4892,-1.493,-1.4985,-1.5442,-1.6319,-1.6469,-1.6952,-1.7753,-1.7805,-1.7802,-1.7777,-1.8699,-1.9052,-1.8979,-1.9033,-1.8963,-1.8739,-1.7791,0.0,0.0,0.0,0.0,0.0,0.0,0.0,0.0,0.0,0.0,0.0,0.0,0.0,0.0,0.0,0.0,0.0,0.0,0.0,0.0,0.0,0.0,0.0,0.0,0.0,0.0,0.0,0.0,0.0,0.0,0.0,0.0,0.0,0.0,0.0,0.0,0.0,0.0,-2.1978,-2.2569,0.0,0.0,0.0,0.0,-2.395,-2.5595,-2.6752,-2.7042,-2.7294,-2.7458,-2.7493,-2.8487,-2.9017,-2.9017,-2.9867,-3.0263,-3.0263,-3.0263,-3.0263,-3.0263,-3.0263,-3.0263,-3.0263,-3.0263,-3.0737,-3.1318,-2.8902,-2.7908,-2.7908,-2.7888,-2.7892,-2.7876,-2.7868,-2.7879,-2.7879,0.0,0.0,0.0,-1.0094,-1.0094,-1.0094,-1.0075,-0.9984,-0.9918,-0.9865,-0.9805,-0.9805,-0.9887,-0.993,-1.0013,-1.0175,-1.0459,-1.0863,-1.1401,-1.2522,-1.3399,-1.3904,-1.4698,-1.5383,-1.5946,-1.5996,-1.6439,-1.7308,-1.7359,-1.7528,-1.7844,-1.8422,-1.8665,-1.8673,-1.9542,-1.9915,-1.9838,-1.9348,-1.9104,-1.8984,-1.8033,-1.7481,0.0,0.0,0.0,0.0,0.0,0.0,0.0,0.0,0.0,0.0,0.0,0.0,0.0,0.0,0.0,0.0,0.0,0.0,0.0,0.0,0.0,0.0,0.0,0.0,0.0,0.0,0.0,0.0,0.0,0.0,0.0,0.0,0.0,0.0,0.0,0.0,0.0,-2.3699,-2.3908,0.0,-2.5077,-2.5522,-2.5794,-2.5896,-2.7169,-2.8267,-2.9063,-2.9819,-3.0471,-3.0996,-3.1373,-3.1552,-3.1552,-3.1847,-3.2,-3.2,-3.2013,-3.2018,-3.2004,-3.1831,-3.1754,-3.1734,-3.1569,-3.1677,-3.1888,-3.0983,-3.081,-3.1056,-3.0359,-3.0513,-3.1109,-3.1133,-3.1153,-3.1172,-1.0094,-1.0094,0.0,-1.0094,-1.0094,-1.0094,-1.0075,-0.9998,-0.993,-0.9902,-0.9824,-0.9805,-0.9931,-0.993,-1.0013,-1.0175,-1.0196,-1.0428,-1.0955,-1.2074,-1.2938,-1.3468,-1.4862,-1.5907,-1.6484,-1.6785,-1.7363,-1.8244,-1.8239,-1.838,-1.8653,-1.9225,-1.9492,-1.9531,-2.0111,-2.0485,-2.0677,-2.0146,-1.9742,-1.9453,-1.8831,-1.8388,-1.8061,0.0,0.0,0.0,0.0,0.0,0.0,0.0,0.0,0.0,0.0,0.0,0.0,0.0,0.0,0.0,0.0,0.0,0.0,0.0,0.0,0.0,0.0,0.0,0.0,0.0,0.0,0.0,0.0,0.0,0.0,0.0,0.0,0.0,0.0,-2.1785,-2.2979,-2.4699,-2.5029,-2.5531,-2.6505,-2.6853,-2.7206,-2.7702,-2.8651,-2.9703,-3.0849,-3.159,-3.2267,-3.2883,-3.2824,-3.2819,-3.291,-3.2804,-3.2809,-3.2904,-3.2897,-3.2904,-3.289,-3.262,-3.2497,-3.2492,-3.221,-3.2267,-3.2511,-3.2144,-3.2577,-3.3377,-3.2084,-3.2,-3.263,-3.2641,-3.2656,-3.2694,-1.0094,-1.0094,-1.0094,-1.0094,-1.0094,-1.0075,-1.0013,-0.9994,-0.9977,-0.9916,-0.9902,-0.9928,-0.9991,-0.9993,-1.0056,-1.0194,-1.0194,-1.0214,-1.0233,-1.1772,-1.2746,-1.2823,-1.5183,-1.6522,-1.658,-1.7413,-1.8259,-1.9153,-1.9135,-1.9531,-2.0312,-2.0312,-2.0312,-2.035,-2.035,-2.0792,-2.1543,-2.1543,-2.11,-2.0389,-2.0389,-1.9869,-1.9126,0.0,0.0,0.0,0.0,0.0,0.0,0.0,0.0,0.0,0.0,0.0,0.0,0.0,0.0,0.0,0.0,0.0,0.0,0.0,0.0,0.0,0.0,0.0,0.0,0.0,0.0,0.0,0.0,0.0,0.0,0.0,0.0,0.0,-2.2297,-2.3177,-2.4136,-2.4916,-2.5968,-2.6644,-2.6708,-2.7423,-2.8315,-2.9407,-3.0225,-3.1219,-3.2465,-3.2546,-3.2689,-3.2954,-3.2692,-3.2692,-3.2942,-3.2705,-3.2705,-3.2955,-3.2955,-3.2961,-3.2948,-3.2673,-3.254,-3.2529,-3.2265,-3.2629,-3.3331,-3.2283,-3.2966,-3.4492,-3.2773,-3.2158,-3.2177,-3.2183,-3.2184,-3.2223,-1.0094,-1.0094,-1.0094,-1.0094,-1.0094,-1.0094,-1.0075,-1.0037,-0.9993,-0.9968,-0.992,-0.992,-1.0001,-0.9999,-1.0037,-1.0113,-1.0133,-1.0406,-1.1021,-1.2098,-1.3517,-1.5362,-1.6131,-1.7074,-1.8299,-1.8542,-1.91,-1.9965,-1.9977,-2.0073,-2.0312,-2.0312,-2.0619,-2.1177,-2.1177,-2.1639,-2.2447,-2.2447,-2.2312,-2.21,-2.21,-2.1966,-2.1763,0.0,0.0,0.0,0.0,0.0,0.0,0.0,0.0,0.0,0.0,0.0,0.0,0.0,0.0,0.0,0.0,0.0,0.0,0.0,0.0,0.0,0.0,0.0,0.0,0.0,0.0,0.0,0.0,0.0,0.0,0.0,-2.3035,-2.3765,-2.4079,-2.4892,-2.5841,-2.6874,-2.7061,-2.7652,-2.906,-2.9406,-3.0002,-3.106,-3.1908,-3.2559,-3.3125,-3.3736,-3.4128,-3.4205,-3.4127,-3.413,-3.4187,-3.4131,-3.4131,-3.4206,-3.4206,-3.4203,-3.4192,-3.3878,-3.3733,-3.3733,-3.3441,-3.3486,-3.3652,-3.3368,-3.3578,-3.3944,-3.3084,-3.3259,-3.4,-3.3988,-3.3986,-3.4035,-1.0094,-1.0094,-1.0094,-1.0094,-1.0094,-1.0094,-1.0094,-1.0075,-1.0037,-1.0037,-1.0013,-0.9994,-1.0037,-1.0037,-1.0055,-1.0063,-1.0378,-1.0761,-1.1242,-1.2416,-1.4078,-1.6324,-1.6772,-1.7605,-1.8972,-1.9357,-1.9792,-2.0312,-2.0312,-2.0312,-2.0312,-2.0639,-2.1062,-2.1523,-2.1889,-2.2524,-2.334,-2.334,-2.3543,-2.3842,-2.3755,-2.3304,-2.2671,-2.2671,-2.2068,-2.1225,-2.1225,-2.0601,-1.9726,-1.9356,0.0,0.0,0.0,0.0,0.0,0.0,0.0,0.0,0.0,0.0,0.0,0.0,0.0,0.0,0.0,0.0,0.0,0.0,0.0,0.0,0.0,0.0,0.0,0.0,-2.4496,-2.5445,-2.6041,-2.6526,-2.7184,-2.8173,-2.8439,-2.9089,-3.0564,-3.0691,-3.1084,-3.2055,-3.2565,-3.3109,-3.3691,-3.4213,-3.4547,-3.4698,-3.4921,-3.5096,-3.5203,-3.5096,-3.5096,-3.5203,-3.4864,-3.4866,-3.5192,-3.4882,-3.4926,-3.5224,-3.4947,-3.4833,-3.4833,-3.4833,-3.4833,-3.4741,0.0,0.0,0.0,0.0,-3.4389,-3.4505,-1.0094,-1.0094,-1.0094,-1.0094,-1.0094,-1.0094,-1.0094,-1.0094,-1.0094,-1.0094,-1.0094,-1.0094,-1.0094,-1.0075,-1.0048,-0.9986,-1.0727,-1.1238,-1.1363,-1.2948,-1.4642,-1.6347,-1.7233,-1.8137,-1.9092,-1.9873,-2.0277,-2.0312,-2.0312,-2.035,-2.0446,-2.1177,-2.16,-2.1831,-2.2601,-2.3437,-2.4245,-2.4245,-2.462,-2.5254,-2.5069,-2.4121,-2.2783,-2.2761,-2.2699,-2.26,-2.2612,-2.268,-2.2651,-2.187,0.0,0.0,0.0,0.0,0.0,0.0,0.0,0.0,0.0,0.0,0.0,0.0,0.0,0.0,0.0,0.0,0.0,0.0,0.0,0.0,0.0,0.0,0.0,0.0,-2.6063,-2.7588,-2.8036,-2.8122,-2.8364,-2.9049,-2.9853,-3.0649,-3.1447,-3.1546,-3.1864,-3.2665,-3.2811,-3.328,-3.4246,-3.4362,0.0,0.0,0.0,-3.5707,-3.5923,-3.5707,-3.5707,-3.5945,-3.5211,-3.5249,-3.5948,-3.5706,-3.5975,-3.664,-3.6403,-3.6306,-3.6306,-3.6306,-3.6306,-3.6131,-3.4567,-3.3944,-3.3925,-3.3825,-3.3962,-3.4173,-1.0094,-1.0056,-1.0037,-1.0094,-1.0056,-1.0037,-1.0094,-1.0094,-1.0094,-1.0094,-1.0056,-1.0017,-1.0017,-0.9975,-0.9929,-0.9923,-1.0651,-1.1692,-1.3033,-1.469,-1.6061,-1.7063,-1.7892,-1.879,-1.9773,-1.9964,-2.0143,-2.0312,-2.0312,-2.0639,-2.1273,-2.1427,-2.2254,-2.361,-2.3764,-2.4293,-2.5082,-2.5082,-2.5053,-2.5052,-2.5031,-2.482,-2.4491,-2.4409,-2.3925,-2.3307,-2.3316,-2.2974,-2.2532,-2.2361,-2.2296,-2.2249,-2.2083,0.0,0.0,0.0,0.0,0.0,0.0,0.0,0.0,0.0,0.0,0.0,0.0,0.0,0.0,0.0,0.0,0.0,0.0,0.0,0.0,-2.698,-2.7803,-2.8695,-2.9899,-3.0063,-3.0043,-2.9987,-3.0684,-3.1465,-3.2283,-3.2383,-3.2702,-3.3523,-3.4183,-3.4633,-3.4833,-3.5515,-3.5929,-3.5984,-3.6095,-3.6168,-3.6205,-3.6168,-3.6178,-3.6213,-3.6048,0.0,-3.624,-3.6157,-3.6221,-3.637,-3.6332,-3.6291,-3.6291,-3.6291,-3.6291,-3.6211,-3.5156,-3.476,-3.4686,-3.4036,-3.3825,-3.3925,-1.0094,-1.0056,-0.9999,-0.9995,-0.9977,-0.9956,-0.9994,-1.0037,-1.0056,-1.0056,-1.0017,-0.9995,-1.0003,-0.9948,-1.0038,-1.0428,-1.1531,-1.2724,-1.398,-1.5208,-1.6293,-1.7217,-1.8015,-1.8907,-1.9882,-1.9901,-2.0142,-2.065,-2.065,-2.1069,-2.1858,-2.2307,-2.3018,-2.3964,-2.4289,-2.4702,-2.5152,-2.508,-2.4992,-2.4885,-2.4791,-2.4737,-2.4743,-2.4682,-2.4388,-2.3992,-2.3998,-2.3863,-2.3661,-2.3647,-2.3435,-2.3156,-2.3152,-2.2855,-2.2517,0.0,0.0,0.0,0.0,0.0,0.0,0.0,0.0,0.0,0.0,0.0,0.0,0.0,0.0,-2.5072,-2.5429,0.0,-2.7988,-2.8776,-2.9732,-3.0596,-3.1293,-3.1621,-3.1699,-3.1433,-3.1751,-3.2319,-3.3121,-3.3561,-3.3973,-3.4376,-3.5183,-3.5661,-3.5661,-3.6064,-3.6313,-3.6305,-3.6699,-3.6919,-3.6901,-3.6901,-3.6883,-3.6922,-3.6497,-3.6517,-3.6916,-3.6916,-3.7128,-3.7514,-3.7509,-3.7491,-3.7491,-3.7491,-3.7491,-3.74,-3.6586,-3.6002,-3.5605,-3.52,-3.5045,-3.5063,-1.0075,-1.0037,-0.9982,-0.9935,-0.99,-0.9911,-0.9911,-0.9972,-1.0024,-1.0029,-0.9994,-1.0049,-1.0194,-1.0138,-1.047,-1.1366,-1.258,-1.3708,-1.4669,-1.5482,-1.636,-1.7327,-1.8146,-1.8947,-1.9743,-1.9912,-2.032,-2.1004,-2.1161,-2.1657,-2.2472,-2.3164,-2.3674,-2.4024,-2.4558,-2.4864,-2.4948,-2.486,-2.4784,-2.4721,-2.4563,-2.4482,-2.4439,-2.4442,-2.4431,-2.4448,-2.4448,-2.4559,-2.4728,-2.4745,-2.4301,-2.3742,-2.3752,-2.3258,-2.2739,-2.2911,-2.2947,0.0,0.0,0.0,0.0,0.0,0.0,0.0,0.0,0.0,-2.5294,-2.5297,-2.6656,-2.7848,-2.7828,-2.926,-3.0398,-3.0393,-3.1487,-3.2358,-3.2415,-3.2824,-3.3015,-3.2838,-3.2958,-3.3314,-3.3963,-3.4752,-3.5247,-3.5247,-3.6046,-3.6523,-3.6523,-3.667,-3.6772,-3.6775,-3.7397,-3.7746,-3.7728,-3.7728,-3.7728,-3.7728,-3.7103,-3.7103,-3.7724,-3.772,-3.8087,-3.8707,-3.8707,-3.8707,-3.8707,-3.8707,-3.8707,-3.8652,-3.7992,-3.7342,-3.6731,-3.6427,-3.6288,-3.6288,-1.0017,-1.0013,-1.0006,-0.9998,-0.9943,-0.9909,-0.9972,-1.0053,-1.0088,-1.0089,-0.9975,-1.0187,-1.0893,-1.0856,-1.1404,-1.292,-1.3198,-1.3947,-1.548,-1.6325,-1.7119,-1.7948,-1.877,-1.9339,-1.9623,-2.0331,-2.0792,-2.1004,-2.1719,-2.251,-2.3366,-2.3441,-2.3941,-2.47,-2.4766,-2.4818,-2.4829,-2.4816,-2.4705,-2.4521,-2.4517,-2.4391,-2.4228,-2.4247,-2.4246,-2.4226,-2.4226,-2.4356,-2.4523,-2.4524,-2.4598,-2.4653,-2.4654,-2.4601,-2.4507,-2.4535,0.0,-2.4384,-2.3615,-2.3407,-2.3705,-2.5,-2.5546,-2.5903,0.0,0.0,-2.7003,-2.7009,-2.8483,-2.9793,-2.9786,-3.1302,-3.255,-3.2557,-3.2697,-3.2941,-3.321,-3.3333,-3.343,-3.364,-3.4284,-3.4779,-3.4852,-3.5632,-3.6156,-3.6156,-3.689,-3.7349,-3.7349,-3.8046,-3.8432,-3.8432,-3.8524,-3.8579,-3.856,-3.856,-3.856,-3.856,-3.8469,-3.8487,-3.856,-3.8573,-3.8609,-3.8707,-3.8707,-3.8707,-3.8707,-3.8707,-3.8707,-3.8689,-3.8585,-3.8505,-3.8248,-3.6851,-3.6286,-3.6286,-1.0056,-1.0037,-1.0008,-1.0003,-0.9949,-0.9905,-0.9935,-1.0001,-1.0043,-1.0044,-0.9994,-1.0087,-1.0421,-1.1178,-1.2131,-1.332,-1.3761,-1.4486,-1.564,-1.6455,-1.7271,-1.8055,-1.8858,-1.9556,-2.0114,-2.0462,-2.1121,-2.2163,-2.25,-2.3075,-2.3925,-2.3925,-2.416,-2.4623,-2.4512,-2.4505,-2.4618,-2.45,-2.4407,-2.4335,-2.4327,-2.4284,-2.419,-2.419,-2.419,-2.419,-2.419,-2.4245,0.0,-2.4337,-2.4374,-2.4448,-2.4448,-2.445,-2.4478,-2.4591,-2.4963,0.0,-2.5588,-2.5641,-2.5792,0.0,-2.7106,-2.7586,-2.7439,-2.8288,-2.9104,-2.9098,-3.0494,-3.1671,-3.1533,-3.2673,-3.3609,0.0,-3.3857,-3.4236,-3.437,-3.4091,-3.3914,-3.4007,-3.5046,-3.556,-3.5045,-3.6211,-3.6982,-3.6982,-3.7734,-3.8193,-3.8193,-3.8524,-3.8707,-3.8707,-3.8707,-3.8921,-3.9375,-3.9393,-3.9626,-4.0093,-4.0093,-4.0093,-4.0093,-4.0093,-4.0093,-4.0075,-3.959,-3.9393,-3.9357,-3.8903,-3.8707,-3.8707,-3.8707,-3.8707,-3.8634,-3.7937,-3.7705,-3.7705,-1.0094,-1.0056,-1.0037,-1.0037,-0.9987,-0.9956,-0.9931,-0.9975,-1.0037,-1.0037,-1.0013,-1.0154,-1.0552,-1.1983,-1.3123,-1.3712,-1.4215,-1.495,-1.5959,-1.6506,-1.7294,-1.8377,-1.8947,-1.9635,-2.0478,-2.0739,-2.1547,-2.2996,-2.3217,-2.3639,-2.419,-2.419,-2.4266,-2.441,-2.4247,-2.4284,-2.4424,-2.4247,-2.419,-2.419,-2.419,-2.419,-2.419,-2.419,-2.419,-2.419,-2.419,-2.419,-2.419,-2.419,-2.419,-2.419,-2.419,-2.419,-2.4265,-2.4635,-2.5153,-2.5764,-2.639,-2.6676,0.0,-2.7336,-2.8065,-2.8594,-2.8203,-2.9357,-3.0546,-3.054,-3.1872,-3.2978,-3.2771,-3.3608,-3.4342,-3.4381,-3.4903,-3.5288,-3.5219,-3.4824,-3.4504,-3.4431,-3.5533,-3.6149,-3.5734,-3.6982,-3.7826,-3.7826,-3.8377,-3.8707,-3.8707,-3.8707,-3.8707,-3.8707,-3.8921,-3.9301,-3.9878,-4.0129,-4.0533,-4.1112,-4.1112,-4.1112,-4.1112,-4.1112,-4.1112,-4.1075,-4.0496,-4.0252,-4.0185,-3.959,-3.9357,-3.9357,-3.9357,-3.9357,-3.9357,-3.9357,-3.9068,-3.8707,-1.0094,-1.0094,-1.0094,-1.0094,-1.0109,-1.0067,-1.0013,-1.0056,-1.0094,-1.0094,-1.0037,-1.0549,-1.1988,-1.3618,-1.4574,-1.4478,-1.4488,-1.5175,-1.6765,-1.6629,-1.733,-1.9179,-1.9109,-1.9485,-2.0477,-2.1322,-2.2168,-2.2992,-2.3787,-2.4171,-2.419,-2.419,-2.419,-2.4209,-2.419,-2.419,-2.4209,-2.419,-2.419,-2.419,-2.419,-2.419,-2.419,-2.419,-2.419,-2.419,-2.419,-2.419,-2.419,-2.419,-2.419,-2.419,-2.419,-2.419,0.0,-2.5142,-2.5379,-2.5344,-2.5039,0.0,-2.6133,-2.768,-2.8241,-2.8632,-2.9449,-3.0283,-3.0879,-3.0879,-3.2214,-3.3375,-3.3372,-3.4103,-3.4936,-3.5718,-3.5853,-3.5766,-3.5535,-3.5475,-3.5349,-3.5015,-3.5752,-3.6609,-3.736,-3.8175,-3.867,-3.867,-3.8689,-3.8707,-3.8707,-3.8707,-3.8707,-3.8707,-3.9461,-3.9878,-3.9896,-4.0668,-4.1081,-4.1099,-4.1099,-4.1099,-4.1099,-4.1099,-4.1099,-4.1099,-4.1063,-4.1046,-4.1052,-4.1034,-4.1015,-4.1015,-4.1015,-4.1015,-4.1015,-4.1015,-4.0038,-3.8707,-0.9963,-0.9975,-0.9971,-0.9969,-0.9972,-0.9956,-0.9936,-0.9994,-1.0017,-0.9975,-1.0491,0.0,0.0,0.0,0.0,0.0,-1.4554,-1.4968,-1.6026,-1.6506,-1.72,-1.8193,-1.8873,-1.9684,-2.0748,-2.1449,-2.2354,-2.3474,-2.3951,-2.4079,-2.3876,-2.3876,-2.3747,-2.3545,-2.3545,-2.3656,-2.3876,-2.3876,-2.4301,-2.4966,-2.4411,-2.4522,-2.4948,-2.4393,-2.419,-2.419,0.0,-2.419,-2.419,-2.419,-2.419,-2.419,-2.419,0.0,0.0,-2.4579,-2.4704,-2.4883,-2.5885,0.0,-2.6962,-2.8011,-2.8676,-2.9277,-3.0093,-3.1073,-3.1898,-3.2456,-3.3475,-3.4194,-3.3967,-3.4346,-3.4913,-3.5535,-3.5634,-3.5784,-3.6237,-3.6138,-3.6001,-3.5886,-3.6582,-3.7209,-3.7459,-3.823,-3.8707,-3.8707,-3.9184,-3.9258,-3.8726,-3.9731,-4.0056,-3.9516,-4.029,-4.0946,-4.1501,-4.1766,-4.2168,-4.2713,-4.2713,-4.2713,-4.2713,-4.2713,-4.2713,-4.2642,-4.215,-4.191,-4.1846,-4.1321,-4.1086,-4.1086,-4.1086,-4.1086,-4.1086,-4.1086,-4.076,-4.0269,-0.9887,-0.9908,-0.991,-0.9895,-0.99,0.0,0.0,0.0,0.0,0.0,0.0,0.0,0.0,0.0,0.0,0.0,0.0,-1.4846,-1.5647,-1.6094,-1.6743,-1.7661,-1.8357,-1.9304,-2.0477,-2.0985,-2.1857,-2.3122,-2.3343,-2.3472,-2.3527,-2.3527,-2.3401,-2.3196,-2.3196,-2.3309,-2.3518,-2.3517,-2.395,-2.4577,-2.4049,-2.4218,-2.4725,-2.4208,-2.4024,0.0,-2.4024,-2.395,-2.3858,-2.3987,-2.395,-2.384,-2.384,-2.3894,-2.4006,-2.4166,-2.4458,-2.5016,-2.6242,-2.6806,-2.723,-2.8182,-2.8714,-2.92,-2.9881,-3.0785,-3.1621,-3.2151,-3.2923,-3.3537,-3.3623,-3.3807,-3.4367,-3.5574,-3.5806,-3.6066,-3.6882,-3.6845,-3.674,-3.6717,-3.7436,-3.8034,-3.831,-3.9093,-3.9441,-3.9148,-3.9877,-4.0115,-3.9588,-4.0535,-4.0861,-4.0359,-4.1103,-4.1769,-4.2278,-4.2587,-4.3004,-4.3497,-4.3497,-4.3497,-4.3497,-4.3497,-4.3497,-4.3461,-4.2933,-4.275,-4.2713,-4.2187,-4.1969,-4.1969,-4.1969,-4.1969,-4.1969,-4.1969,-4.1969,-4.1894,-0.9887,-0.9887,-0.9887,0.0,0.0,0.0,0.0,0.0,0.0,0.0,0.0,0.0,0.0,0.0,0.0,0.0,0.0,0.0,-1.5591,-1.5439,-1.6017,-1.7569,-1.7676,-1.8365,-1.9758,-2.0061,-2.0797,-2.2039,-2.2073,-2.2457,-2.3135,-2.3162,-2.3185,-2.3155,-2.3155,-2.3168,-2.3185,-2.3173,-2.3209,-2.3262,-2.3218,-2.3422,-2.3725,-2.3691,-2.3674,-2.3674,-2.3671,-2.3467,-2.3227,-2.356,0.0,0.0,0.0,0.0,0.0,-2.4028,-2.4668,-2.559,-2.6038,-2.6438,-2.7,-2.8095,-2.8406,-2.8526,-2.8957,-2.9655,-3.0217,-3.0231,-3.0833,-3.1593,-3.2381,0.0,-3.3387,-3.5816,-3.6285,-3.6614,-3.7436,-3.7546,-3.7564,0.0,0.0,0.0,0.0,0.0,0.0,-4.0065,-4.0735,-4.1158,-4.1111,-4.118,-4.119,-4.1154,-4.1951,-4.2351,-4.2351,-4.3114,-4.3497,-4.3497,-4.3497,-4.3497,-4.3497,-4.3497,-4.3497,-4.3497,-4.3497,-4.3497,-4.3497,-4.3497,-4.3497,-4.3497,-4.3497,-4.3497,-4.3497,-4.3497,-4.3497,-4.3296,0.0,0.0,0.0,0.0,0.0,0.0,0.0,0.0,0.0,0.0,0.0,0.0,0.0,0.0,0.0,0.0,0.0,0.0,-1.4779,-1.5298,-1.5961,-1.6762,-1.7374,-1.8348,-1.9703,-1.984,-2.0316,-2.1224,-2.1809,-2.2074,-2.2014,-2.2573,-2.2713,-2.2522,-2.2522,-2.2649,-2.2824,-2.2832,-2.3328,-2.4051,-2.344,-2.3597,-2.4153,-2.3557,-2.3343,-2.3337,-2.3323,-2.3119,0.0,0.0,0.0,0.0,0.0,-2.3848,-2.4085,0.0,0.0,-2.5612,-2.5731,-2.6438,-2.7282,-2.7886,-2.8237,-2.8677,-2.9674,-3.0051,-3.0312,-3.0646,-3.0876,-3.1083,-3.1297,-3.1814,0.0,-3.4981,-3.5886,0.0,-3.8187,-3.8401,0.0,-3.9227,0.0,-3.9923,-4.0712,-4.153,0.0,-4.1677,-4.1893,-4.1713,-4.1148,-4.2228,-4.2598,-4.2006,-4.2768,-4.3188,-4.3188,-4.3406,-4.3497,-4.3497,-4.3497,-4.3497,-4.3497,-4.3497,-4.3497,-4.3497,-4.3497,-4.3497,-4.3497,-4.3497,-4.3497,-4.3497,-4.3497,-4.3497,-4.3497,-4.3497,-4.3497,-4.3442,0.0,0.0,0.0,0.0,0.0,0.0,0.0,0.0,0.0,0.0,0.0,0.0,0.0,0.0,0.0,0.0,0.0,0.0,0.0,-1.4931,-1.5402,-1.5959,-1.6846,-1.7781,-1.8662,-1.9538,-2.0111,-2.0366,-2.1066,-2.1281,-2.1066,-2.1368,-2.1446,-2.1289,-2.167,-2.1894,-2.204,-2.2378,-2.2892,0.0,0.0,-2.3153,-2.3595,-2.3151,-2.2987,-2.2988,0.0,0.0,0.0,0.0,0.0,-2.3407,-2.3969,-2.4172,-2.4272,-2.4832,0.0,-2.5665,-2.6,-2.6539,-2.718,-2.7757,-2.8031,-2.8343,-2.8997,-2.9263,-2.9373,-2.9286,-2.9457,-2.9681,-3.0034,-3.0894,0.0,0.0,0.0,0.0,-3.8487,-3.9001,-3.9386,0.0,-4.0524,0.0,-4.1577,-4.2359,-4.2815,-4.2815,-4.2815,-4.2632,-4.2176,-4.3002,-4.3296,-4.2842,-4.3243,-4.3497,-4.3497,-4.3497,-4.3497,-4.3497,-4.3497,-4.3497,-4.3497,-4.3497,-4.3497,-4.3497,-4.3497,-4.3497,-4.3497,-4.3497,-4.3497,-4.3497,-4.3497,-4.3497,-4.3497,-4.3497,-4.3497,-4.3497,0.0,0.0,0.0,0.0,0.0,0.0,0.0,0.0,0.0,-1.1734,0.0,0.0,0.0,0.0,0.0,0.0,0.0,0.0,0.0,0.0,-1.4761,-1.5316,-1.6196,-1.6938,-1.7463,-1.9038,-1.9756,-1.9604,-2.0131,-2.0362,-2.0294,-2.0119,-2.0058,-2.0075,-2.0766,-2.1027,-2.1083,-2.1715,-2.204,-2.2136,-2.2136,-2.2344,-2.2666,0.0,0.0,0.0,0.0,0.0,0.0,0.0,-2.3409,-2.3539,-2.4373,-2.4644,-2.4779,-2.5531,-2.5749,-2.5883,-2.6539,-2.6691,-2.6891,-2.7612,-2.786,-2.7885,-2.775,-2.8003,-2.8021,-2.7143,0.0,-2.777,-2.8558,-2.9665,-3.1286,-3.3815,0.0,-3.657,-3.8339,-3.9305,-3.9873,-4.0038,-4.1405,-4.2326,-4.2459,-4.3041,-4.3424,-4.3479,-4.3424,-4.3424,-4.3497,-4.3497,-4.3497,-4.3497,-4.3497,-4.3497,-4.3497,-4.3497,-4.3497,-4.3497,-4.3497,-4.3497,-4.3497,-4.3497,-4.3497,-4.3497,-4.3497,-4.3497,-4.3497,-4.3497,-4.3497,-4.3497,-4.3497,-4.3497,-4.3497,-4.3497,-4.3497,-4.3497,0.0,0.0,0.0,0.0,0.0,0.0,0.0,-0.9698,-1.0031,-1.0982,-1.1686,-1.271,-1.4329,0.0,0.0,0.0,0.0,0.0,0.0,0.0,0.0,-1.561,-1.5606,-1.6333,0.0,0.0,0.0,0.0,0.0,-1.9831,-1.9832,-2.0164,-2.0321,-2.0321,-2.0228,-2.0216,-2.022,-2.0345,-2.0766,-2.1384,-2.1384,-2.1782,-2.2361,-2.2361,0.0,0.0,0.0,0.0,0.0,0.0,-2.3379,-2.3638,-2.4994,-2.5397,-2.5531,-2.6286,-2.6522,-2.6539,-2.6674,-2.6691,-2.6809,-2.7296,-2.766,-2.7795,-2.741,-2.7398,0.0,0.0,-2.5702,-2.5802,-2.6568,-2.7425,-2.9079,-3.2299,0.0,0.0,0.0,0.0,-3.9652,0.0,-4.1732,-4.2558,-4.324,-4.3023,0.0,-4.3461,-4.3096,-4.3041,-4.3479,-4.3497,-4.3497,-4.3497,-4.3497,-4.3497,-4.3497,-4.3497,-4.3497,-4.3497,-4.3497,-4.3497,-4.3497,-4.3497,-4.3497,-4.3497,-4.3497,-4.3497,-4.3497,-4.3497,-4.3497,-4.3497,-4.3497,-4.3497,-4.3497,-4.3497,-4.3497,-4.3497,0.0,0.0,0.0,0.0,0.0,0.0,0.0,-0.9698,-0.9994,-1.0837,-1.1292,-1.213,-1.371,-1.4299,-1.4573,0.0,0.0,0.0,0.0,0.0,0.0,0.0,0.0,0.0,0.0,0.0,0.0,0.0,0.0,0.0,0.0,0.0,0.0,0.0,0.0,0.0,-1.9445,-1.9844,-2.0465,-2.1211,-2.1195,-2.1653,0.0,0.0,0.0,0.0,0.0,0.0,0.0,0.0,-2.3388,-2.3672,-2.5146,-2.5866,-2.6253,-2.659,-2.6691,-2.6691,-2.6691,-2.6691,-2.6792,-2.7208,-2.7613,-2.7602,-2.655,0.0,0.0,0.0,-2.4711,-2.4893,-2.524,0.0,0.0,0.0,0.0,0.0,0.0,0.0,0.0,0.0,0.0,-4.2318,0.0,-4.2831,-4.2915,-4.3461,-4.3243,-4.3224,-4.3479,-4.3497,-4.3497,-4.3497,-4.3497,-4.3497,-4.3497,-4.3497,-4.3497,-4.3497,-4.3497,-4.3497,-4.3497,-4.3497,-4.3497,-4.3497,-4.3497,-4.3497,-4.3497,-4.3497,-4.3497,-4.3497,-4.3497,-4.3497,-4.3497,-4.3497,-4.3497,-4.3497,0.0,0.0,0.0,0.0,0.0,0.0,-0.9698,-0.9698,-0.995,-1.0628,-1.0897,-1.1541,-1.2892,-1.386,-1.4451,0.0,0.0,0.0,0.0,0.0,0.0,0.0,0.0,0.0,0.0,0.0,0.0,0.0,0.0,0.0,0.0,0.0,0.0,0.0,0.0,0.0,0.0,0.0,-2.0009,0.0,0.0,0.0,0.0,0.0,0.0,0.0,0.0,0.0,0.0,0.0,-2.3266,-2.3596,-2.4768,-2.5645,-2.6251,-2.6421,-2.6455,-2.6488,-2.6657,-2.6691,-2.6791,-2.7083,-2.7344,-2.7165,-2.5729,-2.5817,0.0,0.0,-2.3938,-2.4156,-2.4326,0.0,-2.7035,0.0,-2.9869,0.0,0.0,0.0,0.0,0.0,0.0,0.0,-4.2624,-4.2577,0.0,-4.3296,-4.3332,-4.3387,-4.3479,-4.3497,-4.3497,-4.3497,-4.3497,-4.3497,-4.3497,-4.3497,-4.3497,-4.3497,-4.3497,-4.3497,-4.3497,-4.3497,-4.3497,-4.3497,-4.3497,-4.3497,-4.3497,-4.3497,-4.3497,-4.3497,-4.3497,-4.3497,-4.3497,-4.3497,-4.3497,-4.3497,0.0,0.0,0.0,0.0,0.0,0.0,-0.968,-0.9698,-0.9724,-0.9805,-1.0558,-1.1371,-1.2119,-1.2988,-1.3821,0.0,0.0,0.0,0.0,0.0,0.0,0.0,0.0,0.0,0.0,0.0,0.0,0.0,0.0,0.0,0.0,0.0,0.0,0.0,0.0,0.0,0.0,0.0,0.0,0.0,0.0,0.0,0.0,0.0,0.0,0.0,0.0,0.0,0.0,0.0,0.0,-2.3431,-2.3574,-2.4105,-2.4847,-2.5497,0.0,0.0,-2.6522,-2.6691,-2.6725,-2.6758,-2.6567,-2.6127,-2.5236,0.0,0.0,-2.3393,-2.3055,-2.3093,-2.3808,-2.4105,-2.5011,-2.7471,-2.8625,-3.0392,0.0,0.0,0.0,0.0,0.0,0.0,-4.2637,-4.2211,-4.215,-4.275,-4.2768,-4.3004,-4.3461,-4.3497,-4.3497,-4.3497,-4.3497,-4.3497,-4.3497,-4.3497,-4.3497,-4.3497,-4.3497,-4.3497,-4.3497,-4.3497,-4.3497,-4.3497,-4.3497,-4.3497,-4.3497,-4.3497,-4.3497,-4.3497,-4.3497,-4.3497,-4.3497,-4.3497,-4.3497,-4.3497,0.0,0.0,0.0,0.0,0.0,0.0,-0.9698,-0.9698,-0.9717,-0.9761,-1.0094,-1.0628,-1.1468,-1.1807,-1.2657,-1.4426,0.0,0.0,0.0,0.0,0.0,0.0,0.0,0.0,0.0,0.0,0.0,0.0,0.0,0.0,0.0,0.0,0.0,0.0,0.0,0.0,0.0,0.0,0.0,0.0,0.0,0.0,0.0,0.0,0.0,0.0,0.0,0.0,0.0,0.0,0.0,0.0,-2.2734,-2.2943,0.0,0.0,-2.5261,-2.5659,-2.5964,-2.6353,-2.6691,-2.6691,-2.6439,-2.5927,-2.4932,0.0,-2.3727,-2.2842,-2.2544,-2.2566,-2.289,-2.3317,-2.4167,-2.5884,-2.6811,-2.8422,-3.1598,0.0,0.0,0.0,-3.9181,0.0,0.0,0.0,-4.2167,-4.3103,-4.3209,-4.3268,-4.3499,-4.3497,-4.3497,-4.3497,-4.3497,-4.3497,-4.3497,-4.3497,-4.3497,-4.3497,-4.3497,-4.3497,-4.3497,-4.3497,-4.3497,-4.3497,-4.3497,-4.3497,-4.3497,-4.3497,-4.3497,-4.3497,-4.3497,-4.3497,-4.3497,-4.3497,-4.3497,-4.3497,0.0,0.0,0.0,0.0,0.0,-0.9591,-0.9583,-0.9573,-0.9599,-0.9635,-0.9652,-0.9997,-1.0901,-1.0933,-1.1761,-1.3904,-1.4116,0.0,0.0,0.0,0.0,0.0,0.0,0.0,0.0,0.0,0.0,-1.8941,0.0,0.0,0.0,0.0,0.0,0.0,0.0,0.0,0.0,0.0,0.0,0.0,0.0,0.0,0.0,0.0,0.0,0.0,0.0,0.0,0.0,0.0,0.0,0.0,0.0,0.0,0.0,0.0,-2.4431,-2.4858,-2.5441,-2.5882,-2.627,-2.6607,-2.6173,-2.5472,0.0,-2.3967,-2.3278,-2.2556,-2.2426,-2.2426,-2.2426,-2.2852,-2.3517,-2.4583,-2.5639,-2.7267,-2.9886,-3.1863,0.0,0.0,0.0,-3.8785,0.0,-4.1244,-4.1872,-4.2826,-4.3125,-4.3237,-4.3263,-4.3406,-4.3497,-4.3497,-4.3497,-4.3497,-4.3497,-4.3497,-4.3497,-4.3497,-4.3497,-4.3497,-4.3497,-4.3497,-4.3497,-4.3497,-4.3497,-4.3497,-4.3497,-4.3497,-4.3497,-4.3497,-4.3497,-4.3497,-4.3497,-4.3497,-4.3497,-4.3497,0.0,0.0,0.0,0.0,0.0,0.0,-0.9299,-0.9304,-0.9304,-0.9304,-0.9304,-0.9618,-1.0413,-1.0613,-1.1346,-1.297,-1.3238,0.0,0.0,0.0,0.0,0.0,0.0,0.0,0.0,0.0,-1.7293,-1.8115,-1.8904,-1.9305,0.0,0.0,0.0,0.0,0.0,0.0,0.0,0.0,0.0,0.0,0.0,0.0,-2.4134,0.0,0.0,0.0,0.0,0.0,0.0,0.0,0.0,0.0,0.0,-2.231,0.0,0.0,-2.3093,-2.3156,-2.509,-2.533,-2.5295,-2.6404,-2.5607,-2.4523,-2.4506,-2.3359,-2.2405,-2.2634,-2.2695,-2.2695,-2.2695,-2.2695,-2.2972,-2.3777,-2.547,-2.7335,-2.9162,-3.1713,0.0,0.0,0.0,-3.643,-3.8506,-3.9929,-4.0919,-4.1391,-4.2225,-4.2697,-4.2732,-4.3206,-4.3497,-4.3497,-4.3497,-4.3497,-4.3497,-4.3497,-4.3497,-4.3497,-4.3497,-4.3497,-4.3497,-4.3497,-4.3497,-4.3497,-4.3497,-4.3497,-4.3497,-4.3497,-4.3497,-4.3497,-4.3497,-4.3497,-4.3497,-4.3497,-4.3497,-4.3497,0.0,0.0,0.0,0.0,0.0,0.0,-0.9305,-0.9296,-0.9296,-0.9304,-0.9293,-0.9394,-0.9659,-0.9715,-1.0431,-1.2142,-1.2902,0.0,0.0,0.0,0.0,0.0,0.0,0.0,0.0,0.0,-1.6738,-1.8096,-1.8353,-1.8757,-1.9305,-1.9305,-1.9259,0.0,0.0,0.0,0.0,0.0,0.0,0.0,0.0,-2.1898,-2.3324,0.0,0.0,0.0,0.0,0.0,0.0,0.0,0.0,0.0,0.0,0.0,0.0,-2.2021,-2.2399,-2.2845,-2.3451,-2.3704,-2.3943,-2.4614,-2.403,-2.336,-2.3671,-2.3004,-2.2321,-2.2398,-2.2426,-2.2426,-2.2426,-2.2426,-2.3089,-2.5144,-2.5984,-2.7267,0.0,0.0,0.0,0.0,-3.6542,-3.7967,0.0,0.0,-4.0119,-4.0628,-4.0901,-4.1462,-4.237,-4.2587,-4.2915,-4.3479,-4.3497,-4.3497,-4.3497,-4.3497,-4.3497,-4.3497,-4.3497,-4.3497,-4.3497,-4.3497,-4.3497,-4.3497,-4.3497,-4.3497,-4.3497,-4.3497,-4.3497,-4.3497,-4.3497,-4.3497,-4.3497,-4.3497,-4.3497,-4.3497,0.0,0.0,0.0,0.0,0.0,0.0,-0.9149,-0.9139,-0.9151,-0.915,-0.9145,-0.9145,-0.9145,-0.9236,-0.9841,-1.1183,-1.2256,0.0,0.0,0.0,0.0,0.0,0.0,0.0,-1.5233,-1.5545,-1.6188,-1.7197,-1.7803,-1.8353,-1.8849,-1.9161,-1.9305,-1.9305,-1.9305,0.0,0.0,0.0,0.0,0.0,-2.0711,-2.1314,-2.2484,0.0,0.0,0.0,0.0,0.0,0.0,0.0,0.0,0.0,0.0,0.0,0.0,0.0,-2.1473,-2.189,0.0,-2.2736,-2.2923,-2.3503,-2.3178,-2.2777,-2.3073,-2.2685,-2.231,-2.231,-2.231,-2.231,-2.231,-2.231,-2.2977,-2.4994,-2.5695,-2.6857,0.0,0.0,0.0,0.0,0.0,0.0,0.0,-3.8267,-3.9048,-3.9539,-3.9858,-4.0485,-4.1482,-4.1565,-4.2006,-4.3023,-4.3351,-4.3497,-4.3497,-4.3497,-4.3497,-4.3497,-4.3497,-4.3497,-4.3497,-4.3497,-4.3497,-4.3497,-4.3497,-4.3497,0.0,-4.3497,-4.3497,-4.3497,-4.3497,-4.3497,-4.3497,-4.3497,-4.3497,-4.3497,0.0,0.0,0.0,0.0,0.0,0.0,0.0,-0.8913,-0.893,-0.8919,-0.8913,-0.8913,-0.8902,-0.9119,-0.9545,-1.0238,-1.1374,0.0,0.0,0.0,0.0,0.0,0.0,0.0,-1.4458,-1.5221,-1.5625,-1.5692,-1.7197,-1.7968,-1.8041,-1.8775,-1.9161,-1.9198,-1.9198,-1.925,0.0,0.0,0.0,0.0,-2.0431,-2.0939,0.0,0.0,0.0,0.0,0.0,0.0,0.0,0.0,0.0,0.0,0.0,0.0,0.0,0.0,0.0,0.0,0.0,-2.2247,-2.2131,-2.2889,-2.2834,-2.2632,-2.2663,-2.2471,0.0,-2.231,-2.231,-2.2327,-2.2378,-2.2344,-2.2722,-2.3919,-2.5009,-2.6349,0.0,0.0,0.0,0.0,-3.4709,0.0,-3.5369,-3.6669,-3.7751,-3.8332,-3.9048,-3.9722,-4.0244,-4.0273,-4.0862,-4.2184,-4.2949,-4.3387,-4.3497,-4.3497,-4.3497,-4.3497,-4.3497,-4.3497,-4.3497,-4.3497,-4.3497,-4.3497,-4.3497,-4.3497,-4.3497,-4.3497,-4.3497,-4.3497,-4.3497,-4.3497,-4.3497,-4.3497,-4.3497,-4.3497,0.0,0.0,0.0,0.0,0.0,0.0,0.0,0.0,0.0,0.0,-0.905,-0.9009,-0.8913,-0.8957,-0.9336,0.0,0.0,0.0,0.0,0.0,0.0,0.0,0.0,0.0,-1.427,-1.4464,-1.4927,-1.5692,-1.6078,-1.6591,-1.7183,-1.7385,-1.7803,-1.839,-1.839,-1.872,0.0,0.0,0.0,0.0,-1.984,-2.0079,0.0,0.0,0.0,0.0,-1.989,-1.9842,0.0,0.0,0.0,0.0,0.0,0.0,0.0,0.0,-2.0451,-2.0673,-2.0746,0.0,-2.0926,-2.1771,-2.1929,-2.1936,0.0,-2.2343,-2.231,0.0,0.0,-2.2479,-2.3038,-2.2839,-2.3371,-2.5666,-2.6475,-2.7483,-2.9408,0.0,0.0,-3.4066,-3.4539,-3.5138,-3.6052,-3.6491,-3.7024,-3.795,-3.8183,-3.8824,-3.9946,-4.0003,-4.0423,-4.1346,-4.1577,-4.226,-4.3479,-4.3497,-4.3497,-4.3497,-4.3497,-4.3497,-4.3497,-4.3497,-4.3497,-4.3497,-4.3497,-4.3497,-4.3497,-4.3497,-4.3497,-4.3497,-4.3497,-4.3497,-4.3497,-4.3497,-4.3497,-4.3497,0.0,0.0,0.0,0.0,0.0,0.0,0.0,0.0,0.0,0.0,-0.9139,-0.9081,-0.8994,-0.9001,-0.9166,0.0,0.0,0.0,0.0,0.0,0.0,0.0,0.0,-1.3681,-1.4051,-1.4051,-1.436,-1.5012,-1.5389,-1.583,-1.6371,-1.6785,-1.7433,-1.8254,-1.8687,-1.9082,0.0,0.0,0.0,-1.9913,-1.9473,0.0,0.0,0.0,0.0,0.0,-1.861,-1.8739,0.0,-1.9179,-1.9305,-1.9305,0.0,0.0,0.0,0.0,-1.9903,-2.0114,-2.0153,-2.0467,-2.0843,-2.0982,-2.1404,-2.1861,-2.1957,0.0,0.0,0.0,0.0,0.0,-2.2818,-2.312,0.0,-2.5665,-2.6866,0.0,0.0,0.0,0.0,-3.4461,-3.491,-3.5399,-3.6085,-3.6551,-3.7002,-3.752,-3.7594,-3.799,-3.8925,-3.8997,-3.9461,-4.0542,-4.0556,-4.1321,-4.2915,-4.2569,-4.2768,-4.3497,-4.3133,-4.3133,-4.3497,-4.3497,-4.3497,-4.3497,-4.3497,-4.3497,-4.3497,-4.3497,-4.3497,-4.3497,-4.3497,-4.3497,-4.3461,-4.3096,-4.2933,-4.2896,0.0,0.0,0.0,0.0,0.0,0.0,0.0,0.0,0.0,0.0,0.0,0.0,0.0,0.0,0.0,0.0,0.0,0.0,0.0,0.0,0.0,0.0,-1.3211,-1.3186,-1.3924,-1.3927,-1.4011,-1.4257,-1.4948,-1.5384,-1.5576,-1.6372,-1.7216,-1.8092,-1.9124,-1.9501,0.0,0.0,-1.9499,-1.9335,-1.9335,0.0,0.0,0.0,0.0,0.0,0.0,0.0,0.0,-1.8849,-1.9106,-1.9143,-1.9253,0.0,0.0,0.0,0.0,0.0,-2.001,-2.0809,-2.1326,-2.0709,-2.1423,-2.2207,-2.1903,0.0,0.0,0.0,0.0,0.0,0.0,0.0,0.0,0.0,0.0,0.0,0.0,-3.3146,-3.3805,-3.4447,-3.5279,-3.5846,-3.6023,-3.6803,-3.7356,-3.7414,-3.7431,-3.7613,-3.7992,-3.801,-3.853,-3.9694,-3.9731,-4.0441,-4.191,-4.1366,-4.1782,-4.3109,-4.2567,-4.2642,-4.3332,-4.3442,-4.3497,-4.3497,-4.3497,-4.3497,-4.3497,-4.3497,-4.3497,-4.3497,-4.3497,-4.3497,-4.3406,-4.2587,-4.2294,-4.2182,0.0,0.0,0.0,0.0,0.0,0.0,0.0,0.0,0.0,0.0,0.0,0.0,0.0,0.0,0.0,0.0,0.0,0.0,0.0,0.0,0.0,-1.3611,-1.3526,-1.3689,-1.4149,-1.3983,-1.4078,-1.4453,-1.4692,-1.4823,-1.4863,-1.5113,-1.5678,-1.6515,-1.7905,-1.8534,-1.8564,-1.9285,-1.9569,-1.9555,-1.9555,0.0,0.0,0.0,0.0,0.0,0.0,0.0,0.0,-1.8023,-1.828,-1.8408,-1.9087,0.0,0.0,0.0,0.0,0.0,-2.0232,-2.106,-2.1749,-2.1749,-2.2393,-2.3028,-2.2954,0.0,0.0,0.0,0.0,0.0,0.0,0.0,0.0,0.0,0.0,-3.1603,0.0,0.0,-3.3459,-3.3737,-3.4702,-3.5654,-3.6485,-3.7326,-3.799,-3.8437,-3.8468,-3.8493,-3.8566,-3.8566,-3.867,-3.8903,-3.8903,-3.9326,-4.027,-4.083,-4.1212,-4.1483,-4.2047,-4.2351,-4.2514,-4.3188,-4.3497,-4.3497,-4.3497,-4.3497,-4.3497,-4.3497,-4.3497,-4.3497,-4.3497,-4.3497,-4.3406,-4.2587,-4.2298,-4.2186,0.0,0.0,0.0,0.0,0.0,0.0,0.0,0.0,0.0,0.0,0.0,0.0,0.0,0.0,0.0,0.0,0.0,0.0,0.0,0.0,-1.2402,-1.3241,-1.3598,-1.3856,-1.4024,-1.3565,-1.3448,-1.3739,-1.3417,-1.3542,-1.4129,-1.5174,-1.585,-1.6259,-1.7454,-1.7874,-1.7764,-1.8628,-1.892,-1.8795,0.0,0.0,0.0,0.0,0.0,0.0,0.0,0.0,0.0,0.0,-1.744,-1.7587,-1.8408,0.0,0.0,0.0,0.0,0.0,-1.9748,-2.0813,-2.1806,-2.1894,-2.2707,-2.3414,-2.3236,0.0,0.0,0.0,0.0,0.0,0.0,0.0,0.0,0.0,0.0,-3.2943,-3.3753,-3.3985,-3.4091,-3.4163,-3.5009,-3.5763,-3.6221,-3.7376,-3.7987,-3.7637,-3.842,-3.867,-3.8065,-3.8456,-3.8707,-3.8707,-3.8707,-3.8903,-3.9246,-3.9608,-4.022,-4.1079,-4.102,-4.1229,-4.1679,-4.2496,-4.2842,-4.2842,-4.2842,-4.3096,-4.3424,-4.2551,-4.2451,-4.283,-4.2359,-4.2202,-4.2103,-4.1295,-4.073,-4.0363,0.0,0.0,0.0,0.0,0.0,0.0,0.0,0.0,0.0,0.0,0.0,0.0,0.0,0.0,0.0,0.0,0.0,0.0,0.0,-1.0965,-1.1788,-1.268,-1.3213,-1.3582,-1.3792,-1.3172,-1.2876,-1.2923,-1.2391,-1.2649,-1.3698,-1.5263,-1.5998,-1.6025,-1.6896,-1.7131,-1.6937,-1.7832,-1.8186,-1.8149,0.0,0.0,0.0,0.0,0.0,0.0,0.0,0.0,0.0,0.0,0.0,0.0,0.0,0.0,0.0,-1.8775,-1.9014,-1.9087,-1.9473,-2.0666,-2.1858,-2.2024,0.0,-2.3753,-2.3482,0.0,0.0,0.0,0.0,0.0,0.0,0.0,0.0,-3.1075,-3.2616,-3.3677,-3.4377,-3.4718,-3.4832,-3.471,-3.5469,-3.5974,-3.5925,-3.7192,-3.7644,-3.6783,-3.8016,-3.8438,-3.7546,-3.8261,-3.8707,-3.8707,-3.8707,-3.8707,-3.8707,-3.8707,-3.9323,-4.0547,-4.0115,-4.0226,-4.0854,-4.1669,-4.2017,-4.202,-4.202,-4.2365,-4.2855,-4.1606,-4.1479,-4.194,-4.1323,-4.0996,-4.0744,-4.0129,-3.9393,-3.8781,0.0,0.0,0.0,0.0,0.0,0.0,0.0,0.0,0.0,0.0,0.0,0.0,0.0,0.0,0.0,0.0,0.0,0.0,0.0,-1.0619,-1.1105,-1.1859,-1.2167,-1.2669,-1.3409,-1.3193,-1.2841,-1.2357,-1.243,-1.2954,-1.3898,-1.4717,-1.509,-1.5121,-1.5743,-1.6012,-1.6053,-1.6918,-1.7713,-1.8323,-1.7578,0.0,0.0,0.0,0.0,0.0,0.0,0.0,0.0,0.0,0.0,0.0,0.0,0.0,-1.7147,-1.795,-1.8188,-1.8519,-2.0008,-2.1088,-2.1969,-2.274,-2.3547,0.0,-2.4113,-2.4132,0.0,0.0,0.0,0.0,0.0,-2.7743,-2.9289,-3.081,-3.2374,-3.3507,-3.3815,-3.4772,-3.5264,-3.4752,-3.5618,-3.6179,-3.5914,-3.6688,-3.7033,-3.6703,-3.75,-3.7863,-3.7509,-3.8261,-3.8707,-3.8707,-3.8707,-3.8707,-3.8707,-3.8707,-3.8762,-3.8878,-3.9571,-3.9933,-3.9994,-4.0806,-4.1199,-4.117,-4.117,-4.1207,-4.1262,-4.115,-4.1119,-4.1194,-4.1139,-4.0633,-3.9965,-3.9942,-3.9392,-3.8707,0.0,0.0,0.0,0.0,0.0,0.0,0.0,0.0,0.0,0.0,0.0,0.0,0.0,0.0,0.0,0.0,0.0,0.0,0.0,-1.0449,-1.0949,-1.1231,-1.182,-1.2068,-1.1915,-1.1908,-1.1809,-1.161,-1.2298,-1.2752,-1.3054,-1.4372,-1.4927,-1.4831,-1.5132,-1.5183,-1.5088,-1.6092,-1.6593,-1.6701,-1.6488,-1.6346,0.0,0.0,0.0,0.0,0.0,0.0,0.0,0.0,-1.4958,-1.5086,-1.5894,-1.6151,-1.6316,-1.711,-1.7697,-1.8243,-1.8849,-2.0372,-2.1876,-2.2171,0.0,0.0,0.0,0.0,0.0,0.0,0.0,0.0,0.0,0.0,-3.0374,-3.0694,-3.1975,-3.3113,-3.3729,-3.4171,-3.4626,-3.5141,-3.557,-3.5763,-3.5666,-3.6387,-3.6456,-3.5539,-3.6667,-3.7216,-3.679,-3.7509,-3.8187,-3.8689,-3.8707,-3.8707,-3.8707,-3.8707,-3.8707,-3.8707,-3.9013,-3.9173,-3.9191,-4.0001,-4.0351,-4.0349,-4.0331,-4.0634,-4.1033,-4.0015,-3.9882,-4.0308,-3.9804,-3.943,-3.9153,-3.9153,-3.8951,-3.8707,0.0,0.0,0.0,0.0,0.0,0.0,0.0,0.0,0.0,0.0,0.0,0.0,0.0,0.0,0.0,0.0,0.0,0.0,-0.9559,-1.0163,-1.0508,-1.0508,-1.1075,-1.1144,-1.0629,-1.0696,-1.0759,-1.0783,-1.1744,-1.2303,-1.2509,-1.3887,-1.4593,-1.4707,-1.4747,-1.4705,-1.4596,-1.5355,-1.5718,-1.5811,-1.5658,-1.5673,0.0,0.0,0.0,0.0,0.0,0.0,0.0,0.0,-1.4488,-1.4609,-1.5141,-1.5325,-1.5472,-1.6285,-1.7092,-1.7839,-1.8335,-1.9895,-2.151,0.0,0.0,0.0,0.0,0.0,0.0,0.0,-2.6612,0.0,0.0,0.0,0.0,0.0,-3.1315,-3.2327,-3.3038,-3.3589,-3.4227,-3.4999,-3.532,-3.5493,-3.5493,-3.5911,-3.5777,-3.4779,-3.588,-3.6408,-3.5896,-3.6668,-3.7479,-3.8279,-3.8315,-3.8438,-3.8707,-3.8707,-3.8707,-3.8707,-3.8707,-3.8707,-3.8726,-3.9265,-3.9516,-3.9534,-3.9507,-3.9827,-4.0271,-3.9173,-3.9013,-3.9479,-3.8921,-3.8707,-3.8707,-3.8707,-3.8707,-3.8707,0.0,0.0,0.0,0.0,0.0,0.0,0.0,0.0,0.0,0.0,0.0,0.0,0.0,0.0,0.0,0.0,0.0,0.0,-0.9698,-0.9698,-0.9698,-0.9698,-0.9768,-0.9791,-0.9791,-0.9735,-0.9768,-0.9893,-1.0766,-1.1604,-1.2395,-1.3138,-1.3905,-1.466,-1.4549,-1.4541,-1.4688,-1.467,-1.5225,-1.6017,-1.5216,-1.5367,-1.5989,0.0,0.0,0.0,0.0,0.0,0.0,0.0,-1.4488,-1.4488,-1.4488,-1.4506,-1.4683,-1.5454,-1.6279,-1.7257,-1.8849,-1.9877,-2.0906,0.0,0.0,0.0,0.0,0.0,0.0,0.0,0.0,-2.8975,-2.8994,-2.9017,0.0,-2.9625,-3.0411,-3.1151,-3.1629,-3.3122,-3.4166,-3.4197,-3.496,-3.5474,-3.5493,-3.5246,-3.4988,-3.4712,-3.5177,-3.533,-3.5009,-3.5826,-3.6677,-3.7454,-3.7491,-3.7882,-3.8689,-3.8707,-3.8707,-3.8707,-3.8707,-3.8707,-3.8707,-3.8707,-3.8707,-3.8707,-3.8707,-3.8707,-3.8707,-3.8707,-3.8707,-3.8707,-3.8707,-3.8707,-3.8707,-3.8707,-3.8707,-3.8707,0.0,0.0,0.0,0.0,0.0,0.0,0.0,0.0,0.0,0.0,0.0,0.0,0.0,0.0,0.0,0.0,0.0,0.0,-0.9775,-0.9717,-0.9728,-0.9775,-0.9739,-0.9725,-0.9725,-0.9699,-0.9677,-0.9617,-1.0597,-1.1121,-1.1296,-1.2218,-1.2723,-1.2862,-1.2831,-1.2852,-1.2947,-1.3042,-1.3562,-1.4331,-1.4175,-1.4584,-1.5235,0.0,0.0,0.0,0.0,0.0,0.0,0.0,0.0,0.0,-1.4488,-1.4885,-1.5288,-1.4958,-1.6243,-1.7715,-1.7642,-1.9473,0.0,0.0,0.0,0.0,0.0,0.0,0.0,0.0,-2.7824,-2.8338,-2.8883,-2.9156,0.0,-2.9474,-2.9832,-3.0402,-3.1293,-3.1852,-3.2666,-3.4049,-3.4428,-3.4826,-3.5435,-3.5268,-3.4988,-3.4729,-3.4643,-3.4707,-3.5,-3.5247,-3.5779,-3.6641,-3.7192,-3.7631,-3.7863,-3.842,-3.8707,-3.8707,-3.8707,-3.8707,-3.8707,-3.8707,-3.8707,-3.8707,-3.8707,-3.8707,-3.8707,-3.8707,-3.8707,-3.8707,-3.8707,-3.8707,-3.8707,-3.8707,-3.8707,-3.8707,0.0,0.0,0.0,0.0,0.0,0.0,0.0,0.0,0.0,0.0,0.0,-0.9782,0.0,0.0,0.0,0.0,0.0,0.0,0.0,-0.9747,-0.9747,-0.9761,-0.9747,-0.9717,-0.9661,-0.9641,-0.9557,-0.9417,-1.0131,-1.059,-1.0767,-1.144,-1.1874,-1.2095,-1.2095,-1.2142,-1.2257,-1.2358,-1.27,-1.3164,-1.3316,-1.3819,-1.4506,0.0,0.0,0.0,0.0,0.0,0.0,0.0,0.0,0.0,-1.4488,-1.4829,-1.5197,-1.5031,-1.6243,-1.7734,-1.8192,-1.9785,0.0,0.0,0.0,0.0,0.0,0.0,0.0,0.0,0.0,-2.7952,-2.8429,-2.8913,-2.9267,-2.9392,-2.9494,-2.9812,-3.0544,-3.1035,-3.1717,-3.2923,-3.3717,-3.437,-3.4787,-3.4904,-3.483,-3.4519,-3.421,-3.4183,-3.4504,-3.4523,-3.4908,-3.5754,-3.6248,-3.6673,-3.7009,-3.7491,-3.7918,-3.8224,-3.8224,-3.8401,-3.8707,-3.8707,-3.8707,-3.8707,-3.8707,-3.8707,-3.8707,-3.8707,-3.8707,-3.8707,-3.8707,-3.8707,-3.8707,-3.8707,-3.8707,-3.8707,0.0,0.0,-0.9698,-0.9691,0.0,0.0,0.0,0.0,0.0,0.0,0.0,-0.9782,0.0,0.0,0.0,-0.9713,-0.9768,-0.9782,0.0,0.0,-0.9777,-0.9725,-0.9771,-0.9745,-0.9614,-0.9565,-0.9456,-0.9304,-0.9559,-1.0001,-1.0584,-1.0731,-1.1168,-1.1875,-1.1875,-1.1948,-1.2082,-1.2132,-1.2242,-1.2399,-1.2516,-1.3055,-1.3775,-1.3723,0.0,0.0,0.0,0.0,0.0,0.0,0.0,0.0,-1.4499,-1.4543,-1.4726,-1.5386,-1.6248,-1.7477,-1.9662,0.0,0.0,0.0,0.0,0.0,0.0,0.0,-2.5311,-2.5384,0.0,-2.7603,-2.7677,-2.8356,-2.8979,-2.9221,-2.9357,-2.9474,-2.9678,-3.0553,-3.1198,-3.1299,-3.2878,-3.3909,-3.3709,-3.4224,-3.4454,-3.4124,-3.3913,-3.3807,-3.3807,-3.3807,-3.4127,-3.4879,-3.4971,-3.5395,-3.6146,-3.6267,-3.6663,-3.7375,-3.7381,-3.776,-3.8493,-3.8634,-3.8707,-3.8707,-3.8707,-3.8707,-3.8707,-3.8707,-3.8707,-3.8707,-3.8707,-3.8707,-3.8707,-3.8707,-3.8707,-3.8707,0.0,0.0,-0.9675,-0.9559,0.0,0.0,0.0,0.0,-0.9789,-0.9717,-0.9775,-0.9791,-0.9789,-0.9725,0.0,-0.9782,-0.9784,-0.9818,-0.9863,0.0,-0.9893,-0.9925,-0.9899,-0.9813,-0.9689,-0.9705,-0.9617,-0.9385,-0.949,-0.9616,-0.9762,-0.9889,-1.0047,-1.0213,-1.0213,-1.0249,-1.0345,-1.0347,-1.0816,-1.1558,-1.1593,-1.2146,-1.2964,-1.293,-1.3437,0.0,0.0,0.0,0.0,0.0,0.0,0.0,-1.4533,-1.494,-1.5319,-1.4701,-1.6101,-1.7921,-1.8294,-1.9908,0.0,0.0,0.0,0.0,0.0,-2.4318,-2.463,-2.5274,-2.5678,-2.6098,-2.6741,-2.753,-2.8135,-2.833,-2.8947,-2.9474,-2.9678,-3.0038,-3.054,-3.1218,-3.1845,-3.2398,-3.2831,-3.3362,-3.3559,-3.328,-3.3595,-3.3807,-3.3807,-3.3807,-3.3862,-3.4054,-3.4686,-3.5091,-3.5276,-3.5938,-3.6381,-3.6574,-3.6552,-3.6668,-3.6882,-3.8132,-3.8707,-3.8707,-3.8707,-3.8707,-3.8707,-3.8707,-3.8707,-3.8707,-3.8707,-3.8707,-3.8707,-3.8707,-3.8707,-3.8707,0.0,0.0,0.0,0.0,0.0,0.0,0.0,0.0,-0.9401,-0.9742,-0.985,-0.9881,-0.9857,-0.9777,0.0,0.0,-0.9798,-0.9811,-0.9857,-0.9875,-0.9933,-0.9992,-0.9938,-0.9874,-0.9842,-0.9838,-0.9774,-0.964,-0.9677,-0.9628,-0.9508,-0.9633,-0.9698,-0.9698,-0.9698,-0.9728,-0.9754,-0.9777,-1.01,-1.057,-1.0624,-1.1182,-1.1978,-1.1978,-1.2492,-1.3237,-1.3195,0.0,0.0,0.0,0.0,0.0,0.0,0.0,-1.518,-1.5062,-1.6211,-1.765,0.0,0.0,0.0,0.0,0.0,0.0,0.0,-2.419,-2.4318,-2.474,-2.5146,-2.5531,-2.5952,-2.6686,-2.7371,-2.789,-2.8336,-2.8804,-2.9299,-2.957,-2.9876,-3.0338,-3.0969,-3.1429,-3.161,-3.2255,-3.2525,-3.2258,-3.2845,-3.3238,-3.3238,-3.3587,-3.3807,-3.3807,-3.4209,-3.4439,-3.4439,-3.4897,-3.5293,-3.5678,-3.5689,-3.5897,-3.6358,-3.7564,-3.8334,-3.8707,-3.8707,-3.8707,-3.8707,-3.8707,-3.8707,-3.8707,-3.8707,-3.8707,-3.8707,-3.8707,-3.8707,-3.8707,0.0,0.0,0.0,0.0,0.0,0.0,0.0,0.0,0.0,-0.9817,-0.9955,-0.9957,-0.9922,-0.9863,-0.9818,0.0,0.0,0.0,-0.9818,-0.9887,-0.9965,-1.0006,-0.9971,-0.9965,-1.003,-0.9955,-0.9916,-0.9916,-0.9899,-0.9793,0.0,-0.9672,-0.9721,-0.9721,-0.9706,-0.9698,-0.9706,-0.9761,-0.9784,-0.9798,-0.9869,-1.0326,-1.098,-1.098,-1.1516,-1.228,-1.228,-1.2846,-1.3608,-1.3728,0.0,0.0,0.0,0.0,-1.4858,-1.5466,-1.6171,-1.7005,0.0,0.0,0.0,0.0,0.0,0.0,0.0,-2.4074,-2.4113,-2.4113,-2.4684,-2.5201,-2.5201,-2.5841,-2.6612,-2.7273,-2.7493,-2.786,-2.8686,-2.9003,-2.9228,-2.9381,-3.0212,-3.0676,-3.0414,-3.111,-3.1486,-3.1225,-3.1953,-3.2394,-3.2394,-3.3164,-3.3605,-3.3578,-3.3733,-3.3807,-3.3807,-3.3807,-3.4109,-3.4778,-3.4778,-3.5237,-3.6093,-3.6772,-3.7528,-3.8273,-3.831,-3.8279,-3.8279,-3.8279,-3.8279,-3.8279,-3.8279,-3.8303,-3.8279,-3.8285,-3.8285,-3.8285,0.0,0.0,0.0,0.0,0.0,0.0,0.0,0.0,0.0,0.0,-0.9904,-0.9933,-0.9972,-0.9927,-0.9881,-0.9881,-0.9949,-0.996,-0.9881,0.0,0.0,-1.0086,-1.0078,-1.0078,-1.0086,-1.0011,-0.9982,-0.9982,-0.9927,0.0,0.0,0.0,0.0,-0.9777,-0.9717,-0.9698,-0.9698,-0.9713,-0.9747,-0.9798,-0.9805,-0.9913,-1.0068,-1.0068,-1.0615,-1.1364,-1.1364,-1.1939,-1.2776,-1.3413,-1.3781,0.0,0.0,0.0,-1.4841,-1.4648,-1.5284,-1.6164,0.0,0.0,0.0,0.0,0.0,0.0,0.0,0.0,-2.3774,0.0,-2.4069,-2.4355,-2.4355,-2.5016,-2.5605,-2.5715,-2.63,-2.7034,-2.7842,-2.8135,-2.8556,-2.9321,-2.9683,-2.9794,-2.9588,-3.029,-3.0638,-3.0387,-3.1109,-3.1549,-3.1549,-3.232,-3.2745,-3.2738,-3.3423,-3.3807,-3.3807,-3.3807,-3.3844,-3.3962,-3.3962,-3.4402,-3.5182,-3.5275,-3.5799,-3.6618,-3.6608,-3.6632,-3.6632,-3.6632,-3.6632,-3.6632,-3.6632,-3.6641,-3.662,-3.6618,-3.6607,-3.6628,0.0,0.0,0.0,0.0,0.0,0.0,0.0,0.0,0.0,0.0,0.0,-1.003,-1.0057,-1.0006,-0.9965,-0.9965,-0.9955,-0.9955,-0.9965,-1.0052,0.0,-1.0094,-1.0094,-1.0094,-1.0094,-1.0074,-1.0061,-1.0061,0.0,0.0,0.0,-0.9881,-0.9838,0.0,0.0,0.0,-0.9698,-0.9698,-0.9721,-0.9739,-0.9739,-1.0039,-1.0413,-0.9963,-1.0322,-1.1026,-1.0582,-1.1017,-1.1872,-1.2199,-1.2998,-1.392,-1.4239,0.0,0.0,0.0,-1.5339,0.0,-1.8136,0.0,0.0,0.0,0.0,0.0,-2.3165,0.0,-2.3414,-2.3414,-2.3544,-2.3735,-2.4132,-2.4483,-2.4869,-2.5329,-2.5695,-2.6209,-2.7016,-2.7582,-2.8073,-2.8461,-2.8984,-2.9283,-2.9169,-2.9494,-2.9659,-2.9544,-3.0283,-3.0723,-3.0723,-3.1494,-3.1946,-3.1942,-3.2261,-3.246,-3.2449,-3.2904,-3.3345,-3.3807,-3.3807,-3.3999,-3.432,-3.432,-3.5046,-3.6282,-3.6316,-3.6297,-3.631,-3.63,-3.6295,-3.6295,-3.6295,-3.6278,-3.6307,-3.6297,-3.6305,-3.6295,0.0,0.0,0.0,0.0,0.0,0.0,0.0,0.0,0.0,0.0,0.0,-1.0094,-1.0094,0.0,0.0,0.0,-0.9995,-1.0,-1.0054,0.0,0.0,0.0,-1.0133,-1.0113,-1.0094,-1.0094,-1.0094,-1.0094,0.0,0.0,-0.9992,-0.9933,-0.9869,0.0,-0.9725,-0.9698,0.0,0.0,-0.9698,-0.9717,-0.9919,-1.037,-1.0857,-1.0461,-1.0713,-1.1185,-1.0398,-1.0596,-1.1253,-1.128,-1.2169,-1.3305,-1.3536,-1.3963,0.0,0.0,0.0,0.0,0.0,0.0,0.0,0.0,0.0,0.0,0.0,0.0,-2.3069,0.0,-2.3141,-2.3346,-2.3837,-2.4016,-2.4295,-2.4979,-2.5109,-2.5364,-2.6172,-2.6814,-2.7328,-2.775,-2.8338,-2.8796,-2.8975,-2.8994,-2.8994,-2.8994,-2.9567,-2.9898,-2.9898,-3.065,-3.1084,-3.1089,-3.1297,-3.1396,-3.1384,-3.1997,-3.2713,-3.3505,-3.3505,-3.3597,-3.3807,-3.3807,-3.4486,-3.5661,-3.5663,-3.5677,-3.5659,-3.568,-3.566,-3.566,-3.566,-3.5661,-3.5671,-3.5671,-3.568,-3.5661,0.0,0.0,0.0,0.0,0.0,0.0,0.0,0.0,0.0,0.0,0.0,-1.0094,-1.0094,-1.0152,-1.0161,-1.01,-1.0144,-1.0186,-1.019,0.0,0.0,0.0,0.0,0.0,-1.0094,-1.0094,-1.0094,0.0,0.0,0.0,-0.9992,-0.9933,-0.9869,-0.9791,-0.9725,-0.9698,-0.9698,0.0,0.0,-0.9772,-1.0526,-1.0857,-1.0985,-1.1709,-1.2003,-1.1948,-1.1203,-1.1004,-1.1124,-1.1258,-1.1403,-1.1675,-1.2507,-1.2796,-1.2968,0.0,0.0,0.0,0.0,0.0,0.0,0.0,0.0,0.0,0.0,0.0,-2.2721,-2.2721,-2.2972,-2.3212,-2.3253,-2.3522,-2.3834,-2.4206,-2.4263,-2.4538,-2.5366,-2.5513,-2.6101,-2.7622,-2.7842,-2.8154,-2.892,-2.8994,-2.8994,-2.8994,-2.903,-2.9049,-2.9049,-2.9843,-3.0265,-3.0265,-3.0993,-3.1403,-3.1384,-3.1425,-3.1891,-3.2665,-3.2665,-3.3066,-3.3807,-3.3807,-3.3844,-3.3935,-3.3935,-3.3935,-3.3935,-3.3917,-3.3944,-3.3944,-3.3944,-3.3917,-3.3917,-3.3917,-3.3935,-3.3935,0.0,0.0,0.0,0.0,0.0,0.0,0.0,0.0,0.0,0.0,0.0,0.0,0.0,-1.0194,-1.019,-1.017,-1.0191,0.0,0.0,0.0,0.0,0.0,0.0,0.0,0.0,-1.0156,0.0,0.0,0.0,-0.9992,-0.9938,-0.9857,-0.9798,-0.9732,-0.9713,-0.9698,-0.9698,-0.9698,0.0,-0.9772,-1.0581,-1.1248,-1.1822,-1.212,-1.2572,-1.2957,-1.2177,-1.1976,-1.2059,-1.2076,-1.249,-1.2959,-1.2757,-1.3041,-1.3511,-1.3791,-1.4029,0.0,0.0,0.0,0.0,0.0,0.0,-2.1531,-2.1739,-2.2148,-2.2436,-2.2436,-2.2544,-2.2669,-2.2848,-2.3346,-2.3735,-2.3876,-2.4074,-2.43,-2.4575,-2.5072,-2.5623,-2.6193,-2.6722,-2.7346,-2.8154,-2.8227,-2.8448,-2.8957,-2.8994,-2.8994,-2.8994,-2.925,-2.9439,-2.9439,-2.9719,-3.011,-3.0612,-3.0638,-3.1023,-3.1839,-3.236,-3.2738,-3.3066,-3.356,-3.3807,-3.3807,-3.3807,-3.3807,-3.3807,-3.3807,-3.3807,-3.3807,-3.3807,-3.3807,-3.3807,-3.3807,-3.3807,-3.3807,0.0,0.0,0.0,-1.0201,0.0,-1.0175,-1.0133,-1.0133,-1.0133,-1.0133,0.0,0.0,0.0,0.0,-1.0209,-1.0209,-1.0191,-1.0191,-1.0191,-1.0191,0.0,0.0,0.0,0.0,0.0,-1.0198,-1.0175,0.0,0.0,0.0,0.0,-0.9863,-0.9777,-0.9698,-0.9698,-0.9698,0.0,0.0,0.0,-0.979,-1.0865,-1.1681,-1.2296,-1.287,-1.3473,-1.3861,-1.3133,-1.2922,-1.296,-1.2664,-1.2991,-1.3349,-1.2526,-1.2637,-1.3113,-1.3401,-1.3656,0.0,-1.6426,0.0,0.0,0.0,0.0,-2.0925,-2.1943,-2.2107,-2.2092,-2.2375,-2.236,-2.2332,-2.2537,-2.3014,-2.3392,-2.3522,-2.3816,-2.4016,-2.4016,-2.4591,-2.5109,-2.5384,-2.586,-2.6502,-2.731,-2.7402,-2.7622,-2.8154,-2.8448,-2.8613,-2.8613,-2.8847,-2.8994,-2.8994,-2.8994,-2.926,-2.9784,-2.9784,-3.0199,-3.1011,-3.1538,-3.1942,-3.2228,-3.2738,-3.2985,-3.303,-3.3295,-3.356,-3.3807,-3.3807,-3.3807,-3.3807,-3.3807,-3.3807,-3.3807,-3.3807,-3.3807,-3.3807,-1.0293,-1.0293,-1.0273,-1.0215,-1.0209,-1.0206,-1.0202,-1.0202,-1.0198,-1.0198,0.0,0.0,0.0,0.0,0.0,-1.0197,-1.0191,-1.0191,-1.0191,-1.0191,0.0,0.0,0.0,0.0,-1.0198,-1.0205,-1.0202,-1.0194,-1.0133,-1.0034,-0.9899,0.0,-0.9831,-0.9706,-0.9706,-0.9706,-0.9698,0.0,-0.9717,-0.9864,-1.1434,-1.2095,-1.2326,-1.4024,-1.467,-1.4634,-1.405,-1.3856,-1.378,-1.3059,-1.2815,-1.2661,-1.1757,-1.1464,-1.1603,-1.2488,-1.3291,-1.4224,0.0,0.0,0.0,0.0,0.0,0.0,-2.2705,0.0,-2.171,-2.253,-2.2466,-2.2276,-2.231,-2.2527,-2.2797,-2.3117,-2.3459,-2.3692,-2.3692,-2.3976,-2.4483,-2.5274,-2.5366,-2.5676,-2.6502,-2.6557,-2.6576,-2.6612,-2.731,-2.775,-2.775,-2.8503,-2.8938,-2.8957,-2.8957,-2.8975,-2.8994,-2.8994,-2.9389,-3.0162,-3.018,-3.0589,-3.1356,-3.1374,-3.1419,-3.1455,-3.2237,-3.3012,-3.3733,-3.3788,-3.3807,-3.3807,-3.3807,-3.3807,-3.3807,-3.3807,-3.3807,-3.3844,-1.0293,-1.0293,-1.0273,-1.0215,-1.0195,-1.0195,-1.0206,-1.0208,-1.0191,0.0,0.0,0.0,-1.0112,-1.0114,-1.0122,-1.0138,-1.0177,-1.0196,-1.0196,-1.0196,-1.0199,-1.0206,-1.0241,-1.0258,-1.0194,-1.0208,-1.0193,-1.0194,-1.0133,-1.0061,-0.9962,-0.9922,-0.9863,-0.9775,-0.9775,-0.9747,-0.9698,-0.9698,0.0,-1.06,-1.104,-1.1995,-1.3179,-1.3654,-1.4286,-1.4901,-1.4725,-1.5132,-1.5728,-1.5516,-1.5451,-1.5195,-1.367,-1.281,-1.2507,-1.3329,-1.3728,-1.4121,-1.5191,0.0,0.0,0.0,0.0,0.0,-2.0276,0.0,-2.1377,-2.2162,-2.2,-2.1885,-2.247,-2.25,-2.2453,-2.2517,-2.2982,-2.3414,-2.3671,-2.3774,-2.4008,-2.4482,-2.452,-2.485,-2.564,-2.5713,-2.597,-2.6557,-2.682,-2.693,-2.6924,-2.7145,-2.753,-2.8117,-2.8136,-2.8411,-2.8975,-2.8994,-2.9108,-2.9333,-2.9918,-3.0323,-3.0564,-3.1127,-3.1415,-3.1415,-3.1642,-3.1868,-3.2155,-3.3331,-3.3807,-3.3807,-3.3807,-3.3807,-3.3807,-3.3807,-3.3925,-3.4091,-1.0247,-1.0266,-1.0247,-1.0208,-1.0178,-1.0169,-1.0203,-1.0187,-1.0175,0.0,0.0,0.0,-1.0028,-1.004,-1.0061,-1.0061,-1.0121,-1.0175,-1.0194,-1.0194,-1.0194,-1.0193,-1.0236,-1.0248,-1.0206,-1.0192,-1.0204,-1.0193,-1.0155,-1.0089,-0.9997,-0.9971,-0.9904,-0.9844,-0.9844,-0.9798,-0.9739,-0.9739,-0.9986,-1.0461,-1.1132,-1.2013,-1.3003,-1.3719,-1.4354,-1.4898,-1.4966,-1.5374,-1.5939,-1.6362,-1.6253,-1.5772,-1.4766,-1.3863,-1.3291,-1.3767,-1.417,-1.4555,-1.5055,0.0,0.0,0.0,0.0,0.0,-2.0333,-2.0717,-2.1098,-2.2184,-2.2086,-2.2007,-2.2765,-2.2652,-2.2463,-2.2463,-2.2686,-2.2933,-2.3253,-2.3392,-2.3628,-2.3937,-2.3996,-2.4218,-2.4832,-2.4887,-2.5089,-2.5566,-2.5919,-2.625,-2.6576,-2.6612,-2.6814,-2.7273,-2.7291,-2.7695,-2.8503,-2.8503,-2.8686,-2.8994,-2.9485,-2.9711,-2.9729,-3.018,-3.0388,-3.0406,-3.0748,-3.0912,-3.1009,-3.2279,-3.2801,-3.2805,-3.2908,-3.308,-3.3293,-3.3405,-3.3718,-3.4089,0.0,-1.0185,-1.0185,-1.0205,-1.0148,-1.0125,-1.0194,-1.0145,-1.0113,0.0,-1.0146,-1.005,-0.9918,-0.9955,-0.9992,-1.0011,-1.0065,-1.0133,-1.0194,-1.0194,-1.0192,-1.0202,-1.0197,-1.0209,-1.0208,-1.02,-1.0192,-1.0203,-1.0206,-1.0131,-1.0025,-1.0025,-0.9991,-0.9922,-0.9922,-0.9875,-0.9811,-0.9811,-0.9826,-0.9994,-1.1397,-1.2076,-1.2408,-1.3969,-1.4624,-1.4738,-1.4927,-1.5078,-1.5329,-1.6311,-1.6176,-1.5599,-1.5407,-1.4862,-1.4305,-1.4209,-1.4805,0.0,-1.5484,-1.5484,0.0,-1.8285,-1.8256,0.0,-2.1433,-2.1249,-2.0845,-2.224,-2.2244,-2.2219,-2.2901,-2.281,-2.2633,-2.2607,-2.2502,-2.248,-2.2669,-2.2972,-2.3259,-2.3588,-2.3631,-2.3774,-2.4074,-2.4094,-2.4094,-2.4151,-2.485,-2.5566,-2.63,-2.6337,-2.6374,-2.6465,-2.6465,-2.6851,-2.7658,-2.775,-2.8154,-2.8888,-2.8957,-2.8994,-2.8994,-2.8994,-2.8994,-2.9053,-2.9747,-3.007,-3.0125,-3.084,-3.1236,-3.1421,-3.1712,-3.2087,-3.2544,-3.2794,-3.3198,-3.3721,-1.0194,-1.0163,-1.0143,-1.0186,-1.0138,-1.0121,-1.0186,-1.0144,-1.0121,-1.0192,-1.0144,-1.0073,-0.9991,-0.9982,-1.0025,-1.0081,-1.0133,-1.0194,-1.0194,-1.0194,-1.0202,-1.0201,-1.0194,-1.0233,-1.0287,-1.0234,-1.0195,-1.0194,-1.0194,-1.019,-1.0159,-1.0159,-1.0131,-1.0061,-1.0061,-0.9996,-0.9869,-0.9869,-1.027,-1.0922,-1.107,-1.1911,-1.3117,-1.356,-1.4195,-1.4867,-1.497,-1.5522,-1.633,-1.7176,-1.7818,-1.803,-1.6676,-1.6561,-1.683,-1.6176,-1.6561,-1.7215,-1.7215,-1.7215,-1.733,-1.783,-1.8328,0.0,-1.9531,-1.9898,-2.0364,-2.1292,-2.1148,-2.1031,-2.1716,-2.2078,-2.2273,-2.2159,-2.2634,-2.294,-2.2721,-2.2772,-2.2923,-2.3259,-2.33,-2.3305,-2.3392,-2.3392,-2.3522,-2.3774,-2.4182,-2.4502,-2.4667,-2.4667,-2.4961,-2.5603,-2.5621,-2.6007,-2.6833,-2.7475,-2.7879,-2.8044,-2.8705,-2.8994,-2.8994,-2.8994,-2.8994,-2.8994,-2.9163,-2.9242,-2.926,-2.9389,-3.0236,-3.1427,-3.1693,-3.186,-3.1945,-3.2013,-3.2244,-3.261,-1.0091,-1.0076,-1.0065,-1.0129,-1.0073,-1.0033,-1.0121,-1.0067,-1.0049,-1.0148,-1.0096,-1.0024,-0.996,-0.9972,-1.0011,-1.0053,-1.0138,-1.0198,-1.0202,-1.0201,-1.0197,-1.0195,-1.0207,-1.0219,-1.0252,-1.023,-1.0195,-1.0195,-1.0197,-1.02,-1.0205,-1.0205,-1.0177,-1.0141,-1.0148,-1.0086,-0.9955,-0.9955,-1.0184,-1.0621,-1.1352,-1.2367,-1.3495,-1.4017,-1.4483,-1.4921,-1.4977,-1.5899,-1.7099,-1.7099,-1.7946,-1.8773,-1.7503,-1.7676,-1.8177,-1.733,-1.7696,-1.8254,-1.7811,-1.7702,-1.7792,-1.8234,-1.8669,0.0,0.0,-1.9907,-2.047,-2.1613,-2.1323,-2.1202,-2.2281,-2.2204,-2.2063,-2.2443,-2.2705,-2.2916,-2.3076,-2.287,-2.2772,-2.2923,-2.2947,-2.3021,-2.3189,-2.3189,-2.3259,-2.3437,-2.3774,-2.3937,-2.3937,-2.4113,-2.4373,-2.4777,-2.4795,-2.5181,-2.5988,-2.6392,-2.6796,-2.7218,-2.7622,-2.8026,-2.8411,-2.8411,-2.8631,-2.8994,-2.8994,-2.8994,-2.8994,-2.8994,-2.9485,-3.0226,-3.0485,-3.0781,-3.102,-3.1267,-3.163,-3.2085,-0.9997,-0.9982,-0.9992,-1.007,-0.9986,-0.9938,-1.0065,-0.9976,-0.9963,-1.0101,-1.008,-1.0011,-0.9944,-0.9996,-1.0011,-1.003,-1.0131,-1.0203,-1.0205,-1.0205,-1.0218,-1.0221,-1.0213,-1.0214,-1.0214,-1.0219,-1.0212,-1.0215,-1.0215,-1.0212,-1.0227,-1.0209,-1.0202,-1.0207,-1.0196,-1.0131,0.0,0.0,-1.0172,-1.0556,-1.1901,-1.2721,-1.3229,-1.4287,-1.4684,-1.472,-1.4942,-1.6086,-1.7388,-1.6907,-1.7734,-1.8881,-1.8177,-1.8542,-1.9073,-1.8215,-1.8581,-1.9092,-1.8388,-1.8196,-1.8369,-1.9073,-1.9246,-1.9439,0.0,0.0,0.0,-2.1836,-2.1519,-2.1401,-2.2634,-2.2178,-2.185,-2.2532,-2.2687,-2.2885,-2.336,-2.3173,-2.2968,-2.2805,-2.2746,-2.2822,-2.3069,-2.3093,-2.3093,-2.3093,-2.3414,-2.3588,-2.3588,-2.3876,-2.4016,-2.4016,-2.4074,-2.4424,-2.5065,-2.5289,-2.5713,-2.6374,-2.6539,-2.6943,-2.7567,-2.7732,-2.8154,-2.8796,-2.892,-2.8994,-2.8994,-2.8994,-2.9026,-2.9082,-2.9326,-2.9691,-3.0146,-3.0527,-3.1013,-3.1518,-0.9997,-0.996,-0.9933,-0.9992,-0.9955,-0.9927,-0.9992,-0.9946,-0.9973,-1.0155,-1.019,-1.0144,-1.0078,-1.0082,-1.0105,-1.0167,-1.019,-1.0208,-1.0194,-1.0253,-1.0293,-1.0291,-1.0238,-1.0233,-1.0294,-1.0236,-1.0237,-1.0293,-1.0293,-1.0293,-1.0292,-1.0224,-1.019,-1.0194,-1.0191,0.0,0.0,0.0,-1.097,-1.2392,-1.2584,-1.2152,-1.157,-1.3275,-1.3911,-1.4021,-1.4884,-1.5805,-1.6734,-1.735,-1.8203,-1.8972,-1.8876,-1.9446,-1.9985,-1.9107,-1.9465,-2.0139,-2.0042,-2.0004,-2.0042,-2.0139,-2.015,-2.0169,-2.0292,0.0,-2.0342,-2.0518,0.0,-2.0433,-2.0551,0.0,0.0,-2.1405,-2.2565,-2.3407,-2.3177,-2.3708,-2.3876,-2.3218,-2.2873,-2.2721,-2.2746,-2.2772,-2.2772,-2.2772,-2.3069,-2.3277,-2.3277,-2.3282,-2.3305,-2.3305,-2.3588,-2.381,-2.3901,-2.4897,-2.5458,-2.555,-2.6264,-2.6649,-2.6759,-2.7475,-2.7842,-2.797,-2.8705,-2.8994,-2.8994,-2.8994,-2.9138,-2.9363,-2.9391,-2.9553,-2.9757,-2.981,-2.9988,-3.0327,-0.9997,-0.9972,-0.9957,-0.9992,-0.9949,-0.9904,-0.9944,-0.9923,-0.9941,-1.0077,-1.0054,-1.0025,-1.0048,-1.0029,-1.0061,0.0,-1.0175,-1.0193,-1.0198,-1.0221,-1.0241,-1.0241,-1.0215,-1.0211,-1.0236,-1.0213,-1.0238,-1.0293,-1.0293,-1.0287,-1.0241,-1.0258,-1.0238,-1.02,-1.0202,0.0,-1.0859,0.0,-1.081,-1.1949,-1.1949,-1.1681,-1.1509,-1.3767,-1.4603,-1.4667,-1.5068,-1.5753,-1.6465,-1.6311,-1.7465,-1.8907,-1.8414,-1.9196,-2.0235,-1.985,-2.0004,-2.0312,-2.0312,-2.0312,-2.0312,-2.0312,-2.0312,-2.0312,-2.0312,-2.0312,-2.0427,-2.0908,0.0,0.0,0.0,0.0,0.0,0.0,-2.2015,-2.2536,-2.2772,-2.3069,-2.3291,-2.3358,-2.3244,-2.3029,-2.2729,-2.2563,-2.2463,-2.2463,-2.2738,-2.2923,-2.2923,-2.3093,-2.3189,-2.3189,-2.3346,-2.3482,-2.3692,-2.4164,-2.4509,-2.4704,-2.5052,-2.5456,-2.5915,-2.6245,-2.6649,-2.7145,-2.807,-2.8487,-2.8521,-2.9144,-2.946,-2.9564,-2.9557,-2.9633,-2.9713,-2.9829,-2.9916,-3.007,-0.9962,-0.9962,-0.9957,-0.9941,-0.9904,-0.9863,-0.983,-0.9794,-0.9813,-0.9887,-0.9832,-0.9825,-0.9938,-0.9987,-1.0039,-1.009,-1.0156,-1.0205,-1.0205,-1.0207,-1.0207,-1.019,-1.0205,-1.0198,-1.0194,-1.0223,-1.0244,-1.0293,-1.0293,-1.0283,-1.023,-1.0266,-1.0248,-1.0198,-1.02,-1.065,-1.1354,0.0,-1.1098,-1.2098,-1.2098,-1.22,-1.2568,-1.4222,-1.4997,-1.5189,-1.5189,-1.5618,-1.6118,-1.5945,-1.7119,-1.8612,-1.8465,-1.9273,-2.0312,-2.0312,-2.0312,-2.0312,-2.0312,-2.0312,-2.0312,-2.0312,-2.0312,-2.0312,-2.0312,-2.0465,-2.0735,-2.11,-2.1081,0.0,0.0,0.0,-2.1153,-2.1628,0.0,-2.2035,-2.2284,-2.246,-2.2785,-2.3362,-2.3487,-2.337,-2.288,-2.2669,-2.2508,-2.2426,-2.2599,-2.2686,-2.2599,-2.2832,-2.2958,-2.2958,-2.3021,-2.3165,-2.3414,-2.361,-2.3816,-2.4074,-2.4151,-2.4502,-2.509,-2.5311,-2.5713,-2.634,-2.7322,-2.7905,-2.8166,-2.9,-2.9514,-2.9779,-2.9768,-2.983,-2.9896,-2.9969,-3.0052,-3.0138,-0.9899,-0.9899,0.0,-0.9818,-0.9798,-0.9765,-0.9626,-0.9555,-0.9528,-0.9607,-0.9546,-0.9597,-0.9793,-0.9919,-1.0039,-1.009,-1.0156,-1.0194,-1.0198,-1.02,-1.0207,-1.0202,-1.0198,-1.0202,-1.021,-1.0258,-1.0293,-1.0293,-1.0293,-1.0293,-1.0293,-1.0222,-1.0202,-1.0198,-1.0202,-1.0654,-1.1393,-1.1363,-1.231,-1.3819,-1.3819,-1.4258,-1.4811,-1.418,-1.4478,-1.5189,-1.5189,-1.5209,-1.5484,-1.708,-1.7657,-1.8023,-1.9696,-2.0254,-2.0312,-2.0312,-2.0312,-2.0312,-2.0312,-2.0312,-2.0312,-2.0312,-2.0312,-2.0312,-2.0312,-2.0908,-2.1254,-2.0485,-2.16,-2.2504,-2.1825,-2.2318,-2.2574,-2.1811,-2.2339,0.0,0.0,-2.2303,-2.2895,-2.3172,-2.3488,-2.3566,-2.3212,-2.3165,-2.3045,-2.2721,-2.2695,-2.2573,-2.2338,-2.2321,-2.2338,-2.2338,-2.259,-2.2721,-2.2721,-2.3369,-2.3714,-2.3714,-2.4036,-2.4208,-2.4263,-2.5054,-2.5421,-2.5476,-2.6487,-2.7378,-2.813,-2.8358,-2.9046,-2.999,-2.9982,-3.0155,-3.0355,-3.0089,-3.015,-3.0398,0.0,0.0,0.0,0.0,0.0,-0.971,-0.9446,-0.934,-0.9296,-0.9278,-0.9287,-0.941,-0.9699,-0.9855,-0.9986,-1.0086,-1.0656,-1.0979,-1.0994,-1.0992,-1.1011,-1.1062,-1.0513,-1.0194,-1.0194,-1.0218,-1.0261,-1.0293,-1.0293,-1.0273,-1.0234,-1.0265,-1.0241,-1.0194,-1.0198,-1.0976,0.0,0.0,0.0,-1.3896,-1.3844,-1.4287,-1.4914,-1.4709,-1.4807,-1.5075,-1.5075,-1.5127,-1.5368,-1.6522,-1.7253,-1.7907,-1.9073,-1.9842,-2.0312,-2.0312,-2.0312,-2.0312,-2.0312,-2.0312,-2.0312,-2.0312,-2.0312,-2.0312,-2.0369,-2.0996,-2.1334,-2.0491,-2.1622,-2.2553,-2.1779,-2.234,-2.2647,-2.1821,-2.1883,-2.1737,0.0,-2.1244,-2.1642,-2.1722,-2.2428,-2.2898,-2.287,-2.3057,-2.3141,-2.3045,-2.2822,-2.266,-2.2563,-2.2096,-2.1974,-2.2282,-2.2084,-2.2214,-2.2695,-2.3141,-2.3477,-2.3692,-2.4036,-2.419,-2.4208,-2.4483,-2.4671,-2.4855,-2.5881,-2.6537,-2.7004,-2.8332,-2.9091,-2.9452,-3.004,-3.0321,-3.0398,-3.0299,-3.0323,-3.0398,-0.9782,-0.9768,-0.9768,-0.9768,-0.9721,-0.9594,-0.9269,-0.9376,-0.9498,-0.9515,-0.9788,-1.0146,-1.0532,-1.0426,-1.0385,-1.0547,-1.1079,-1.1291,-1.0994,-1.1526,-1.1618,-1.1062,-1.0795,-1.051,-1.0214,-1.0221,-1.0263,-1.0293,-1.0293,-1.0273,-1.0234,-1.0264,-1.023,-1.0206,-1.019,-1.1095,-1.2594,-1.203,-1.2747,-1.4245,-1.4209,-1.449,-1.4894,-1.495,-1.4977,-1.5014,-1.5049,-1.5133,-1.5388,-1.6542,-1.7273,-1.7907,-1.9092,-1.9842,-2.0312,-2.0312,-2.0312,-2.0312,-2.0312,-2.0312,-2.0312,-2.0312,-2.0312,-2.03,-2.0352,-2.0997,-2.1411,-2.0864,-2.1872,-2.2784,-2.2593,-2.2747,-2.2728,-2.2209,-2.1814,-2.1265,0.0,-2.0498,-2.0676,-2.0739,-2.168,0.0,-2.2374,-2.2622,-2.2833,-2.2941,-2.2735,-2.2667,-2.2703,-2.2269,-2.2096,-2.231,-2.2003,-2.2108,-2.2695,-2.3021,-2.3369,-2.3692,-2.4036,-2.4247,-2.4303,-2.4303,-2.4428,-2.4645,-2.5347,-2.5899,-2.6403,-2.7677,-2.8395,-2.8772,-2.961,-2.9948,-2.9987,-3.0294,-3.0398,-3.0398,-0.9721,-0.9727,-0.9738,-0.9712,-0.9587,-0.9385,-0.9161,-0.9612,-1.0049,-1.0262,-1.0929,-1.157,-1.2072,-1.1551,-1.1238,-1.1397,-1.1483,-1.1194,-1.0444,-1.1881,-1.2035,-1.0402,-1.1084,-1.1088,-1.0229,-1.0276,-1.0293,-1.0293,-1.0293,-1.0293,-1.0292,-1.0236,-1.0203,-1.0209,-1.0196,-1.1053,-1.2503,-1.2503,-1.3425,-1.4904,-1.4904,-1.4904,-1.4904,-1.4913,-1.4942,-1.5021,-1.514,-1.5189,-1.5465,-1.7119,-1.7702,-1.8003,-1.9754,-2.0312,-2.0312,-2.0312,-2.0312,-2.0312,-2.0312,-2.0312,-2.0312,-2.0312,-2.0292,-2.0292,-2.0319,-2.0932,-2.1532,-2.1529,-2.2301,-2.3225,-2.4077,-2.357,-2.3015,-2.2987,-2.2188,-2.1293,-2.0485,-2.0209,-2.0155,-2.0334,-2.1286,0.0,0.0,-2.1948,-2.2216,-2.2526,-2.2576,-2.2629,-2.277,-2.2729,-2.2599,-2.2321,-2.2321,-2.2436,-2.2695,-2.3045,-2.3392,-2.3692,-2.4036,-2.4321,-2.4495,-2.4512,-2.4623,-2.4818,-2.4937,-2.5487,-2.6263,-2.651,-2.7082,-2.7909,-2.8717,-2.9063,-2.9198,-3.0083,-3.0398,-3.0398,-0.9706,-1.0058,-1.0263,-0.9967,-0.9484,-0.9206,-0.9438,-0.9646,-0.9805,-0.9911,-1.0796,-1.1306,-1.1031,-1.1636,-1.1895,-1.1436,-1.2536,-1.3195,-1.3032,-1.3436,-1.3209,-1.2172,-1.1738,-1.1124,-1.0282,-1.0292,-1.0293,-1.0293,-1.0293,-1.0264,-1.0224,-1.0217,-1.021,-1.0192,-1.0206,-1.1053,-1.2503,-1.2503,-1.3425,-1.4904,-1.4904,-1.4904,-1.4913,-1.4957,-1.4992,-1.4995,-1.5035,-1.5127,-1.5465,-1.7119,-1.7702,-1.8003,-1.9754,-2.0312,-2.0312,-2.0312,-2.0312,-2.0312,-2.0312,-2.0312,-2.0312,-2.0312,-2.0301,-2.0334,-2.0436,-2.1078,-2.1487,-2.0897,-2.2443,-2.3758,-2.3392,-2.4164,-2.4639,-2.4039,-2.3182,-2.2323,-2.1459,-2.1216,-2.1131,-2.1201,-2.0885,-2.0847,-2.1312,-2.2416,-2.3157,-2.3238,-2.3611,-2.3787,-2.3674,-2.315,-2.2783,-2.2599,-2.2548,-2.2583,-2.2695,-2.3277,-2.361,-2.3714,-2.4192,-2.4444,-2.4512,-2.4654,-2.4814,-2.4949,-2.4986,-2.5203,-2.5608,-2.6311,-2.6736,-2.7024,-2.7871,-2.8563,-2.9198,-3.0083,-3.0398,-3.0398,-0.996,-1.0398,-1.0764,-1.0896,-1.0215,-0.9762,-1.0088,-1.0236,-1.037,-1.0561,-1.1421,-1.199,-1.191,-1.2526,-1.2818,-1.2526,-1.3387,-1.3816,-1.3494,-1.4187,-1.4082,-1.2895,-1.2365,-1.1718,-1.0898,-1.0488,-1.0293,-1.0293,-1.0293,-1.0274,-1.0194,-1.0194,-1.0194,-1.0194,-1.0175,-1.099,-1.2468,-1.3159,-1.4016,-1.4897,-1.4933,-1.496,0.0,-1.5036,-1.5076,-1.5127,-1.5127,-1.5159,-1.5465,-1.7119,-1.7702,-1.8003,-1.9754,-2.0312,-2.0312,-2.0312,-2.0312,-2.0312,-2.0312,-2.0312,-2.0312,-2.0312,-2.0306,-2.0321,-2.0423,-2.0784,-2.1092,-2.1078,-2.1881,-2.2799,-2.3483,-2.3762,-2.3852,-2.3754,-2.3315,-2.2694,-2.181,-2.1636,-2.1455,-2.1062,-2.0923,-2.0842,-2.0855,-2.1579,-2.2182,-2.2439,-2.3083,-2.3506,-2.3563,-2.3524,-2.3379,-2.3053,-2.3018,-2.3088,-2.328,-2.3645,-2.3946,-2.4174,-2.4491,-2.4651,-2.4723,-2.4836,-2.4981,-2.5141,-2.5141,-2.5203,-2.538,-2.587,-2.6101,-2.6217,-2.7073,-2.7928,-2.876,-2.9617,-3.0129,-3.0398,-1.0483,-1.0861,-1.1313,-1.1985,-1.1431,-1.0961,-1.1103,-1.12,-1.137,-1.1681,-1.2469,-1.3129,-1.3524,-1.3699,-1.3808,-1.3885,-1.4066,-1.3865,-1.3176,-1.4554,-1.4698,-1.3125,-1.3066,-1.2656,-1.1797,-1.1035,-1.0586,-1.0469,-1.0469,-1.0376,-1.0192,-1.0206,-1.0194,-1.0194,0.0,0.0,0.0,-1.4036,-1.4803,-1.4911,-1.4987,-1.5049,-1.5125,-1.5125,-1.5202,-1.532,-1.5438,-1.5426,-1.5618,-1.7176,-1.7773,-1.8157,-1.9792,-2.0312,-2.0312,-2.0312,-2.0312,-2.0312,-2.0312,-2.0312,-2.0312,-2.0312,-2.0312,-2.0331,-2.0389,-2.0369,-2.0585,-2.1461,-2.1139,-2.138,-2.365,-2.3008,-2.2419,-2.3221,-2.3345,-2.3014,-2.2036,-2.1994,0.0,0.0,-2.127,0.0,-2.0663,-2.0578,-2.0746,-2.1149,-2.1975,-2.2665,-2.3098,-2.3846,-2.4039,-2.3622,-2.366,-2.3779,-2.4044,-2.4081,-2.4334,-2.4794,-2.4827,-2.4907,-2.5031,-2.5061,-2.516,-2.5322,-2.5322,-2.537,-2.5409,-2.5399,-2.5456,-2.5591,-2.6467,-2.7268,-2.8033,-2.8844,-2.9547,-3.0117,-1.1539,-1.1868,-1.2133,-1.21,-1.2615,-1.3001,-1.2874,-1.2413,-1.2155,-1.2328,-1.3281,-1.3799,-1.3411,-1.4128,-1.4467,-1.3942,-1.4574,-1.4961,-1.4866,-1.5158,-1.4883,-1.3926,-1.3887,-1.3516,-1.2695,-1.252,-1.209,-1.1367,-1.1367,-1.0976,-1.0209,-1.0205,-1.0194,-1.0194,0.0,0.0,-1.2575,-1.4179,-1.491,-1.4985,-1.5004,-1.5115,-1.5265,-1.5265,-1.5281,-1.538,-1.611,-1.6329,-1.6426,-1.7369,-1.8177,-1.8958,-1.9977,-2.0312,-2.0312,-2.0312,-2.0312,-2.0312,-2.0312,-2.0312,-2.0312,-2.0312,-2.0312,-2.0331,-2.0389,-2.0427,-2.054,-2.0755,-2.126,-2.1791,-2.2246,-2.3223,-2.4238,-2.5096,-2.5232,-2.4685,-2.3142,-2.3514,-2.3369,0.0,-2.1761,-2.18,-2.1644,-2.2177,-2.2256,-2.1628,-2.2346,-2.3084,-2.37,-2.3838,-2.3959,-2.4149,-2.4428,-2.4463,-2.4256,-2.453,-2.4708,-2.4807,-2.5024,-2.5135,-2.5158,-2.5329,-2.5427,-2.5466,-2.5466,-2.5466,-2.5486,-2.5473,-2.549,-2.5593,-2.6454,-2.6901,-2.7122,-2.7997,-2.8397,-2.8686,-1.2069,-1.2372,0.0,-1.2849,-1.3169,-1.344,-1.3584,-1.3421,-1.3187,-1.2907,-1.3364,-1.369,-1.3578,-1.4395,-1.4859,-1.4601,-1.4997,-1.5262,-1.5293,-1.5329,-1.5189,-1.4785,-1.4336,-1.3926,-1.3535,-1.3105,-1.2461,-1.1602,-1.1602,-1.1113,-1.0195,-1.0193,-1.0205,-1.023,0.0,-1.2025,-1.3242,-1.4332,-1.4901,-1.5057,-1.5056,-1.5161,-1.5346,-1.5351,-1.5625,-1.6091,-1.6493,-1.7194,-1.7956,-1.8352,-1.8729,-1.9196,-2.0042,-2.0312,-2.0312,-2.0312,-2.0312,-2.0312,-2.0312,-2.0312,-2.0312,-2.0312,-2.0312,-2.0331,-2.0427,-2.0485,-2.0506,-2.0536,-2.0919,-2.1367,-2.1816,-2.3262,-2.4394,-2.4355,-2.4727,-2.4434,-2.2754,-2.2852,-2.2636,-2.1372,0.0,0.0,-2.1271,-2.1919,-2.1992,-2.1091,-2.1798,-2.2583,-2.3294,-2.3726,-2.4171,-2.4648,-2.4855,-2.4879,-2.4723,-2.49,-2.5067,-2.5147,-2.5293,-2.5361,-2.5361,-2.5464,-2.551,-2.551,-2.551,-2.5526,-2.5553,-2.5585,-2.5603,-2.5642,-2.6071,-2.6224,-2.633,-2.7204,-2.7504,-2.7712,-1.2684,-1.2874,-1.321,-1.3584,-1.3501,-1.3532,-1.3881,-1.4136,-1.4083,-1.3534,-1.3503,-1.3672,-1.4015,-1.4599,-1.5047,-1.5183,-1.5253,-1.5272,-1.5291,-1.5346,-1.5389,-1.5391,-1.4746,-1.4375,-1.4375,-1.3769,-1.3008,-1.2129,-1.2129,-1.1562,-1.0508,-1.0699,-1.0773,-1.0813,-1.2123,-1.311,-1.3865,-1.4503,-1.4918,-1.5115,-1.5134,-1.5234,-1.5397,-1.5604,-1.6093,-1.6758,-1.7124,-1.8096,-1.9244,-1.9444,-1.9445,-1.949,-2.0096,-2.0312,-2.0312,-2.0312,-2.0312,-2.0312,-2.0312,-2.0312,-2.0312,-2.0312,-2.0289,-2.033,-2.0434,-2.046,-2.048,-2.0493,-2.0558,-2.0879,-2.1738,-2.2988,-2.3691,-2.3203,-2.3691,-2.3613,-2.2109,-2.2051,-2.1777,-2.0723,0.0,-2.1562,-2.0684,-2.1177,-2.1222,-2.0464,-2.1022,-2.1822,-2.2763,-2.3447,-2.4216,-2.5057,-2.5144,-2.5153,-2.5157,-2.5228,-2.5348,-2.5488,-2.5489,-2.5495,-2.5495,-2.5495,-2.5506,-2.5527,-2.5527,-2.5571,-2.5619,-2.5685,-2.5703,-2.5703,-2.5703,-2.5693,-2.5781,-2.6466,-2.6695,-2.685,-1.3922,-1.3774,-1.3693,-1.3838,-1.3938,-1.4038,-1.4065,-1.4295,-1.4421,-1.4309,-1.4364,-1.4526,-1.4851,-1.4904,-1.4984,-1.5177,-1.5209,-1.5234,-1.5291,-1.5311,-1.5348,-1.5391,-1.5312,-1.5273,-1.5273,-1.5195,-1.4746,-1.3867,-1.3867,-1.3047,-1.1484,-1.2282,-1.2608,-1.2589,-1.333,-1.3748,-1.3946,-1.4724,-1.5101,-1.5199,-1.5259,-1.5291,-1.5393,-1.6254,-1.6622,-1.6913,-1.8495,-1.9166,-1.9409,-2.0205,-2.0379,-2.0279,-2.0306,-2.0312,-2.0312,-2.0312,-2.0312,-2.0312,-2.0312,-2.0312,-2.0312,-2.0312,-2.0302,-2.0297,-2.0316,-2.0366,-2.0439,-2.0484,-2.0558,-2.0879,-2.1738,-2.2031,-2.2363,-2.3086,-2.3262,-2.2988,-2.2031,-2.2539,-2.2383,-2.0781,-2.1367,0.0,-2.0684,-2.0667,-2.0635,-2.0419,-2.0419,-2.1155,-2.2804,-2.2899,-2.3678,-2.5312,-2.536,-2.5367,-2.5365,-2.5442,-2.5444,-2.541,-2.5461,-2.5504,-2.5504,-2.5504,-2.5525,-2.5585,-2.5585,-2.5623,-2.5681,-2.5703,-2.5703,-2.5703,-2.5703,-2.5703,-2.5702,-2.58,-2.5819,-2.5955,-1.387,-1.3842,-1.3853,-1.3997,-1.4188,-1.435,-1.435,-1.4441,-1.4537,-1.468,-1.4718,-1.4831,-1.5082,-1.5094,-1.512,-1.5183,-1.5189,-1.5234,-1.5291,-1.5303,-1.5325,-1.5391,-1.5391,-1.5391,-1.5391,-1.5391,-1.4961,-1.4102,-1.4102,-1.3504,-1.2393,-1.2698,-1.3089,-1.3523,-1.3728,-1.4109,-1.4641,-1.4886,-1.5027,-1.512,-1.572,-1.6014,-1.6176,-1.7087,-1.7761,-1.8359,-1.9043,-1.9647,-2.013,-2.0481,-2.0537,-2.0453,-2.0428,-2.0385,-2.035,-2.0312,-2.0312,-2.0312,-2.0312,-2.0312,-2.0312,-2.0312,-2.0292,-2.0308,-2.0346,-2.0386,-2.0405,-2.0385,-2.0425,-2.0607,-2.1035,-2.1543,-2.1836,-2.168,-2.207,-2.2129,-2.123,-2.1406,-2.1348,-2.0684,-2.0918,-2.0977,-2.0625,-2.0568,-2.0526,-2.0469,-2.0408,-2.11,-2.2746,-2.2859,-2.362,-2.5291,-2.5425,-2.5373,-2.5221,-2.5405,-2.542,-2.5284,-2.5432,-2.5492,-2.5492,-2.5492,-2.5542,-2.5605,-2.5605,-2.5644,-2.5703,-2.5703,-2.5703,-2.5703,-2.5703,-2.5703,-2.5703,-2.5703,-2.5703,-2.5742,-1.3955,-1.4011,-1.411,-1.4201,-1.4375,-1.4511,-1.456,-1.4549,-1.4645,-1.4902,-1.4936,-1.5,-1.5177,-1.5152,-1.5165,-1.5209,-1.5189,-1.5234,-1.5291,-1.5308,-1.5324,-1.5391,-1.5391,-1.5391,-1.5391,-1.5391,-1.5098,-1.4473,-1.4473,-1.4067,-1.324,-1.3193,-1.3601,-1.4372,-1.4239,-1.4523,-1.5136,-1.5288,-1.5369,-1.5529,-1.6462,-1.6904,-1.7082,-1.7971,-1.8717,-1.9336,-1.959,-2.0078,-2.0605,-2.0605,-2.0566,-2.0527,-2.0508,-2.0475,-2.0421,-2.0354,-2.0337,-2.0331,-2.0331,-2.0331,-2.0312,-2.0312,-2.0312,-2.0312,-2.0369,-2.0369,-2.0369,-2.0312,-2.0371,-2.0462,-2.0546,-2.1094,-2.1328,-2.0703,-2.1113,-2.1309,-2.0684,-2.0605,-2.0605,-2.0605,-2.0605,-2.0605,-2.0605,-2.0566,-2.0632,-2.0856,-2.0848,-2.1405,-2.2799,-2.2878,-2.3625,-2.5217,-2.5331,-2.5262,-2.502,-2.5206,-2.5233,-2.5137,-2.529,-2.5369,-2.5447,-2.5466,-2.5503,-2.5534,-2.5583,-2.5625,-2.5664,-2.5684,-2.5703,-2.5703,-2.5703,-2.5703,-2.5703,-2.5703,-2.5703,-2.5703,-1.4488,-1.4488,-1.4488,-1.4488,-1.4506,-1.4537,-1.4681,-1.469,-1.4776,-1.4966,-1.4995,-1.5042,-1.5183,-1.5082,-1.5068,-1.5183,-1.5189,-1.5234,-1.5291,-1.5291,-1.5334,-1.539,-1.5391,-1.5391,-1.5391,-1.5391,-1.5391,-1.5371,-1.5371,-1.4941,-1.4082,-1.4078,-1.4518,-1.5272,-1.5132,-1.5132,-1.5241,-1.6058,-1.6412,-1.6559,-1.7509,-1.7881,-1.7993,-1.8932,-1.9297,-1.9414,-2.0273,-2.0586,-2.0605,-2.0605,-2.0605,-2.0586,-2.0527,-2.0508,-2.0486,-2.0416,-2.039,-2.0408,-2.0408,-2.035,-2.0312,-2.0312,-2.0312,-2.0312,-2.0312,-2.0312,-2.0312,-2.0312,-2.0418,-2.0508,-2.0508,-2.0566,-2.0605,-2.0605,-2.0605,-2.0605,-2.0605,-2.0605,-2.0605,-2.0605,-2.0605,-2.0605,-2.0605,-2.0605,-2.0937,-2.1719,-2.1779,-2.213,-2.2945,-2.2931,-2.3612,-2.5148,-2.5141,-2.5005,-2.481,-2.4813,-2.4869,-2.4991,-2.4991,-2.5099,-2.5303,-2.537,-2.5409,-2.5408,-2.5534,-2.5605,-2.5605,-2.5664,-2.5703,-2.5703,-2.5703,-2.5703,-2.5703,-2.5703,-2.5703,-2.5703,-1.4488,-1.4488,-1.4533,-1.4619,-1.4639,-1.468,-1.4813,-1.4841,-1.4885,-1.4992,-1.4995,-1.5049,-1.5183,-1.5152,-1.5146,-1.5209,-1.5189,-1.5209,-1.5234,-1.5272,-1.5312,-1.5334,-1.5376,-1.5391,-1.5391,-1.5391,-1.5391,-1.5391,-1.5391,-1.5254,-1.498,-1.4988,-1.509,-1.5307,-1.5259,-1.5555,-1.6106,-1.642,-1.6875,-1.7472,-1.8416,-1.8789,-1.888,-1.9773,-2.0156,-2.0215,-2.0508,-2.0605,-2.0605,-2.0605,-2.0605,-2.0605,-2.0566,-2.0566,-2.0566,-2.0483,-2.0471,-2.0464,-2.0415,-2.039,-2.0363,-2.0361,-2.0369,-2.0369,-2.0369,-2.0369,-2.0389,-2.0427,-2.047,-2.0515,-2.0564,-2.0586,-2.0605,-2.0605,-2.0605,-2.0605,-2.0605,-2.0555,-2.0542,-2.0585,-2.0566,-2.0547,-2.0605,-2.1133,-2.1348,-2.1016,-2.2037,-2.302,-2.3775,-2.3844,-2.4223,-2.5046,-2.5091,-2.4937,-2.4601,-2.4726,-2.4827,-2.485,-2.4949,-2.5099,-2.5303,-2.5322,-2.539,-2.5476,-2.5507,-2.5574,-2.5664,-2.5684,-2.5703,-2.5703,-2.5703,-2.5703,-2.5703,-2.5703,-2.5703,-2.5703,-1.4643,-1.4622,-1.4624,-1.4748,-1.4776,-1.4803,-1.4917,-1.4933,-1.4965,-1.5068,-1.5082,-1.5121,-1.5189,-1.5189,-1.5189,-1.5189,-1.5189,-1.5189,-1.5189,-1.5234,-1.5272,-1.5291,-1.5345,-1.5364,-1.5391,-1.5391,-1.5391,-1.5391,-1.5723,-1.5898,-1.5898,-1.6211,-1.6345,-1.6286,-1.6285,-1.6536,-1.702,-1.7413,-1.7868,-1.8406,-1.9327,-1.9701,-1.978,-2.0338,-2.0566,-2.0605,-2.0605,-2.0605,-2.0605,-2.0605,-2.0605,-2.0605,-2.0605,-2.0605,-2.0586,-2.0547,-2.0547,-2.0527,-2.0486,-2.0458,-2.0438,-2.0435,-2.0418,-2.0399,-2.0399,-2.0399,-2.0418,-2.0457,-2.048,-2.0501,-2.0542,-2.0576,-2.0605,-2.0605,-2.0605,-2.0605,-2.0605,-2.0541,-2.0521,-2.0588,-2.054,-2.0527,-2.0586,-2.1387,-2.1797,-2.1562,-2.2797,-2.389,-2.4646,-2.4397,-2.4445,-2.4915,-2.4962,-2.4783,-2.4393,-2.4512,-2.4654,-2.4804,-2.5005,-2.5173,-2.5303,-2.5303,-2.537,-2.5447,-2.549,-2.5557,-2.5652,-2.5699,-2.5703,-2.5703,-2.5703,-2.5703,-2.5703,-2.5703,-2.5703,-2.5703,-1.4841,-1.4785,-1.4747,-1.4876,-1.4913,-1.4936,-1.5007,-1.5002,-1.5049,-1.5183,-1.5189,-1.5189,-1.5189,-1.5189,-1.5189,-1.5189,-1.5189,-1.5189,-1.5189,-1.5189,-1.5234,-1.5291,-1.5299,-1.5351,-1.5486,-1.5488,-1.5527,-1.5586,-1.6387,-1.6797,-1.6816,-1.7617,-1.7969,-1.791,-1.7909,-1.7907,-1.7955,-1.8814,-1.9234,-1.9364,-2.0168,-2.0533,-2.0604,-2.0599,-2.0605,-2.0605,-2.0605,-2.0605,-2.0605,-2.0605,-2.0605,-2.0605,-2.0605,-2.0605,-2.0605,-2.0605,-2.0605,-2.0605,-2.0605,-2.0547,-2.0506,-2.0519,-2.046,-2.0418,-2.0418,-2.0418,-2.0418,-2.0418,-2.0466,-2.0511,-2.0511,-2.0568,-2.0625,-2.0684,-2.0684,-2.0683,-2.0682,-2.0623,-2.06,-2.0589,-2.0542,-2.0527,-2.0585,-2.1443,-2.2245,-2.2871,-2.3779,-2.4591,-2.5274,-2.4534,-2.4324,-2.4792,-2.4787,-2.4607,-2.4228,-2.4228,-2.4409,-2.4818,-2.5138,-2.5303,-2.5303,-2.5303,-2.5341,-2.5418,-2.5473,-2.5538,-2.5616,-2.5676,-2.5703,-2.5703,-2.5703,-2.5703,-2.5703,-2.5703,-2.5703,-2.5703,-1.4717,-1.4727,-1.4757,-1.4946,-1.4977,-1.5026,-1.5133,-1.5146,-1.5152,-1.5209,-1.5189,-1.5189,-1.5189,-1.5189,-1.5189,-1.5189,-1.5189,-1.5189,-1.5189,-1.5189,-1.5234,-1.5291,-1.5295,-1.5631,-1.6294,-1.6366,-1.6719,-1.7383,-1.7598,-1.7695,-1.7695,-1.7891,-1.7988,-1.7969,-1.7924,-1.8259,-1.8877,-1.9057,-1.9545,-2.0205,-2.0353,-2.0491,-2.0582,-2.0541,-2.0561,-2.0605,-2.0605,-2.0605,-2.0605,-2.0605,-2.0605,-2.0605,-2.0605,-2.0605,-2.0605,-2.0605,-2.0605,-2.0605,-2.0605,-2.0586,-2.0586,-2.0583,-2.0562,-2.0542,-2.0542,-2.0542,-2.0542,-2.0542,-2.0575,-2.0588,-2.0588,-2.0582,-2.082,-2.1484,-2.1582,-2.1572,-2.1515,-2.15,-2.1253,-2.06,-2.0508,-2.0506,-2.0526,-2.19,-2.232,-2.112,-2.3023,-2.4015,-2.3544,-2.3899,-2.4323,-2.4779,-2.4808,-2.4685,-2.4426,-2.4445,-2.4604,-2.4949,-2.5192,-2.5303,-2.5303,-2.5341,-2.5409,-2.5486,-2.5551,-2.5602,-2.5683,-2.5682,-2.5703,-2.5703,-2.5703,-2.5703,-2.5703,-2.5703,-2.5703,-2.5703,-1.4803,-1.4839,-1.489,-1.5068,-1.5042,-1.5042,-1.5183,-1.5146,-1.5133,-1.5189,-1.5189,-1.5189,-1.5189,-1.5189,-1.5189,-1.5189,-1.5189,-1.5189,-1.5189,-1.5189,-1.5214,-1.5253,-1.5638,-1.6074,-1.6535,-1.6986,-1.745,-1.7949,-1.8359,-1.8555,-1.8594,-1.9004,-1.9171,-1.9142,-1.9098,-1.9336,-1.9749,-1.9709,-2.0007,-2.0504,-2.0465,-2.0488,-2.0546,-2.0508,-2.0501,-2.0513,-2.0546,-2.0547,-2.0566,-2.0586,-2.0605,-2.0605,-2.0605,-2.0605,-2.0605,-2.0605,-2.0605,-2.0605,-2.0605,-2.0605,-2.0605,-2.0605,-2.0605,-2.0605,-2.0605,-2.0605,-2.0605,-2.0605,-2.0605,-2.0605,-2.0605,-2.0937,-2.1348,-2.1816,-2.1894,-2.1889,-2.1843,-2.1488,-2.1032,-2.0562,-2.0467,-2.0456,-2.0457,-2.166,-2.2048,-2.1075,-2.2628,-2.3571,-2.3495,-2.387,-2.4339,-2.4872,-2.4891,-2.4814,-2.4639,-2.4712,-2.4818,-2.501,-2.5203,-2.5322,-2.5341,-2.539,-2.5447,-2.5543,-2.5582,-2.5647,-2.5703,-2.5703,-2.5703,-2.5703,-2.5703,-2.5703,-2.5703,-2.5703,-2.5703,-2.5703,-1.495,-1.4995,-1.5042,-1.5177,-1.5088,-1.5035,-1.5146,-1.5082,-1.5099,-1.5338,-1.526,-1.5247,-1.5388,-1.5285,-1.5189,-1.5189,-1.5189,-1.5189,-1.5189,-1.5189,-1.5266,-1.5388,-1.6118,-1.6619,-1.6875,-1.7733,-1.8216,-1.8273,-1.902,-1.9412,-1.9471,-2.0213,-2.0542,-2.0472,-2.0462,-2.0446,-2.0408,-2.0389,-2.0423,-2.0472,-2.0481,-2.0489,-2.0472,-2.0481,-2.045,-2.0418,-2.0488,-2.0505,-2.0508,-2.0586,-2.0605,-2.0605,-2.0605,-2.0605,-2.0605,-2.0605,-2.0605,-2.0605,-2.0605,-2.0605,-2.0605,-2.0605,-2.0605,-2.0605,-2.0605,-2.0605,-2.0605,-2.0605,-2.0605,-2.0605,-2.0605,-2.1309,-2.1894,-2.1894,-2.2012,-2.2051,-2.1894,-2.1201,-2.0633,-2.0499,-2.0429,-2.0408,-2.0394,-2.1172,-2.1636,-2.1498,-2.2235,-2.3003,-2.3744,-2.3744,-2.3995,-2.4645,-2.4889,-2.4956,-2.4828,-2.4962,-2.5046,-2.5065,-2.5233,-2.5341,-2.5428,-2.5428,-2.5486,-2.5611,-2.5608,-2.5654,-2.5703,-2.5703,-2.5703,-2.5703,-2.5703,-2.5703,-2.5703,-2.5703,-2.5703,-2.5703,-1.495,-1.4995,-1.5042,-1.5177,-1.5088,-1.5014,-1.5028,-1.5002,-1.5262,-1.6021,-1.5587,-1.5484,-1.6215,-1.5638,-1.5189,-1.5189,-1.5189,-1.5189,-1.5189,-1.5189,-1.5541,-1.6272,-1.6426,-1.7157,-1.8588,-1.9465,-1.9949,-2.0005,-2.0152,-2.0218,-2.0237,-2.0373,-2.0434,-2.0415,-2.0366,-2.0369,-2.0408,-2.035,-2.0347,-2.0415,-2.0417,-2.0424,-2.043,-2.041,-2.0412,-2.0422,-2.0488,-2.0492,-2.0508,-2.0586,-2.0605,-2.0605,-2.0605,-2.0605,-2.0605,-2.0605,-2.0605,-2.0605,-2.0605,-2.0605,-2.0605,-2.0605,-2.0605,-2.0605,-2.0605,-2.0605,-2.0605,-2.0605,-2.0605,-2.0605,-2.0605,-2.1309,-2.1894,-2.1894,-2.2519,-2.2715,-2.1934,-2.1692,-2.1293,-2.0515,-2.0409,-2.0385,-2.0318,-2.1097,-2.1304,-2.0573,-2.1254,-2.1773,-2.1908,-2.1908,-2.2284,-2.3112,-2.4342,-2.4998,-2.4974,-2.5152,-2.5283,-2.534,-2.538,-2.5428,-2.5486,-2.5543,-2.5582,-2.5611,-2.566,-2.5699,-2.5703,-2.5703,-2.5703,-2.5703,-2.5703,-2.5703,-2.5703,-2.5703,-2.5703,-2.5703,-1.4821,-1.4923,-1.5011,-1.503,-1.503,-1.4992,-1.4988,-1.5331,-1.5624,-1.5701,-1.6208,-1.6522,-1.6503,-1.6522,-1.6542,-1.6542,-1.6542,-1.6369,-1.5926,-1.5465,-1.5599,-1.6465,-1.6926,-1.7946,-1.9658,-2.01,-2.0331,-2.035,-2.034,-2.0359,-2.0398,-2.0398,-2.0379,-2.0334,-2.0311,-2.0331,-2.035,-2.0312,-2.0341,-2.0398,-2.0411,-2.0383,-2.0353,-2.0342,-2.035,-2.035,-2.0427,-2.0457,-2.0451,-2.0565,-2.0605,-2.0605,-2.0605,-2.0605,-2.0605,-2.0605,-2.0605,-2.0605,-2.0605,-2.0605,-2.0605,-2.0605,-2.0605,-2.0605,-2.0605,-2.0605,-2.0605,-2.0605,-2.0605,-2.0605,-2.0605,-2.1699,-2.2441,-2.1973,-2.2637,-2.2867,-2.1921,-2.1404,-2.0913,-2.0405,-2.036,-2.0331,-2.0312,-2.065,-2.0727,-2.0331,-2.0639,-2.1054,-2.1534,-2.1554,-2.1957,-2.2879,-2.3947,-2.4741,-2.5201,-2.5321,-2.539,-2.5447,-2.5445,-2.5495,-2.5543,-2.5582,-2.5627,-2.5663,-2.5696,-2.5703,-2.5703,-2.5703,-2.5703,-2.5703,-2.5703,-2.5703,-2.5703,-2.5703,-2.5703,-2.5703,-1.4747,-1.4857,-1.496,-1.4913,-1.4919,-1.4942,-1.497,-1.559,-1.5977,-1.5779,-1.6854,-1.7514,-1.7119,-1.7452,-1.7702,-1.7702,-1.7702,-1.7446,-1.6811,-1.6157,-1.608,-1.6753,-1.7753,-1.8927,-2.0273,-2.0312,-2.0312,-2.0312,-2.0312,-2.0331,-2.0389,-2.0389,-2.035,-2.0312,-2.0312,-2.0312,-2.0312,-2.0312,-2.0334,-2.0381,-2.0371,-2.035,-2.0312,-2.0312,-2.0312,-2.0312,-2.0389,-2.0392,-2.0425,-2.0543,-2.0605,-2.0605,-2.0605,-2.0605,-2.0605,-2.0605,-2.0605,-2.0605,-2.0605,-2.0605,-2.0605,-2.0605,-2.0605,-2.0605,-2.0605,-2.0605,-2.0605,-2.0605,-2.0605,-2.0605,-2.0605,-2.1855,-2.2617,-2.1738,-2.2324,-2.2563,-2.1628,-2.0924,-2.0465,-2.035,-2.0331,-2.0331,-2.0331,-2.0331,-2.0331,-2.0331,-2.0331,-2.0611,-2.1284,-2.1325,-2.1741,-2.2663,-2.3435,-2.4265,-2.5111,-2.5129,-2.5263,-2.5524,-2.5529,-2.557,-2.5631,-2.5631,-2.5649,-2.5703,-2.5703,-2.5703,-2.5703,-2.5703,-2.5703,-2.5703,-2.5703,-2.5703,-2.5703,-2.5703,-2.5703,-2.5703,-1.485,-1.4904,-1.4913,-1.4904,-1.4804,-1.4747,-1.4885,-1.5478,-1.6286,-1.7295,-1.7475,-1.7852,-1.8715,-1.8145,-1.7702,-1.7702,-1.7702,-1.7657,-1.7626,-1.7542,-1.7542,-1.7606,-1.9215,-2.0177,-2.0312,-2.0312,-2.0312,-2.0312,-2.0312,-2.0312,-2.0312,-2.0312,-2.0312,-2.0312,-2.0312,-2.0312,-2.0312,-2.0312,-2.03,-2.0308,-2.0312,-2.0312,-2.0312,-2.0312,-2.0312,-2.0312,-2.0389,-2.0392,-2.0425,-2.0543,-2.0605,-2.0605,-2.0605,-2.0605,-2.0605,-2.0605,-2.0605,-2.0605,-2.0605,-2.0605,-2.0605,-2.0605,-2.0605,-2.0605,-2.0605,-2.0605,-2.0605,-2.0605,-2.0605,-2.0605,-2.0605,-2.1367,-2.1719,-2.084,-2.1426,-2.1663,-2.0725,-2.0542,-2.0465,-2.0408,-2.0389,-2.0389,-2.0389,-2.0389,-2.0389,-2.0389,-2.0389,-2.0427,-2.0485,-2.0485,-2.0884,-2.1768,-2.2628,-2.3458,-2.4274,-2.4296,-2.4729,-2.5582,-2.5582,-2.5635,-2.5681,-2.5681,-2.5702,-2.5703,-2.5703,-2.5703,-2.5703,-2.5703,-2.5703,-2.5703,-2.5703,-2.5703,-2.5703,-2.5703,-2.5703,-2.5703,-1.4635,-1.4645,-1.4813,-1.5314,-1.548,-1.5732,-1.6183,-1.6948,-1.7431,-1.7414,-1.8295,-1.8906,-1.8873,-1.9024,-1.9183,-1.9304,-1.9311,-1.9081,-1.8535,-1.9004,-1.9081,-1.8535,-1.9658,-2.0312,-2.0312,-2.0312,-2.0312,-2.0312,-2.0312,-2.0312,-2.0312,-2.0312,-2.0312,-2.0312,-2.0312,-2.0312,-2.0312,-2.0312,-2.0312,-2.0312,-2.0312,-2.0312,-2.0312,-2.0312,-2.0312,-2.0312,-2.0389,-2.0434,-2.0469,-2.0526,-2.0541,-2.0536,-2.0483,-2.05,-2.0547,-2.0586,-2.0605,-2.0605,-2.0605,-2.0605,-2.0605,-2.0605,-2.0605,-2.0605,-2.0605,-2.0605,-2.0605,-2.0605,-2.0605,-2.0605,-2.0605,-2.1309,-2.1602,-2.0742,-2.1328,-2.1579,-2.0628,-2.0493,-2.0472,-2.0408,-2.0394,-2.0394,-2.0394,-2.0394,-2.0394,-2.0394,-2.0394,-2.0411,-2.0454,-2.0496,-2.0683,-2.1017,-2.1341,-2.2168,-2.3496,-2.4019,-2.4465,-2.4865,-2.5391,-2.5679,-2.5703,-2.5703,-2.5703,-2.5703,-2.5703,-2.5703,-2.5703,-2.5703,-2.5703,-2.5703,-2.5703,-2.5703,-2.5703,-2.5703,-2.5703,-2.5703,-1.4488,-1.4488,-1.4671,-1.5233,-1.5692,-1.6146,-1.6662,-1.7628,-1.8162,-1.7734,-1.8873,-1.9578,-1.9162,-1.962,-1.9983,-2.0116,-2.018,-1.9948,-1.9353,-1.9923,-2.0035,-1.9439,-1.9977,-2.0312,-2.0312,-2.0312,-2.0312,-2.0312,-2.0312,-2.0312,-2.0312,-2.0312,-2.0312,-2.0312,-2.0312,-2.0312,-2.0312,-2.0312,-2.0312,-2.0312,-2.0312,-2.0312,-2.0312,-2.0312,-2.0312,-2.0312,-2.0408,-2.0465,-2.0504,-2.0504,-2.0504,-2.0515,-2.0454,-2.0486,-2.0547,-2.0586,-2.0605,-2.0605,-2.0605,-2.0605,-2.0605,-2.0605,-2.0605,-2.0605,-2.0605,-2.0605,-2.0605,-2.0605,-2.0605,-2.0605,-2.0605,-2.1094,-2.1309,-2.0703,-2.1094,-2.1269,-2.0586,-2.0516,-2.0521,-2.0448,-2.0457,-2.045,-2.045,-2.045,-2.045,-2.045,-2.045,-2.0483,-2.0521,-2.0577,-2.0609,-2.0609,-2.0609,-2.115,-2.2307,-2.3133,-2.3703,-2.4023,-2.4883,-2.5293,-2.5293,-2.5586,-2.5703,-2.5703,-2.5703,-2.5703,-2.5703,-2.5703,-2.5703,-2.5703,-2.5703,-2.5703,-2.5703,-2.5703,-2.5703,-2.5703,-1.4488,-1.4488,-1.4488,-1.4524,-1.5178,-1.576,-1.59,-1.718,-1.8204,-1.8467,-1.9133,-1.9662,-1.9778,-1.979,-1.979,-1.979,-1.9914,-1.9993,-1.9993,-2.0197,-2.0312,-2.0312,-2.0312,-2.0312,-2.0312,-2.0312,-2.0312,-2.0312,-2.0312,-2.0312,-2.0312,-2.0312,-2.0312,-2.0312,-2.0312,-2.0312,-2.0312,-2.0312,-2.0312,-2.0312,-2.0312,-2.0312,-2.0312,-2.0312,-2.0312,-2.0312,-2.0446,-2.0493,-2.0493,-2.0504,-2.0542,-2.0589,-2.0523,-2.0554,-2.0605,-2.0605,-2.0605,-2.0605,-2.0605,-2.0605,-2.0605,-2.0605,-2.0605,-2.0605,-2.0605,-2.0605,-2.0605,-2.0605,-2.0605,-2.0605,-2.0605,-2.0605,-2.0605,-2.0605,-2.0605,-2.0586,-2.0508,-2.0566,-2.0586,-2.0518,-2.0555,-2.0605,-2.0605,-2.0605,-2.0605,-2.0605,-2.0605,-2.0605,-2.0605,-2.0605,-2.0605,-2.0605,-2.0605,-2.0605,-2.0605,-2.1465,-2.2324,-2.3203,-2.4004,-2.4394,-2.4434,-2.5293,-2.5703,-2.5703,-2.5703,-2.5703,-2.5703,-2.5703,-2.5703,-2.5703,-2.5703,-2.5703,-2.5703,-2.5703,-2.5703,-2.5703,-1.4488,-1.4488,-1.4854,-1.5991,-1.6376,-1.6935,-1.8098,-1.8658,-1.8765,-1.8291,-1.8892,-1.9244,-1.8852,-1.9411,-1.979,-1.979,-2.005,-2.0205,-2.0205,-2.0269,-2.0312,-2.0312,-2.0312,-2.0312,-2.0312,-2.0312,-2.0312,-2.0312,-2.0312,-2.0312,-2.0312,-2.0312,-2.0312,-2.0312,-2.0312,-2.0312,-2.0312,-2.0312,-2.0312,-2.0312,-2.0312,-2.0312,-2.0312,-2.0312,-2.0306,-2.0307,-2.0399,-2.0469,-2.0503,-2.0502,-2.0504,-2.0523,-2.0504,-2.0508,-2.0546,-2.0599,-2.0605,-2.0605,-2.0605,-2.0605,-2.0605,-2.0605,-2.0605,-2.0605,-2.0605,-2.0605,-2.0605,-2.0605,-2.0605,-2.0605,-2.0605,-2.0605,-2.0605,-2.0605,-2.0605,-2.0586,-2.0566,-2.0586,-2.0584,-2.0562,-2.0581,-2.0605,-2.0605,-2.0605,-2.0605,-2.0605,-2.0605,-2.0605,-2.0605,-2.0605,-2.0605,-2.0605,-2.0605,-2.0605,-2.0605,-2.1465,-2.2031,-2.2305,-2.3711,-2.4394,-2.4434,-2.5293,-2.5703,-2.5703,-2.5703,-2.5703,-2.5703,-2.5703,-2.5703,-2.5703,-2.5703,-2.5703,-2.5703,-2.5703,-2.5703,-2.5703,-1.4488,-1.4756,-1.5288,-1.6248,-1.6945,-1.7587,-1.8243,-1.861,-1.8647,-1.817,-1.8519,-1.8845,-1.8869,-1.9382,-1.9738,-1.9809,-2.0041,-2.0225,-2.0285,-2.0233,-2.0169,-2.0169,-2.0125,-2.0162,-2.0304,-2.0312,-2.0312,-2.0312,-2.0312,-2.0312,-2.0312,-2.0312,-2.0312,-2.0312,-2.0312,-2.0312,-2.0312,-2.0312,-2.0312,-2.0312,-2.0312,-2.0312,-2.0312,-2.0312,-2.0299,-2.0308,-2.0383,-2.0443,-2.0499,-2.0469,-2.0485,-2.0496,-2.0535,-2.0551,-2.0558,-2.0581,-2.0605,-2.0605,-2.0605,-2.0605,-2.0605,-2.0605,-2.0605,-2.0605,-2.0605,-2.0605,-2.0605,-2.0605,-2.0605,-2.0605,-2.0605,-2.0605,-2.0605,-2.0605,-2.0605,-2.0605,-2.0605,-2.0605,-2.0605,-2.0605,-2.0605,-2.0605,-2.0605,-2.0605,-2.0605,-2.0605,-2.0605,-2.0605,-2.0605,-2.0605,-2.0605,-2.0605,-2.0605,-2.0605,-2.0605,-2.1113,-2.1387,-2.1406,-2.3086,-2.3906,-2.3965,-2.5156,-2.5703,-2.5703,-2.5703,-2.5703,-2.5703,-2.5703,-2.5703,-2.5703,-2.5703,-2.5703,-2.5703,-2.5703,-2.5703,-2.5703,-1.4488,-1.5086,-1.5619,-1.5692,-1.6903,-1.7674,-1.7,-1.7568,-1.8078,-1.8005,-1.8129,-1.855,-1.9415,-1.9585,-1.9682,-1.9797,-1.9922,-2.006,-2.0269,-2.0097,-1.9974,-1.9974,-1.988,-1.9952,-2.0269,-2.0277,-2.0277,-2.0312,-2.0312,-2.0285,-2.0277,-2.0277,-2.0277,-2.0277,-2.0277,-2.0277,-2.0312,-2.0312,-2.0312,-2.0312,-2.0312,-2.0312,-2.0312,-2.0312,-2.0312,-2.0312,-2.0369,-2.0427,-2.0473,-2.0431,-2.0446,-2.0521,-2.0575,-2.0605,-2.0605,-2.0605,-2.0605,-2.0605,-2.0605,-2.0605,-2.0605,-2.0605,-2.0605,-2.0605,-2.0605,-2.0605,-2.0605,-2.0605,-2.0605,-2.0605,-2.0605,-2.0605,-2.0605,-2.0605,-2.0605,-2.0605,-2.0605,-2.0605,-2.0605,-2.0605,-2.0605,-2.0605,-2.0605,-2.0605,-2.0605,-2.0605,-2.0605,-2.0605,-2.0605,-2.0605,-2.0605,-2.0605,-2.0605,-2.0605,-2.0605,-2.0605,-2.0605,-2.0625,-2.2227,-2.3066,-2.3242,-2.4863,-2.5625,-2.5703,-2.5703,-2.5703,-2.5703,-2.5703,-2.5703,-2.5703,-2.5703,-2.5703,-2.5703,-2.5703,-2.5703,-2.5703,-1.4488,-1.4634,-1.4958,-1.5582,-1.5986,-1.6371,-1.6835,-1.7568,-1.7876,-1.7238,-1.8389,-1.9127,-1.8715,-1.9413,-1.989,-1.9821,-1.9824,-1.9901,-2.006,-1.9922,-1.9847,-1.9847,-1.9922,-1.9993,-2.0069,-2.0069,-2.0152,-2.0312,-2.0312,-2.0233,-2.0069,-2.0069,-2.0069,-2.0069,-2.0069,-2.0152,-2.0312,-2.0312,-2.0312,-2.0312,-2.0312,-2.0312,-2.0312,-2.0312,-2.0312,-2.0312,-2.0331,-2.0331,-2.0354,-2.0394,-2.0448,-2.0497,-2.0527,-2.0566,-2.0605,-2.0605,-2.0605,-2.0605,-2.0605,-2.0605,-2.0605,-2.0605,-2.0605,-2.0605,-2.0605,-2.0605,-2.0605,-2.0605,-2.0605,-2.0605,-2.0605,-2.0605,-2.0605,-2.0605,-2.0605,-2.0605,-2.0605,-2.0605,-2.0605,-2.0605,-2.0605,-2.0605,-2.0605,-2.0605,-2.0605,-2.0605,-2.0605,-2.0605,-2.0605,-2.0605,-2.0605,-2.0605,-2.0605,-2.0605,-2.0605,-2.0605,-2.0605,-2.0605,-2.166,-2.2539,-2.3223,-2.4238,-2.5059,-2.5703,-2.5703,-2.5703,-2.5703,-2.5703,-2.5703,-2.5703,-2.5703,-2.5703,-2.5703,-2.5703,-2.5703,-2.5703,-1.4488,-1.4811,-1.5215,-1.5619,-1.6022,-1.6279,-1.6334,-1.6683,-1.6793,-1.639,-1.7572,-1.8472,-1.85,-1.9408,-2.0003,-2.0031,-2.0031,-2.006,-2.0143,-1.9931,-1.979,-1.979,-1.9821,-1.9836,-1.9912,-1.9973,-2.0106,-2.0312,-2.0312,-2.0197,-1.9993,-1.9993,-1.9993,-1.9993,-1.9993,-2.0115,-2.0312,-2.0312,-2.0312,-2.0312,-2.0312,-2.0312,-2.0312,-2.0312,-2.0312,-2.0312,-2.0312,-2.0312,-2.0308,-2.0386,-2.0425,-2.0451,-2.0485,-2.0527,-2.0566,-2.0586,-2.0605,-2.0605,-2.0605,-2.0605,-2.0605,-2.0605,-2.0605,-2.0605,-2.0605,-2.0605,-2.0605,-2.0605,-2.0605,-2.0605,-2.0605,-2.0605,-2.0605,-2.0605,-2.0605,-2.0605,-2.0605,-2.0605,-2.0605,-2.0605,-2.0234,-1.998,-1.998,-1.998,-2.0156,-2.0566,-2.0605,-2.0605,-2.0605,-2.0605,-2.0605,-2.0605,-2.0605,-2.0605,-2.0605,-2.0605,-2.0605,-2.0605,-2.1484,-2.2344,-2.3184,-2.4023,-2.4883,-2.5703,-2.5703,-2.5703,-2.5703,-2.5703,-2.5703,-2.5703,-2.5703,-2.5703,-2.5703,-2.5703,-2.5703,-2.5703,-1.4488,-1.505,-1.549,-1.549,-1.6046,-1.6266,-1.56,-1.56,-1.5692,-1.5692,-1.6583,-1.7554,-1.8467,-1.9409,-2.0078,-2.0277,-2.0252,-2.0216,-2.0216,-1.9899,-1.9707,-1.9707,-1.9669,-1.9682,-1.9809,-1.9963,-2.0124,-2.0312,-2.0312,-2.0197,-1.9993,-1.9993,-1.9993,-1.9993,-1.9993,-2.0115,-2.0312,-2.0312,-2.0312,-2.0312,-2.0312,-2.0312,-2.0312,-2.0312,-2.0312,-2.0312,-2.0312,-2.0312,-2.0312,-2.0369,-2.0389,-2.039,-2.045,-2.0486,-2.0508,-2.0566,-2.0586,-2.0605,-2.0605,-2.0605,-2.0605,-2.0605,-2.0605,-2.0605,-2.0605,-2.0605,-2.0605,-2.0605,-2.0605,-2.0605,-2.0605,-2.0605,-2.0605,-2.0605,-2.0605,-2.0605,-2.0605,-2.0605,-2.0605,-2.0605,-1.9824,-1.9355,-1.9512,-1.9394,-1.9668,-2.0527,-2.0605,-2.0605,-2.0605,-2.0605,-2.0605,-2.0605,-2.0605,-2.0605,-2.0605,-2.0605,-2.0605,-2.0605,-2.1328,-2.2187,-2.3144,-2.3867,-2.4746,-2.5703,-2.5703,-2.5703,-2.5703,-2.5703,-2.5703,-2.5703,-2.5703,-2.5703,-2.5703,-2.5703,-2.5703,-2.5703,-1.4488,-1.4579,-1.4653,-1.4653,-1.4744,-1.4781,-1.4683,-1.5252,-1.5692,-1.5692,-1.6583,-1.7508,-1.8335,-1.9376,-2.0078,-2.0277,-2.0031,-1.9866,-1.9866,-1.9553,-1.938,-1.938,-1.9638,-1.9786,-1.979,-2.0098,-2.0277,-2.0312,-2.0312,-2.0197,-1.9993,-1.9993,-1.9993,-1.9993,-1.9993,-2.0115,-2.0312,-2.0312,-2.0312,-2.0312,-2.0312,-2.0312,-2.0312,-2.0312,-2.0312,-2.0312,-2.0312,-2.0312,-2.0312,-2.0312,-2.0312,-2.0319,-2.0313,-2.0418,-2.0508,-2.0508,-2.0547,-2.0605,-2.0605,-2.0605,-2.0605,-2.0605,-2.0605,-2.0605,-2.0605,-2.0605,-2.0605,-2.0605,-2.0605,-2.0605,-2.0605,-2.0605,-2.0605,-2.0605,-2.0605,-2.0605,-2.0605,-2.0605,-2.0605,-2.0605,-1.9824,-1.9609,-2.0352,-1.9746,-1.9668,-2.0527,-2.0605,-2.0605,-2.0605,-2.0605,-2.0605,-2.0605,-2.0605,-2.0605,-2.0605,-2.0605,-2.0605,-2.0605,-2.0723,-2.1621,-2.3184,-2.3301,-2.4219,-2.5703,-2.5703,-2.5703,-2.5703,-2.5703,-2.5703,-2.5703,-2.5703,-2.5703,-2.5703,-2.5703,-2.5703,-2.5703,-1.4488,-1.4488,-1.4464,-1.4362,-1.432,-1.4295,-1.4175,-1.4463,-1.4842,-1.526,-1.5924,-1.683,-1.8046,-1.9193,-1.9912,-2.0011,-1.9888,-1.979,-1.979,-1.9585,-1.9471,-1.9471,-1.9688,-1.979,-1.979,-2.0135,-2.0312,-2.0312,-2.0312,-2.0197,-1.9993,-1.9993,-1.9993,-1.9993,-1.9993,-2.0115,-2.0312,-2.0312,-2.0312,-2.0312,-2.0312,-2.0312,-2.0312,-2.0312,-2.0312,-2.0312,-2.0312,-2.0312,-2.0312,-2.0312,-2.0312,-2.0312,-2.0312,-2.0347,-2.0395,-2.0484,-2.0482,-2.0494,-2.0523,-2.054,-2.0547,-2.0547,-2.0566,-2.0605,-2.0605,-2.0605,-2.0605,-2.0605,-2.0605,-2.0605,-2.0605,-2.0605,-2.0605,-2.0605,-2.0605,-2.0605,-2.0605,-2.0605,-2.043,-1.9922,-1.9531,-1.9453,-1.9844,-1.9531,-1.9668,-2.0527,-2.0605,-2.0605,-2.0605,-2.0605,-2.0605,-2.0605,-2.0605,-2.0605,-2.0605,-2.0605,-2.0605,-2.0605,-2.0605,-2.1504,-2.3203,-2.3164,-2.4082,-2.5703,-2.5703,-2.5703,-2.5703,-2.5703,-2.5703,-2.5703,-2.5703,-2.5703,-2.5703,-2.5703,-2.5703,-2.5703]}]]